     2              OBSERVATION DATA    GPS                 RINEX VERSION / TYPE
teqc 1997Jul24 19970902 21:06:28UTC                         PGM / RUN BY / DATE
                                                            COMMENT
BIT 2 OF LLI FLAGS DATA COLLECTED UNDER A-S CONDITION       COMMENT
BIT 2 OF LLI FLAGS DATA COLLECTED UNDER A-S CONDITION       COMMENT
Original Marker Name: OCOT.55477                            COMMENT
Campaign Name: Salt. Tr. Crust. Monit. May-Jun 1986         COMMENT
4-Character Station Name: OCOT                              COMMENT
6-Character Antenna Code: TI4100                            COMMENT
Vertical Measurement Point: PAE                             COMMENT
Vertical Offset to Rinex Ref. Point: 0.0000                 COMMENT
Radial Measurement Point: RRP                               COMMENT
Radial Offset to Rinex Ref. Point: 0.0000                   COMMENT
Antenna Height from Field Measurement: 1.3275 m             COMMENT
Original XYZ: -2335677.5639 -4831581.1019 3435335.4283      COMMENT
New XYZ position is based on association with SCEC monument COMMENT
E1C8V7N3+0011. Position of that monument is believed to be  COMMENT
valid to within 1 m horizontally; vertical accuracy         COMMENT
should be no worse than 3-times this value.                 COMMENT
                                                            COMMENT
Revised Rinex header created by UCSD GPS archive for        COMMENT
GSAC on 10-Apr-1999 (1999:100) 05:06:28 GMT                 COMMENT
For assistance contact dagnew@ucsd.edu or hjohnson@ucsd.edu COMMENT
                                                            COMMENT
OCOTILLO NCMN 1982                                          MARKER NAME
05 NATIONAL GEODETIC SURVEY                                 OBSERVER / AGENCY
UT-33 TI 4100 1.0                                           REC # / TYPE / VERS
4091 TI 4100                                                ANT # / TYPE
 -2335602.0000 -4832244.0000  3434393.0000                  APPROX POSITION XYZ
        1.3275        0.0000        0.0000                  ANTENNA: DELTA H/E/N
     1     1     0                                          WAVELENGTH FACT L1/2
     4    P1    P2    L1    L2                              # / TYPES OF OBSERV
     6                                                      INTERVAL
  1986     6    10    23    36   29.000000                  TIME OF FIRST OBS
  1986     6    11     1    22   59.000000                  TIME OF LAST OBS
     0                                                      # OF SATELLITES
                                                            END OF HEADER
 86  6 10 23 36 29.0800000  0  1G 6
                  21416389.620       -2760.979 5
 86  6 10 23 36 35.0800000  0  2G 6G11
                  21414776.814      -11241.824 8
                  21449046.576      -20647.438 9
 86  6 10 23 36 41.0800000  0  3G 6G 9G11
                  21413169.121      -19713.323 7
                  23754963.347      -72891.497 9
                  21447098.412      -30921.664 9
 86  6 10 23 36 47.0800000  0  3G 6G 9G11
                  21411583.461      -28175.739 9
                  23751608.392      -90501.933 9
                  21445145.733      -41173.756 9
 86  6 10 23 36 53.0800000  0  4G 6G 8G 9G11
  21409975.046    21409976.731      -36628.665 9    294374.398 8
                  21571558.446      119067.778 9
                  23748290.317     -108113.028 9
                  21443227.768      -51404.456 8
 86  6 10 23 36 59.0800000  0  4G 6G 8G 9G11
  21408367.392    21408368.199      -45072.168 9    287795.024 8
                  21573806.768      130858.964 9
  23744937.935    23744942.965     -125724.269 9    340829.883 8
  21441285.578    21441289.960      -61612.207 9    343920.801 8
 86  6 10 23 37  5.0800000  0  4G 6G 8G 9G11
  21406761.619    21406763.647      -53506.271 9    281222.997 9
                  21576080.845      142672.626 8
  23741587.857    23741589.576     -143335.880 9    327106.539 8
  21439346.742    21439350.091      -71797.893 9    335983.988 8
 86  6 10 23 37 11.0800000  0  4G 6G 8G 9G11
  21405158.331    21405160.289      -61930.952 9    274658.313 7
  21578333.602    21578336.766      154509.214 9    441394.694 8
  23738237.006    23738237.641     -160947.771 9    313382.489 8
  21437413.913    21437414.861      -81961.393 8    328064.874 8
 86  6 10 23 37 17.0800000  0  4G 6G 8G 9G11
  21403557.546    21403559.189      -70346.292 9    268100.911 8
  21580590.072    21580591.187      166368.425 9    450635.603 8
  23734884.185    23734886.882     -178560.036 9    299658.651 8
  21435483.832    21435484.934      -92102.740 9    320162.530 7
 86  6 10 23 37 23.0800000  0  4G 6G 8G 9G11
  21401957.463    21401959.366      -78752.147 9    261550.899 9
  21582851.510    21582853.063      178250.206 9    459894.136 9
  23731533.420    23731535.011     -196172.573 9    285934.613 8
  21433557.986    21433560.716     -102221.892 9    312277.474 6
 86  6 10 23 37 29.0800000  0  4G 6G 8G 9G11
  21400359.719    21400360.733      -87148.584 9    255008.219 9
  21585116.978    21585118.802      190154.602 9    469170.275 8
  23728180.831    23728183.197     -213785.457 9    272210.301 6
  21431636.232    21431637.265     -112318.858 9    304409.720 7
 86  6 10 23 37 35.0800000  0  4G 6G 8G 9G11
  21398764.244    21398765.783      -95535.511 9    248472.941 9
  21587385.958    21587388.496      202081.597 9    478464.029 8
  23724828.944    23724831.805     -231398.587 9    258485.782 8
  21429719.172    21429719.946     -122393.606 9    296559.259 7
 86  6 10 23 37 41.0800000  0  4G 6G 8G 9G11
  21397169.550    21397170.564     -103913.008 9    241945.033 8
  21589660.545    21589662.907      214031.172 9    487775.397 9
  23721478.122    23721480.067     -249012.058 9    244761.026 8
  21427806.577    21427807.764     -132446.171 9    288726.097 7
 86  6 10 23 37 47.0800000  0  4G 6G 8G 9G11
  21395576.941    21395579.296     -112280.981 9    235424.532 8
  21591938.345    21591940.944      226003.253 9    497104.294 8
  23718125.593    23718127.593     -266625.809 9    231036.016 8
  21425898.046    21425900.077     -142476.513 9    280910.244 7
 86  6 10 23 37 53.0800000  0  4G 6G 8G 9G11
  21393986.380    21393987.944     -120639.456 9    228911.435 8
  21594221.321    21594222.753      237997.820 9    506450.712 8
  23714773.299    23714776.015     -284239.904 9    217310.764 8
  21423993.433    21423995.696     -152484.673 9    273111.682 7
 86  6 10 23 37 59.0800000  0  4G 6G 8G 9G11
  21392397.827    21392399.587     -128988.407 9    222405.772 8
  21596507.865    21596509.653      250014.869 9    515814.635 8
  23711421.491    23711423.978     -301854.206 9    203585.345 9
  21422093.345    21422095.102     -162470.614 9    265330.444 7
 86  6 10 23 38  5.0800000  0  4G 6G 8G 9G11
  21390810.316    21390812.870     -137327.842 9    215907.511 9
  21598799.374    21598801.040      262054.407 9    525196.094 8
  23708070.402    23708072.457     -319468.736 9    189859.748 7
  21420197.491    21420198.622     -172434.224 9    257566.600 7
 86  6 10 23 38 11.0800000  0  4G 6G 8G 9G11
  21389225.442    21389228.535     -145657.678 9    209416.726 8
  21601093.502    21601095.933      274116.404 9    534595.055 8
  23704717.454    23704719.176     -337083.453 8    176134.010 8
  21418304.643    21418306.617     -182375.511 9    249820.136 7
 86  6 10 23 38 17.0800000  0  4G 6G 8G 9G11
  21387642.539    21387643.839     -153977.897 9    202933.442 9
  21603393.146    21603396.214      286200.851 9    544011.509 8
  23701366.928    23701367.896     -354698.474 9    162408.023 9
  21416418.087    21416419.405     -192294.493 9    242091.054 8
 86  6 10 23 38 23.0800000  0  4G 6G 8G 9G11
  20923132.531    20923134.769     -162281.422 9    196444.219 9
  21142770.024    21142772.835      298320.076 9    553436.083 8
  23235085.658    23235086.887     -372308.981 9    148666.611 8
  20951606.769    20951608.642     -202184.492 9    234365.616 6
 86  6 10 23 38 29.0800000  0  4G 6G 8G 9G11
  20921553.541    20921553.810     -170582.431 9    189975.899 9
  21145078.024    21145080.887      310449.345 9    562887.465 8
  23231732.434    23231735.224     -389924.337 9    134940.354 7
  20949727.944    20949728.034     -212058.870 9    226671.304 7
 86  6 10 23 38 35.0800000  0  4G 6G 8G 9G11
  20919975.580    20919975.540     -178873.751 9    183515.125 8
  21147390.185    21147392.326      322600.972 9    572356.267 9
  23228382.051    23228382.655     -407539.865 9    121213.987 8
  20947853.208    20947854.628     -221910.902 9    218994.393 7
 86  6 10 23 38 41.0800000  0  4G 6G 8G 9G11
  20918399.337    20918399.800     -187155.415 9    177061.882 7
  21149706.744    21149709.216      334774.917 9    581842.463 8
  23225029.178    23225031.138     -425155.571 9    107487.461 8
  20945982.029    20945983.786     -231740.649 8    211334.847 7
 86  6 10 23 38 47.0800000  0  4G 6G 8G 9G11
  20916826.124    20916825.594     -195427.449 9    170616.137 8
  21152028.439    21152030.167      346971.185 9    591346.026 8
  23221675.861    23221679.779     -442771.413 9     93760.836 8
  20944115.538    20944116.611     -241548.077 9    203692.706 6
 86  6 10 23 38 53.0800000  0  4G 6G 8G 9G11
  20915253.432    20915253.759     -203689.771 9    164177.957 8
  21154352.767    21154354.963      359189.736 9    600866.982 9
  23218323.818    23218326.878     -460387.498 9     80034.020 8
  20942253.109    20942254.956     -251333.210 9    196067.928 7
 86  6 10 23 38 59.0800000  0  4G 6G 8G 9G11
  20913682.569    20913683.611     -211942.428 9    157747.315 9
  21156682.142    21156684.206      371430.501 9    610405.238 8
  23214971.910    23214975.170     -478003.710 9     66307.121 8
  20940394.893    20940397.168     -261096.021 9    188460.549 8
 86  6 10 23 39  5.0800000  0  4G 6G 8G 9G11
  20912113.992    20912116.004     -220185.403 9    151324.237 8
  21159015.828    21159018.178      383693.536 9    619960.839 8
  23211619.315    23211621.780     -495620.036 9     52580.116 7
  20938541.935    20938543.953     -270836.428 9    180870.625 8
 86  6 10 23 39 11.0800000  0  4G 6G 8G 9G11
  20910547.625    20910549.800     -228418.588 9    144908.768 9
  21161354.271    21161356.139      395978.817 9    629533.786 8
  23208266.486    23208269.121     -513236.451 9     38853.035 8
  20936692.789    20936694.625     -280554.455 9    173298.143 8
 86  6 10 23 39 17.0800000  0  4G 6G 8G 9G11
  20908982.989    20908983.688     -236642.014 9    138500.904 8
  21163696.043    21163697.817      408286.319 9    639124.045 8
  23204914.747    23204917.754     -530852.955 9     25125.895 8
  20934848.076    20934849.051     -290250.137 9    165743.072 7
 86  6 10 23 39 23.0800000  0  4G 6G 8G 9G11
  20907420.898    20907421.147     -244855.654 9    132100.669 8
  21166042.671    21166044.130      420616.012 9    648731.586 9
  23201562.209    23201564.711     -548469.511 9     11398.705 9
  20933006.429    20933008.374     -299923.382 9    158205.493 8
 86  6 10 23 39 29.0800000  0  4G 6G 8G 9G11
  20905858.669    20905859.808     -253059.513 9    125708.048 9
  21168393.229    21168395.489      432967.834 9    658356.394 8
  23198209.741    23198212.830     -566086.154 9     -2328.528 8
  20931170.960    20931172.522     -309574.227 9    150685.340 8
 86  6 10 23 39 35.0800000  0  4G 6G 8G 9G11
  20904300.103    20904300.529     -261253.592 9    119323.064 9
  21170747.622    21170750.168      445341.777 9    667998.425 9
  23194857.057    23194859.368     -583702.920 9    -16055.879 9
  20929338.381    20929340.385     -319202.643 9    143182.676 7
 86  6 10 23 39 41.0800000  0  4G 6G 8G 9G11
  20902742.236    20902743.014     -269437.821 9    112945.740 8
  21173106.616    21173108.812      457737.838 9    677657.688 9
  23191505.991    23191506.784     -601319.695 9    -29783.229 7
  20927510.097    20927512.928     -328808.651 9    135697.492 7
 86  6 10 23 39 47.0800000  0  4G 6G 8G 9G11
  20901185.544    20901188.074     -277612.234 9    106576.063 8
  21175469.715    21175471.546      470155.985 9    687334.158 7
  23188153.786    23188155.042     -618936.482 9    -43510.585 7
  20925685.846    20925687.378     -338392.250 9    128229.755 6
 86  6 10 23 39 53.0800000  0  4G 6G 8G 9G11
  20899632.639    20899633.157     -285776.771 9    100214.092 9
  21177836.720    21177838.018      482596.186 9    697027.820 7
  23184801.145    23184801.969     -636553.284 9    -57237.953 7
  20923866.175    20923869.530     -347953.436 9    120779.478 7
 86  6 10 23 39 59.0800000  0  4G 6G 8G 9G11
  20898081.102    20898080.484     -293931.421 9     93859.819 8
  21180208.827    21180209.722      495058.451 9    706738.673 7
  23181448.064    23181451.003     -654170.111 9    -70965.338 8
  20922052.032    20922053.688     -357492.117 9    113346.746 8
 86  6 10 23 40  5.0800000  0  4G 6G 8G 9G11
  20896530.867    20896532.057     -302076.183 9     87513.255 8
  21182584.449    21182586.006      507542.721 9    716466.682 8
  23178096.970    23178098.619     -671786.927 9    -84692.724 8
  20920240.945    20920243.935     -367008.363 9    105931.492 7
 86  6 10 23 40 11.0800000  0  4G 6G 8G 9G11
  20894983.073    20894982.979     -310211.063 9     81174.388 8
  21184964.036    21184966.176      520049.005 9    726211.831 8
  23174744.956    23174746.059     -689403.771 9    -98420.122 8
  20918434.354    20918437.713     -376502.166 8     98533.726 7
 86  6 10 23 40 17.0800000  0  4G 6G 8G 9G11
  20893436.539    20893436.991     -318335.968 9     74843.285 8
  21187348.027    21187349.528      532577.276 9    735974.125 9
  23171392.642    23171393.456     -707020.642 9   -112147.540 8
  20916631.851    20916634.084     -385973.494 9     91153.465 7
 86  6 10 23 40 23.0800000  0  4G 6G 8G 9G11
  20891893.192    20891894.357     -326450.983 9     68519.906 8
  21189736.253    21189737.751      545127.506 9    745753.526 8
  23168039.681    23168042.223     -724637.498 9   -125874.963 8
  20914833.733    20914836.262     -395422.355 9     83790.732 7
 86  6 10 23 40 29.0800000  0  4G 6G 8G 9G11
  20890351.179    20890352.077     -334556.032 9     62204.281 9
  21192128.136    21192129.982      557699.641 9    755549.997 8
  23164687.495    23164689.837     -742254.306 9   -139602.331 8
  20913040.246    20913042.106     -404848.723 9     76445.507 8
 86  6 10 23 40 35.0800000  0  4G 6G 8G 9G11
  20888810.499    20888810.709     -342651.104 9     55896.434 8
  21194525.323    21194526.837      570293.655 9    765363.520 8
  23161334.957    23161336.840     -759871.024 9   -153329.636 8
  20911251.085    20911253.819     -414252.554 9     69117.845 7
 86  6 10 23 40 41.0800000  0  4G 6G 8G 9G11
  20887271.577    20887272.448     -350736.158 9     49596.394 8
  21196925.458    21196927.383      582909.559 9    775194.075 8
  23157983.683    23157983.920     -777487.682 9   -167056.890 8
  20909466.384    20909467.271     -423633.860 8     61807.742 7
 86  6 10 23 40 47.0800000  0  4G 6G 8G 9G11
  20885734.309    20885735.434     -358811.205 9     43304.155 8
  21199331.056    21199332.811      595547.361 9    785041.721 7
  23154630.634    23154631.542     -795104.288 9   -180784.102 8
  20907684.945    20907685.861     -432992.628 9     54515.193 7
 86  6 10 23 40 53.0800000  0  4G 6G 8G 9G11
  20884200.599    20884200.395     -366876.215 9     37019.730 8
  21201740.043    21201741.612      608206.982 9    794906.356 8
  23151278.045    23151279.777     -812720.763 9   -194511.213 9
  20905907.374    20905909.248     -442328.839 9     47240.230 7
 86  6 10 23 40 59.0800000  0  4G 6G 8G 9G11
  20882666.968    20882667.566     -374931.194 9     30743.133 8
  21204153.520    21204155.292      620888.358 9    804787.955 8
  23147926.300    23147926.524     -830337.127 9   -208238.250 8
  20904135.953    20904137.013     -451642.521 9     39982.819 8
 86  6 10 23 41  5.0800000  0  4G 6G 8G 9G11
  20881135.430    20881137.341     -382976.066 9     24474.397 8
  21206571.303    21206572.419      633591.532 9    814686.536 9
  23144572.969    23144575.262     -847953.374 9   -221965.173 8
  20902367.454    20902368.795     -460933.577 9     32743.035 8
 86  6 10 23 41 11.0800000  0  4G 6G 8G 9G11
  20879607.548    20879608.272     -391010.842 9     18213.522 8
  21208992.453    21208993.649      646316.533 9    824602.120 8
  23141220.431    23141222.933     -865569.575 8   -235692.076 8
  20900604.219    20900606.123     -470202.068 9     25520.835 7
 86  6 10 23 41 17.0800000  0  4G 6G 8G 9G11
  20878080.354    20878080.972     -399035.594 9     11960.489 8
  21211417.890    21211419.265      659063.270 9    834534.631 8
  23137868.818    23137870.709     -883185.604 8   -249418.835 9
  20898845.248    20898846.632     -479448.032 9     18316.173 6
 86  6 10 23 41 23.0800000  0  4G 6G 8G 9G11
  20876554.954    20876555.910     -407050.195 9      5715.342 8
  21213847.873    21213848.310      671831.743 9    844484.099 8
  23134516.975    23134517.686     -900801.451 9   -263145.465 9
  20897089.938    20897090.940     -488671.422 9     11129.123 8
 86  6 10 23 41 29.0800000  0  4G 6G 8G 9G11
  20875031.832    20875032.948     -415054.616 9      -521.872 7
  21216281.651    21216282.241      684621.883 9    854450.435 9
  23131164.475    23131166.300     -918417.107 9   -276871.930 8
  20895338.095    20895340.683     -497872.195 9      3959.702 8
 86  6 10 23 41 35.0800000  0  4G 6G 8G 9G11
  20873511.337    20873510.805     -423048.995 9     -6751.251 9
  21218719.281    21218721.521      697433.636 9    864433.623 8
  23127812.539    23127814.467     -936032.629 9   -290598.304 8
  20893591.628    20893592.842     -507050.411 9     -3192.158 6
 86  6 10 23 41 41.0800000  0  4G 6G 8G 9G11
  20871991.406    20871992.680     -431033.192 9    -12972.703 9
  21221161.631    21221163.791      710267.054 9    874433.684 8
  23124460.455    23124461.422     -953647.963 8   -304324.540 9
  20891849.599    20891851.546     -516206.014 9    -10326.382 7
 86  6 10 23 41 47.0800000  0  4G 6G 8G 9G11
  20870474.354    20870474.234     -439007.187 9    -19186.211 8
  21223607.381    21223609.898      723122.119 9    884450.622 9
  23121108.053    23121110.323     -971263.102 8   -318050.603 7
  20890112.350    20890113.779     -525338.959 9    -17442.970 7
 86  6 10 23 41 53.0800000  0  4G 6G 8G 9G11
  20868958.693    20868958.942     -446970.956 9    -25391.748 8
  21226058.268    21226059.798      735998.767 9    894484.358 8
  23117755.659    23117757.643     -988878.070 9   -331776.549 8
  20888378.651    20888381.224     -534449.327 9    -24541.955 7
 86  6 10 23 41 59.0800000  0  4G 6G 8G 9G11
  20867445.009    20867445.516     -454924.525 9    -31589.332 7
  21228511.713    21228514.667      748897.052 9    904534.968 8
  23114403.796    23114405.724    -1006492.777 8   -345502.296 8
  20886648.410    20886651.175     -543537.086 9    -31623.323 6
 86  6 10 23 42  5.0800000  0  4G 6G 8G 9G11
  20865932.926    20865934.311     -462867.867 9    -37778.952 9
  21230971.222    21230973.619      761816.867 9    914602.346 8
  23111051.809    23111053.357    -1024107.265 8   -359227.867 9
  20884923.637    20884925.086     -552602.190 9    -38687.035 8
 86  6 10 23 42 11.0800000  0  4G 6G 8G 9G11
  20864423.529    20864424.943     -470800.996 9    -43960.612 8
  21233434.014    21233436.080      774758.136 9    924686.442 8
  23107700.539    23107702.753    -1041721.559 9   -372953.283 9
  20883202.213    20883204.172     -561644.698 8    -45733.140 6
 86  6 10 23 42 17.0800000  0  4G 6G 8G 9G11
  20862914.945    20862917.750     -478723.850 9    -50134.258 8
  21235900.538    21235901.840      787720.958 9    934787.348 8
  23104347.806    23104350.302    -1059335.514 8   -386678.450 9
  20881486.028    20881488.628     -570664.561 9    -52761.599 7
 86  6 10 23 42 23.0800000  0  4G 6G 8G 9G11
  20861409.730    20861411.953     -486636.429 9    -56299.912 9
  21238370.648    21238373.303      800705.248 9    944904.977 8
  23100995.408    23100997.867    -1076949.300 9   -400403.464 8
  20879774.363    20879776.667     -579661.786 9    -59772.422 7
 86  6 10 23 42 29.0800000  0  4G 6G 8G 9G11
  20859906.575    20859908.515     -494538.671 9    -62457.495 8
  21240846.424    21240849.017      813711.005 9    955039.325 9
  23097644.170    23097647.761    -1094562.774 9   -414128.257 8
  20878065.734    20878068.866     -588636.348 9    -66765.575 7
 86  6 10 23 42 35.0800000  0  4G 6G 8G 9G11
  20858404.860    20858407.023     -502430.606 9    -68607.045 9
  21243325.561    21243326.797      826738.213 9    965190.389 9
  23094291.874    23094295.764    -1112175.910 8   -427852.776 9
  20876362.680    20876364.843     -597588.184 8    -73741.023 7
 86  6 10 23 42 41.0800000  0  4G 6G 8G 9G11
  20856905.053    20856905.886     -510312.200 9    -74748.554 8
  21245808.292    21245810.488      839786.821 9    975358.133 7
  23090939.983    23090944.171    -1129788.671 9   -441577.000 8
  20874662.980    20874665.366     -606517.324 9    -80698.804 7
 86  6 10 23 42 47.0800000  0  4G 6G 8G 9G11
  20855407.384    20855407.770     -518183.432 9    -80881.982 8
  21248295.357    21248297.102      852856.823 9    985542.550 8
  23087589.207    23087592.386    -1147401.145 8   -455301.001 9
  20872968.744    20872972.650     -615423.739 9    -87638.868 6
 86  6 10 23 42 53.0800000  0  4G 6G 8G 9G11
  20853910.540    20853911.967     -526044.294 9    -87007.333 8
  21250786.867    21250787.885      865948.182 9    995743.614 8
  23084237.492    23084240.459    -1165013.293 8   -469024.738 8
  20871278.166    20871281.590     -624307.451 8    -94561.232 7
 86  6 10 23 42 59.0800000  0  4G 6G 8G 9G11
  20852417.329    20852418.912     -533894.814 9    -93124.609 9
  21253282.113    21253282.526      879060.921 9   1005961.330 8
  23080885.482    23080888.987    -1182625.099 8   -482748.228 8
  20869592.117    20869595.093     -633168.450 9   -101465.904 7
 86  6 10 23 43  5.0800000  0  4G 6G 8G 9G11
  20850925.453    20850925.977     -541734.895 9    -99233.762 8
  21255780.863    21255782.568      892194.946 9   1016195.633 7
  23077534.097    23077538.079    -1200236.559 9   -496471.425 8
  20867910.443    20867913.365     -642006.738 8   -108352.895 7
 86  6 10 23 43 11.0800000  0  4G 6G 8G 9G11
  20849435.754    20849436.853     -549564.572 9   -105334.808 8
  21258284.644    21258285.897      905350.254 9   1026446.520 8
  23074182.471    23074186.104    -1217847.562 8   -510194.279 8
  20866233.094    20866235.885     -650822.312 9   -115222.157 7
 86  6 10 23 43 17.0800000  0  4G 6G 8G 9G11
  20847947.089    20847947.902     -557383.750 9   -111427.672 8
  21260791.764    21260793.310      918526.905 9   1036714.045 9
  23070831.761    23070835.160    -1235458.251 8   -523916.880 8
  20864559.493    20864562.641     -659615.107 9   -122073.674 7
 86  6 10 23 43 23.0800000  0  4G 6G 8G 9G11
  20846461.766    20846462.613     -565192.491 9   -117512.402 9
  21263302.948    21263305.275      931724.784 9   1046998.095 8
  23067481.758    23067483.887    -1253068.551 8   -537639.181 8
  20862890.440    20862893.113     -668385.164 9   -128907.490 7
 86  6 10 23 43 29.0800000  0  4G 6G 8G 9G11
  20844977.806    20844977.949     -572990.799 9   -123589.008 9
  21265819.350    21265820.600      944943.841 9   1057298.662 8
  23064129.998    23064133.009    -1270678.413 9   -551361.149 9
  20861226.251    20861228.512     -677132.458 9   -135723.551 7
 86  6 10 23 43 35.0800000  0  4G 6G 8G 9G11
  20843496.063    20843496.272     -580778.563 9   -129657.400 8
  21268338.505    21268340.394      958184.109 9   1067615.751 8
  23060779.873    23060782.398    -1288287.797 9   -565082.746 8
  20859566.186    20859567.792     -685856.960 9   -142521.857 8
 86  6 10 23 43 41.0800000  0  4G 6G 8G 9G11
  20842014.667    20842015.952     -588555.781 9   -135717.563 8
  21270862.140    21270862.951      971445.566 9   1077949.356 7
  23057428.611    23057430.297    -1305896.858 8   -578804.084 8
  20857909.069    20857912.302     -694558.649 8   -149302.391 7
 86  6 10 23 43 47.0800000  0  4G 6G 8G 9G11
  20840537.428    20840538.533     -596322.462 9   -141769.532 8
  21273389.494    21273390.573      984728.232 9   1088299.483 8
  23054077.631    23054080.180    -1323505.373 8   -592524.991 8
  20856257.758    20856261.122     -703237.544 9   -156065.172 7
 86  6 10 23 43 53.0800000  0  4G 6G 8G 9G11
  20839061.779    20839063.015     -604078.623 9   -147813.290 9
  21275920.726    21275923.207      998032.073 9   1098666.111 9
  23050725.982    23050730.380    -1341113.442 8   -606245.557 9
  20854610.488    20854613.061     -711893.643 8   -162810.193 6
 86  6 10 23 43 59.0800000  0  4G 6G 8G 9G11
  20837587.257    20837588.350     -611824.200 9   -153848.807 8
  21278456.715    21278458.398     1011356.965 9   1109049.147 7
  23047376.367    23047378.188    -1358721.036 8   -619965.741 8
  20852967.161    20852970.351     -720526.990 9   -169537.468 7
 86  6 10 23 44  5.0800000  0  4G 6G 8G 9G11
  20836115.087    20836117.462     -619559.209 9   -159876.081 8
  21280996.307    21280998.425     1024702.926 9   1119448.595 9
  23044026.162    23044029.089    -1376328.145 9   -633685.556 8
  20851329.646    20851332.036     -729137.508 9   -176246.943 8
 86  6 10 23 44 11.0800000  0  4G 6G 8G 9G11
  20834644.731    20834647.759     -627283.641 9   -165895.127 8
  21283540.424    21283541.169     1038069.919 9   1129864.434 9
  23040675.499    23040677.994    -1393934.764 9   -647404.988 8
  20849696.365    20849698.905     -737725.183 8   -182938.651 6
 86  6 10 23 44 17.0800000  0  4G 6G 8G 9G11
  20833177.690    20833178.554     -634997.430 9   -171905.877 7
  21286088.090    21286089.058     1051457.973 9   1140296.689 7
  23037326.003    23037327.084    -1411540.938 9   -661124.078 8
  20848065.665    20848068.885     -746290.006 9   -189612.536 7
 86  6 10 23 44 23.0800000  0  4G 6G 8G 9G11
  20831711.854    20831712.915     -642700.587 9   -177908.321 8
  21288640.128    21288640.691     1064867.093 9   1150745.342 8
  23033976.168    23033976.805    -1429146.539 9   -674842.710 9
  20846441.029    20846442.846     -754831.956 8   -196268.598 7
 86  6 10 23 44 29.0800000  0  4G 6G 8G 9G11
  20830248.449    20830250.115     -650393.047 9   -183902.451 9
  21291195.591    21291196.573     1078297.194 9   1161210.351 9
  23030625.801    23030626.776    -1446751.496 8   -688560.856 7
  20844819.737    20844822.169     -763351.033 9   -202906.835 7
 86  6 10 23 44 35.0800000  0  4G 6G 8G 9G11
  20828786.479    20828787.813     -658074.852 9   -189888.271 9
  21293755.464    21293755.691     1091748.271 9   1171691.719 8
  23027276.265    23027276.346    -1464355.873 9   -702278.542 8
  20843202.516    20843203.877     -771847.286 9   -209527.302 7
 86  6 10 23 44 41.0800000  0  4G 6G 8G 9G11
  20827327.472    20827328.024     -665745.996 9   -195865.793 8
  21296318.991    21296319.472     1105220.246 9   1182189.367 7
  23023926.483    23023927.596    -1481959.863 9   -715995.938 8
  20841590.243    20841592.773     -780320.770 9   -216129.996 7
 86  6 10 23 44 47.0800000  0  4G 6G 8G 9G11
  20825868.898    20825871.148     -673406.457 9   -201834.986 8
  21298886.571    21298887.816     1118713.111 9   1192703.289 8
  23020576.435    23020577.888    -1499563.190 9   -729712.800 8
  20839982.576    20839984.941     -788771.347 9   -222714.854 8
 86  6 10 23 44 53.0800000  0  4G 6G 8G 9G11
  20824413.759    20824414.460     -681056.176 9   -207795.809 7
  21301458.032    21301458.593     1132226.879 9   1203233.484 9
  23017227.058    23017227.171    -1517165.906 9   -743429.211 7
  20838378.431    20838379.831     -797199.062 9   -229281.901 8
 86  6 10 23 44 59.0800000  0  4G 6G 8G 9G11
  20822959.776    20822960.686     -688695.221 9   -213748.302 9
  21304033.337    21304033.703     1145761.522 9   1213779.970 8
  23013875.269    23013877.867    -1534768.106 9   -757145.195 9
  20836778.377    20836781.067     -805603.969 9   -235831.180 7
 86  6 10 23 45  5.0800000  0  4G 6G 8G 9G11
  20821507.499    20821509.717     -696323.496 9   -219692.404 9
  21306613.287    21306614.611     1159317.022 9   1224342.697 9
  23010526.174    23010528.172    -1552369.689 8   -770860.717 8
  20835183.159    20835185.079     -813985.978 8   -242362.611 7
 86  6 10 23 45 11.0800000  0  4G 6G 8G 9G11
  20820058.470    20820060.791     -703941.003 9   -225628.137 8
  21309196.767    21309198.029     1172893.303 9   1234921.612 8
  23007177.541    23007178.209    -1569970.632 9   -784575.732 8
  20833592.953    20833594.497     -822345.102 9   -248876.220 7
 86  6 10 23 45 17.0800000  0  4G 6G 8G 9G11
  20818610.260    20818612.346     -711547.748 9   -231555.460 8
  21311784.349    21311785.781     1186490.350 9   1245516.697 7
  23003828.450    23003829.807    -1587570.941 8   -798290.250 8
  20832006.722    20832008.712     -830681.260 8   -255371.904 7
 86  6 10 23 45 23.0800000  0  4G 6G 8G 9G11
  20817165.578    20817165.813     -719143.675 9   -237474.361 8
  21314375.695    21314376.244     1200108.202 9   1256128.011 8
  23000478.533    23000481.124    -1605170.586 9   -812004.243 7
  20830425.243    20830427.004     -838994.504 9   -261849.758 7
 86  6 10 23 45 29.0800000  0  4G 6G 8G 9G11
  20815721.949    20815723.034     -726728.774 9   -243384.833 7
  21316970.652    21316972.403     1213746.829 9   1266755.513 8
  22997129.793    22997132.971    -1622769.572 8   -825717.721 8
  20828847.224    20828848.771     -847284.827 9   -268309.747 7
 86  6 10 23 45 35.0800000  0  4G 6G 8G 9G11
  20814281.417    20814281.709     -734303.044 9   -249286.849 8
  21319569.296    21319571.444     1227406.163 9   1277399.144 8
  22993781.026    22993783.133    -1640367.868 8   -839430.672 8
  20827274.187    20827275.520     -855552.222 9   -274751.868 7
 86  6 10 23 45 41.0800000  0  4G 6G 8G 9G11
  20812841.420    20812841.586     -741866.492 9   -255180.453 8
  21322173.146    21322174.218     1241086.128 9   1288058.850 8
  22990432.332    22990433.905    -1657965.546 8   -853143.146 8
  20825705.813    20825706.761     -863796.667 8   -281176.113 8
 86  6 10 23 45 47.0800000  0  4G 6G 8G 9G11
  20811404.348    20811404.651     -749419.053 9   -261065.566 8
  21324779.594    21324781.322     1254786.813 9   1298734.697 8
  22987083.387    22987085.184    -1675562.410 8   -866854.990 8
  20824141.191    20824142.693     -872018.140 8   -287582.452 8
 86  6 10 23 45 53.0800000  0  4G 6G 8G 9G11
  20809969.477    20809970.332     -756960.665 9   -266942.142 9
  21327391.196    21327393.148     1268508.166 9   1309426.662 8
  22983734.362    22983737.136    -1693158.531 9   -880566.251 8
  20822581.061    20822582.019     -880216.675 9   -293970.918 8
 86  6 10 23 45 59.0800000  0  4G 6G 8G 9G11
  20808536.045    20808536.677     -764491.403 9   -272810.247 8
  21330006.331    21330007.640     1282250.149 9   1320134.707 8
  22980387.193    22980387.519    -1710753.947 8   -894276.963 7
  20821024.649    20821026.700     -888392.293 9   -300341.526 7
 86  6 10 23 46  5.0800000  0  4G 6G 8G 9G11
  20807105.342    20807105.632     -772011.169 9   -278669.812 7
  21332624.389    21332627.984     1296012.702 9   1330858.772 7
  22977038.428    22977040.370    -1728348.643 9   -907987.109 8
  20819474.277    20819476.456     -896544.949 9   -306694.251 7
 86  6 10 23 46 11.0800000  0  4G 6G 8G 9G11
  20805676.687    20805677.014     -779520.029 9   -284520.876 9
  21335247.824    21335248.886     1309795.866 9   1341598.891 8
  22973690.907    22973692.925    -1745942.523 9   -921696.615 7
  20817926.396    20817927.601     -904674.636 8   -313029.064 7
 86  6 10 23 46 17.0800000  0  4G 6G 8G 9G11
  20804250.023    20804251.291     -787017.852 9   -290363.325 8
  21337873.926    21337876.554     1323599.662 9   1352355.079 8
  22970342.917    22970345.678    -1763535.619 8   -935405.507 8
  20816383.550    20816386.499     -912781.289 9   -319345.931 7
 86  6 10 23 46 23.0800000  0  4G 6G 8G 9G11
  20802825.157    20802826.371     -794504.694 9   -296197.230 8
  21340505.402    21340506.677     1337423.942 9   1363127.250 8
  22966996.099    22966998.015    -1781127.941 9   -949113.802 8
  20814844.827    20814846.674     -920864.958 9   -325644.879 7
 86  6 10 23 46 29.0800000  0  4G 6G 8G 9G11
  20801402.749    20801402.972     -801980.556 9   -302022.580 8
  21343140.497    21343141.621     1351268.708 9   1373915.375 9
  22963648.337    22963648.004    -1798719.448 8   -962821.452 8
  20813310.943    20813314.333     -928925.637 9   -331925.934 7
 86  6 10 23 46 35.0800000  0  4G 6G 8G 9G11
  20799981.963    20799983.340     -809445.445 9   -307839.369 9
  21345778.205    21345780.010     1365133.940 9   1384719.450 8
  22960300.075    22960301.142    -1816310.254 9   -976528.582 8
  20811781.059    20811785.323     -936963.373 8   -338189.097 7
 86  6 10 23 46 41.0800000  0  4G 6G 8G 9G11
  20798563.293    20798565.036     -816899.307 9   -313647.574 8
  21348420.624    21348422.550     1379019.615 9   1395539.465 8
  22956953.029    22956954.272    -1833900.168 8   -990235.008 8
  20810255.874    20810260.007     -944978.046 9   -344434.301 8
 86  6 10 23 46 47.0800000  0  4G 6G 8G 9G11
  20797146.677    20797148.786     -824342.163 9   -319447.207 8
  21351067.728    21351068.286     1392925.725 9   1406375.385 8
  22953605.896    22953607.197    -1851489.303 9  -1003940.807 7
  20808734.976    20808739.942     -952969.747 9   -350661.596 7
 86  6 10 23 46 53.0800000  0  4G 6G 8G 9G11
  20795732.760    20795734.431     -831773.911 9   -325238.176 9
  21353716.690    21353718.185     1406852.280 9   1417227.234 9
  22950258.764    22950261.144    -1869077.564 9  -1017645.945 7
  20807220.121    20807221.622     -960938.434 9   -356870.954 7
 86  6 10 23 46 59.0800000  0  4G 6G 8G 9G11
  20794321.184    20794321.673     -839194.531 9   -331020.483 8
  21356371.151    21356374.228     1420799.188 9   1428094.956 8
  22946911.945    22946914.002    -1886664.917 9  -1031350.378 7
  20805707.841    20805709.039     -968884.087 9   -363062.385 8
 86  6 10 23 47  5.0800000  0  4G 6G 8G 9G11
  20792910.186    20792912.029     -846604.118 9   -336794.185 8
  21359029.394    21359032.010     1434766.428 9   1438978.519 8
  22943566.350    22943567.877    -1904251.435 9  -1045054.136 9
  20804199.622    20804202.044     -976806.786 8   -369235.898 7
 86  6 10 23 47 11.0800000  0  4G 6G 8G 9G11
  20791502.330    20791504.296     -854002.624 9   -342559.250 8
  21361690.824    21361691.826     1448753.941 9   1449877.880 8
  22940219.998    22940220.633    -1921837.134 8  -1058757.268 8
  20802697.102    20802698.647     -984706.465 8   -375391.496 8
 86  6 10 23 47 17.0800000  0  4G 6G 8G 9G11
  20790097.852    20790098.968     -861390.037 9   -348315.682 8
  21364356.369    21364358.159     1462761.770 9   1460793.068 8
  22936872.612    22936874.991    -1939421.858 8  -1072459.660 9
  20801197.242    20801201.176     -992583.118 9   -381529.148 7
 86  6 10 23 47 23.0800000  0  4G 6G 8G 9G11
  20788692.981    20788694.595     -868766.260 9   -354063.392 8
  21367025.742    21367027.737     1476789.887 9   1471724.072 8
  22933526.412    22933528.262    -1957005.657 9  -1086161.308 8
  20799703.591    20799705.421    -1000436.690 9   -387648.823 8
 86  6 10 23 47 29.0800000  0  4G 6G 8G 9G11
  20787291.641    20787292.901     -876131.353 9   -359802.414 8
  21369700.324    21369701.435     1490838.236 9   1482670.831 9
  22930179.680    22930182.933    -1974588.657 8  -1099862.347 8
  20798213.289    20798215.653    -1008267.192 8   -393750.499 8
 86  6 10 23 47 35.0800000  0  4G 6G 8G 9G11
  20785892.695    20785894.154     -883485.243 9   -365532.725 8
  21372376.703    21372378.948     1504906.832 9   1493633.361 9
  22926834.509    22926837.235    -1992170.662 9  -1113562.600 8
  20796727.108    20796730.642    -1016074.643 8   -399834.230 8
 86  6 10 23 47 41.0800000  0  4G 6G 8G 9G11
  20784495.027    20784495.522     -890827.940 9   -371254.300 8
  21375057.752    21375059.156     1518995.633 9   1504611.660 8
  22923489.241    22923491.965    -2009751.722 9  -1127262.118 8
  20795245.508    20795248.725    -1023859.084 8   -405900.015 8
 86  6 10 23 47 47.0800000  0  4G 6G 8G 9G11
  20783100.041    20783101.435     -898159.343 9   -376967.084 8
  21377743.025    21377743.872     1533104.667 9   1515605.707 8
  22920143.682    22920146.409    -2027331.686 9  -1140960.779 8
  20793768.428    20793771.831    -1031620.374 8   -411947.782 8
 86  6 10 23 47 53.0800000  0  4G 6G 8G 9G11
  20781706.566    20781708.967     -905479.504 9   -382671.110 8
  21380431.712    21380432.461     1547233.901 9   1526615.501 8
  22916798.660    22916801.399    -2044910.621 8  -1154658.655 8
  20792296.841    20792299.159    -1039358.561 9   -417977.528 8
 86  6 10 23 47 59.0800000  0  4G 6G 8G 9G11
  20780316.176    20780317.587     -912788.412 9   -388366.352 8
  21383124.381    21383125.401     1561383.259 9   1537640.974 8
  22913454.969    22913455.880    -2062488.659 9  -1168355.819 8
  20790828.344    20790830.922    -1047073.644 9   -423989.284 7
 86  6 10 23 48  5.0800000  0  4G 6G 8G 9G11
  20778927.263    20778928.502     -920086.046 9   -394052.823 9
  21385819.562    21385821.901     1575552.736 9   1548682.121 9
  22910109.729    22910112.164    -2080065.636 9  -1182052.161 8
  20789363.488    20789367.165    -1054765.583 9   -429982.989 7
 86  6 10 23 48 11.0800000  0  4G 6G 8G 9G11
  20777541.158    20777541.735     -927372.380 9   -399730.491 9
  21388520.571    21388521.116     1589742.262 9   1559738.881 8
  22906765.103    22906767.265    -2097641.596 9  -1195747.705 7
  20787904.696    20787908.245    -1062434.407 8   -435958.695 7
 86  6 10 23 48 17.0800000  0  4G 6G 8G 9G11
  20776156.880    20776157.007     -934647.399 9   -405399.331 7
  21391223.918    21391225.336     1603951.800 9   1570811.263 8
  22903420.791    22903421.377    -2115216.439 9  -1209442.381 8
  20786449.651    20786452.799    -1070080.155 7   -441916.419 7
 86  6 10 23 48 23.0800000  0  4G 6G 8G 9G11
  20774774.140    20774775.185     -941911.108 9   -411059.369 8
  21393931.662    21393933.314     1618181.415 9   1581899.251 8
  22900077.408    22900077.698    -2132790.294 9  -1223136.287 8
  20784999.671    20785002.248    -1077702.780 8   -447856.129 7
 86  6 10 23 48 29.0800000  0  4G 6G 8G 9G11
  20773393.744    20773394.943     -949163.475 9   -416710.561 8
  21396643.301    21396644.952     1632431.082 9   1593002.896 8
  22896732.831    22896733.187    -2150363.089 9  -1236829.379 7
  20783553.384    20783556.923    -1085302.338 9   -453777.848 7
 86  6 10 23 48 35.0800000  0  4G 6G 8G 9G11
  20772016.570    20772017.998     -956404.467 9   -422352.905 9
  21399359.154    21399360.312     1646700.740 9   1604122.101 9
  22893388.011    22893390.554    -2167934.739 9  -1250521.576 8
  20782111.451    20782114.114    -1092878.769 8   -459681.559 7
 86  6 10 23 48 41.0800000  0  4G 6G 8G 9G11
  20770641.313    20770640.778     -963634.106 9   -427986.385 8
  21402077.204    21402079.115     1660990.333 9   1615256.842 8
  22890044.898    22890047.922    -2185505.292 9  -1264212.912 8
  20780674.177    20780676.872    -1100432.037 9   -465567.226 8
 86  6 10 23 48 47.0800000  0  4G 6G 8G 9G11
  20769267.702    20769268.138     -970852.304 9   -433610.949 8
  21404800.688    21404803.434     1675299.889 9   1626407.146 8
  22886701.350    22886703.288    -2203074.746 9  -1277903.389 8
  20779240.423    20779243.800    -1107962.117 9   -471434.809 8
 86  6 10 23 48 53.0800000  0  4G 6G 8G 9G11
  20767896.109    20767897.139     -978059.069 9   -439226.615 8
  21407527.941    21407528.285     1689629.364 9   1637572.963 8
  22883358.049    22883360.109    -2220643.092 9  -1291592.990 8
  20777811.943    20777815.317    -1115469.066 8   -477284.390 7
 86  6 10 23 48 59.0800000  0  4G 6G 8G 9G11
  20766526.388    20766526.673     -985254.418 9   -444833.380 9
  21410258.323    21410260.050     1703978.725 9   1648754.280 8
  22880015.990    22880017.547    -2238210.371 9  -1305281.777 8
  20776387.948    20776391.311    -1122952.940 8   -483115.969 8
 86  6 10 23 49  5.0800000  0  4G 6G 8G 9G11
  20765158.938    20765160.609     -992438.290 9   -450431.198 8
  21412991.913    21412996.374     1718347.960 9   1659951.082 8
  22876672.557    22876675.578    -2255776.477 9  -1318969.647 8
  20774968.189    20774971.538    -1130413.631 8   -488929.501 8
 86  6 10 23 49 11.0800000  0  4G 6G 8G 9G11
  20763794.814    20763795.501     -999610.663 9   -456020.048 9
  21415730.988    21415732.117     1732737.036 8   1671163.349 8
  22873330.752    22873332.420    -2273341.349 9  -1332656.544 7
  20773553.528    20773556.817    -1137851.088 8   -494724.914 8
 86  6 10 23 49 17.0800000  0  4G 6G 8G 9G11
  20762431.801    20762433.254    -1006771.597 9   -461599.994 8
  21418472.459    21418476.024     1747145.914 9   1682391.053 8
  22869987.830    22869990.436    -2290905.091 9  -1346342.572 8
  20772143.038    20772145.689    -1145265.369 8   -500502.261 8
 86  6 10 23 49 23.0800000  0  4G 6G 8G 9G11
  20761070.796    20761072.152    -1013921.048 9   -467170.995 9
  21421218.416    21421221.177     1761574.625 9   1693634.192 7
  22866646.155    22866647.332    -2308467.626 9  -1360027.663 8
  20770737.049    20770738.249    -1152656.446 8   -506261.557 8
 86  6 10 23 49 29.0800000  0  4G 6G 8G 9G11
  20759712.055    20759714.090    -1021058.915 9   -472732.979 8
  21423967.253    21423969.541     1776023.073 9   1704892.718 9
  22863304.072    22863305.873    -2326028.916 9  -1373711.779 7
  20769333.547    20769337.168    -1160024.425 9   -512002.832 8
 86  6 10 23 49 35.0800000  0  4G 6G 8G 9G11
  20758356.774    20758358.849    -1028185.261 9   -478285.971 9
  21426721.438    21426722.869     1790491.269 9   1716166.633 8
  22859962.872    22859962.901    -2343588.967 9  -1387394.948 7
  20767936.055    20767940.006    -1167369.200 8   -517726.020 7
 86  6 10 23 49 41.0800000  0  4G 6G 8G 9G11
  20757002.300    20757004.020    -1035300.049 9   -483829.959 9
  21429477.789    21429479.699     1804979.224 9   1727455.948 8
  22856620.763    22856621.808    -2361147.777 9  -1401077.129 7
  20766542.485    20766546.750    -1174690.742 8   -523431.113 7
 86  6 10 23 49 47.0800000  0  4G 6G 8G 9G11
  20755650.608    20755652.328    -1042403.230 9   -489364.904 8
  21432238.239    21432240.465     1819486.923 9   1738760.645 8
  22853280.221    22853280.947    -2378705.307 9  -1414758.308 8
  20765154.949    20765157.671    -1181989.019 8   -529118.084 8
 86  6 10 23 49 53.0800000  0  4G 6G 8G 9G11
  20754301.080    20754303.441    -1049494.846 9   -494890.831 8
  21435003.042    21435005.891     1834014.241 9   1750080.630 8
  22849939.232    22849941.307    -2396261.577 9  -1428438.521 7
  20763769.393    20763773.040    -1189264.177 7   -534787.027 8
 86  6 10 23 49 59.0800000  0  4G 6G 8G 9G11
  20752954.982    20752956.539    -1056574.809 9   -500407.695 9
  21437771.969    21437772.544     1848561.189 9   1761415.916 7
  22846598.960    22846600.137    -2413816.610 9  -1442117.754 8
  20762390.104    20762392.345    -1196516.089 8   -540437.858 7
 86  6 10 23 50  5.0800000  0  4G 6G 8G 9G11
  20751609.744    20751611.321    -1063643.195 9   -505915.522 8
  21440543.449    21440545.042     1863127.728 9   1772766.455 8
  22843258.492    22843260.771    -2431370.329 9  -1455795.970 8
  20761014.474    20761016.948    -1203744.752 7   -546070.591 8
 86  6 10 23 50 11.0800000  0  4G 6G 8G 9G11
  20750266.798    20750267.522    -1070699.925 9   -511414.268 8
  21443318.829    21443321.441     1877713.853 9   1784132.263 8
  22839917.541    22839920.262    -2448922.883 9  -1469473.281 8
  20759642.307    20759646.971    -1210950.221 8   -551685.237 8
 86  6 10 23 50 17.0800000  0  4G 6G 8G 9G11
  20748926.055    20748927.671    -1077744.993 9   -516903.931 8
  21446097.476    21446100.796     1892319.566 9   1795513.341 8
  22836578.176    22836580.602    -2466474.013 9  -1483149.493 8
  20758277.525    20758280.473    -1218132.471 8   -557281.802 8
 86  6 10 23 50 23.0800000  0  4G 6G 8G 9G11
  20747588.148    20747589.699    -1084778.405 9   -522384.508 8
  21448881.043    21448883.255     1906944.840 9   1806909.653 8
  22833239.024    22833240.816    -2484023.822 9  -1496824.671 7
  20756913.631    20756918.484    -1225291.527 8   -562860.270 8
 86  6 10 23 50 29.0800000  0  4G 6G 8G 9G11
  20746250.862    20746252.969    -1091800.126 9   -527855.987 9
  21451666.321    21451669.962     1921589.592 9   1818321.148 8
  22829899.823    22829900.041    -2501572.293 9  -1510498.786 8
  20755556.379    20755559.023    -1232427.295 9   -568420.606 8
 86  6 10 23 50 35.0800000  0  4G 6G 8G 9G11
  20744917.074    20744918.848    -1098810.083 9   -533318.282 8
  21454458.324    21454460.957     1936253.851 9   1829747.833 8
  22826560.515    22826561.410    -2519119.327 9  -1524171.794 8
  20754203.214    20754205.659    -1239539.769 9   -573962.782 8
 86  6 10 23 50 41.0800000  0  4G 6G 8G 9G11
  20743585.953    20743586.949    -1105808.331 9   -538771.469 9
  21457252.566    21457254.205     1950937.508 9   1841189.641 8
  22823221.383    22823222.579    -2536665.055 9  -1537843.798 8
  20752852.775    20752857.263    -1246629.070 8   -579486.920 7
 86  6 10 23 50 47.0800000  0  4G 6G 8G 9G11
  20742257.104    20742257.877    -1112794.822 9   -544215.487 9
  21460049.355    21460052.969     1965640.667 9   1852646.651 8
  22819881.565    22819884.682    -2554209.345 9  -1551514.666 8
  20751509.455    20751512.757    -1253695.108 8   -584992.912 8
 86  6 10 23 50 53.0800000  0  4G 6G 8G 9G11
  20740930.178    20740929.280    -1119769.566 9   -549650.343 8
  21462851.302    21462854.259     1980363.226 9   1864118.773 8
  22816544.276    22816545.758    -2571752.240 9  -1565184.458 8
  20750168.974    20750172.415    -1260737.892 8   -590480.786 7
 86  6 10 23 50 59.0800000  0  4G 6G 8G 9G11
  20739605.144    20739605.153    -1126732.566 9   -555076.067 9
  21465657.480    21465659.144     1995105.096 9   1875605.931 8
  22813206.056    22813207.794    -2589293.800 9  -1578853.193 9
  20748833.661    20748836.625    -1267757.470 8   -595950.581 8
 86  6 10 23 51  5.0800000  0  4G 6G 8G 9G11
  20738281.601    20738282.291    -1133683.774 9   -560492.586 8
  21468466.260    21468469.181     2009866.379 9   1887108.231 7
  22809868.937    22809869.671    -2606833.925 9  -1592520.814 8
  20747502.709    20747505.382    -1274753.789 8   -601402.256 7
 86  6 10 23 51 11.0800000  0  4G 6G 8G 9G11
  20736961.492    20736962.886    -1140623.113 9   -565899.863 8
  21471279.584    21471280.700     2024646.992 9   1898625.587 8
  22806530.303    22806531.118    -2624372.615 9  -1606187.328 7
  20746173.704    20746178.010    -1281726.755 8   -606835.726 7
 86  6 10 23 51 17.0800000  0  4G 6G 8G 9G11
  20735642.837    20735643.716    -1147550.612 9   -571297.919 9
  21474095.950    21474097.400     2039446.982 9   1910158.047 7
  22803193.747    22803195.977    -2641909.869 9  -1619852.728 8
  20744853.222    20744856.181    -1288676.381 9   -612251.022 8
 86  6 10 23 51 23.0800000  0  4G 6G 8G 9G11
  20734326.766    20734327.934    -1154466.273 9   -576686.751 8
  21476916.019    21476916.971     2054266.185 9   1921705.491 8
  22799856.377    22799858.462    -2659445.583 9  -1633516.915 8
  20743533.456    20743538.381    -1295602.719 9   -617648.180 8
 86  6 10 23 51 29.0800000  0  4G 6G 8G 9G11
  20733012.661    20733013.995    -1161370.081 9   -582066.338 8
  21479740.068    21479741.470     2069104.698 9   1933267.957 9
  22796519.515    22796523.258    -2676979.791 9  -1647179.935 8
  20742220.161    20742223.854    -1302505.801 8   -623027.193 8
 86  6 10 23 51 35.0800000  0  4G 6G 8G 9G11
  20731701.656    20731701.814    -1168261.975 9   -587436.641 9
  21482566.125    21482568.904     2083962.442 9   1944845.409 7
  22793183.695    22793185.519    -2694512.556 9  -1660841.826 8
  20740911.957    20740915.334    -1309385.571 8   -628388.057 8
 86  6 10 23 51 41.0800000  0  4G 6G 8G 9G11
  20730392.059    20730392.906    -1175141.984 9   -592797.682 8
  21485397.592    21485398.909     2098839.389 9   1956437.840 8
  22789846.791    22789850.176    -2712043.798 9  -1674502.516 7
  20739607.903    20739610.509    -1316242.064 9   -633730.761 8
 86  6 10 23 51 47.0800000  0  4G 6G 8G 9G11
  20729085.280    20729086.236    -1182010.049 9   -598149.427 8
  21488231.638    21488234.699     2113735.510 9   1968045.206 7
  22786510.909    22786514.557    -2729573.545 9  -1688162.076 8
  20738307.055    20738310.435    -1323075.246 8   -639055.330 8
 86  6 10 23 51 53.0800000  0  4G 6G 8G 9G11
  20727780.156    20727782.039    -1188866.220 9   -603491.900 8
  21491070.248    21491072.722     2128650.795 9   1979667.500 7
  22783176.602    22783177.828    -2747101.694 9  -1701820.354 9
  20737010.588    20737013.707    -1329885.090 9   -644361.699 9
 86  6 10 23 51 59.0800000  0  4G 6G 8G 9G11
  20726477.459    20726479.531    -1195710.402 9   -608825.029 9
  21493912.251    21493914.543     2143585.227 9   1991304.726 7
  22779841.011    22779843.175    -2764628.252 9  -1715477.417 8
  20735719.785    20735722.847    -1336671.652 8   -649649.925 8
 86  6 10 23 52  5.0800000  0  4G 6G 8G 9G11
  20725177.884    20725179.397    -1202542.585 9   -614148.804 9
  21496756.747    21496759.869     2158538.796 8   2002956.838 8
  22776506.447    22776508.369    -2782153.243 9  -1729133.251 9
  20734433.126    20734435.636    -1343434.874 7   -654919.961 8
 86  6 10 23 52 11.0800000  0  4G 6G 8G 9G11
  20723879.476    20723881.468    -1209362.788 9   -619463.245 8
  21499606.702    21499608.681     2173511.439 9   2014623.845 8
  22773171.129    22773173.411    -2799676.667 9  -1742787.856 8
  20733150.054    20733153.186    -1350174.764 8   -660171.826 8
 86  6 10 23 52 17.0800000  0  4G 6G 8G 9G11
  20722583.604    20722586.909    -1216171.003 9   -624768.343 8
  21502459.894    21502461.756     2188503.080 9   2026305.635 8
  22769837.593    22769838.876    -2817198.521 8  -1756441.234 9
  20731871.699    20731875.005    -1356891.348 9   -665405.513 8
 86  6 10 23 52 23.0800000  0  4G 6G 8G 9G11
  20721290.554    20721293.049    -1222967.209 9   -630064.088 9
  21505317.224    21505318.413     2203513.795 9   2038002.295 7
  22766503.580    22766504.626    -2834718.811 9  -1770093.414 8
  20730599.356    20730601.831    -1363584.582 8   -670621.034 8
 86  6 10 23 52 29.0800000  0  4G 6G 8G 9G11
  20719999.304    20720001.044    -1229751.381 9   -635350.454 8
  21508176.302    21508177.766     2218543.499 9   2049713.757 8
  22763170.115    22763171.364    -2852237.376 9  -1783744.238 8
  20729329.730    20729332.186    -1370254.496 9   -675818.347 7
 86  6 10 23 52 35.0800000  0  4G 6G 8G 9G11
  20718710.879    20718713.045    -1236523.406 9   -640627.349 9
  21511040.766    21511042.763     2233592.242 9   2061440.040 8
  22759836.764    22759837.743    -2869754.357 9  -1797393.836 8
  20728064.887    20728067.534    -1376901.023 9   -680997.471 8
 86  6 10 23 52 41.0800000  0  4G 6G 8G 9G11
  20717424.313    20717427.346    -1243283.370 9   -645894.862 8
  21513907.413    21513909.586     2248659.937 9   2073181.107 8
  22756503.352    22756505.419    -2887269.554 9  -1811042.039 8
  20726804.389    20726805.703    -1383524.162 8   -686158.348 8
 86  6 10 23 52 47.0800000  0  4G 6G 8G 9G11
  20716140.687    20716142.484    -1250031.263 8   -651152.956 9
  21516778.575    21516781.109     2263746.527 9   2084936.885 8
  22753170.201    22753172.746    -2904783.106 9  -1824688.952 8
  20725548.127    20725551.031    -1390124.029 8   -691301.102 8
 86  6 10 23 52 53.0800000  0  4G 6G 8G 9G11
  20714858.975    20714860.615    -1256767.015 9   -656401.587 8
  21519652.496    21519654.995     2278852.018 9   2096707.398 9
  22749837.366    22749839.739    -2922295.049 9  -1838334.624 9
  20724297.763    20724297.452    -1396700.487 9   -696425.610 8
 86  6 10 23 52 59.0800000  0  4G 6G 8G 9G11
  20713578.649    20713581.156    -1263490.644 9   -661640.780 8
  21522531.092    21522532.225     2293976.413 9   2108492.631 8
  22746505.184    22746508.045    -2939805.174 8  -1851978.886 8
  20723050.146    20723051.861    -1403253.556 9   -701531.892 8
 86  6 10 23 53  5.0800000  0  4G 6G 8G 9G11
  20712302.088    20712304.598    -1270202.106 9   -666870.490 8
  21525412.763    21525415.491     2309119.652 9   2120292.560 9
  22743172.868    22743176.358    -2957313.585 9  -1865621.800 8
  20721807.336    20721809.311    -1409783.274 9   -706619.975 9
 86  6 10 23 53 11.0800000  0  4G 6G 8G 9G11
  20711027.451    20711030.319    -1276901.377 9   -672090.705 8
  21528298.708    21528300.169     2324281.755 9   2132107.185 8
  22739843.078    22739843.673    -2974820.315 9  -1879263.391 8
  20720569.216    20720570.962    -1416289.591 8   -711689.821 8
 86  6 10 23 53 17.0800000  0  4G 6G 8G 9G11
  20709754.998    20709756.984    -1283588.447 9   -677301.412 9
  21531186.897    21531188.113     2339462.672 9   2143936.461 7
  22736511.775    22736514.263    -2992325.327 8  -1892903.659 8
  20719335.337    20719338.072    -1422772.517 9   -716741.457 7
 86  6 10 23 53 23.0800000  0  4G 6G 8G 9G11
  20708483.930    20708487.696    -1290263.329 9   -682502.621 9
  21534079.049    21534081.088     2354662.366 9   2155780.386 8
  22733181.274    22733182.606    -3009828.490 9  -1906542.478 9
  20718105.920    20718108.914    -1429232.023 8   -721774.847 8
 86  6 10 23 53 29.0800000  0  4G 6G 8G 9G11
  20707216.433    20707218.837    -1296925.981 9   -687694.286 8
  21536975.639    21536977.688     2369880.888 9   2167638.959 8
  22729849.776    22729852.669    -3027329.837 8  -1920179.885 8
  20716881.170    20716883.445    -1435668.138 9   -726789.997 9
 86  6 10 23 53 35.0800000  0  4G 6G 8G 9G11
  20705951.237    20705953.441    -1303576.321 9   -692876.371 8
  21539874.796    21539877.240     2385118.138 9   2179512.144 8
  22726519.736    22726522.546    -3044829.377 8  -1933815.886 8
  20715661.799    20715662.769    -1442080.871 9   -731786.927 7
 86  6 10 23 53 41.0800000  0  4G 6G 8G 9G11
  20704687.944    20704689.853    -1310214.447 9   -698048.935 9
  21542777.756    21542779.220     2400374.071 9   2191399.887 8
  22723190.420    22723193.359    -3062327.201 8  -1947450.550 8
  20714445.318    20714446.747    -1448470.214 8   -736765.627 8
 86  6 10 23 53 47.0800000  0  4G 6G 8G 9G11
  20703427.467    20703429.459    -1316840.303 9   -703211.926 8
  21545684.680    21545686.712     2415648.732 9   2203302.227 7
  22719862.187    22719864.028    -3079823.151 8  -1961083.739 7
  20713233.959    20713235.707    -1454836.142 9   -741726.098 7
 86  6 10 23 53 53.0800000  0  4G 6G 8G 9G11
  20702168.196    20702170.731    -1323453.819 9   -708365.326 8
  21548594.637    21548596.822     2430941.988 9   2215219.042 9
  22716532.280    22716534.225    -3097317.234 9  -1974715.496 8
  20712027.780    20712028.911    -1461178.744 9   -746668.378 7
 86  6 10 23 53 59.0800000  0  4G 6G 8G 9G11
  20700912.793    20700914.590    -1330055.043 9   -713509.134 8
  21551508.365    21551511.068     2446253.876 9   2227150.379 8
  22713203.504    22713205.249    -3114809.479 9  -1988345.804 8
  20710824.751    20710827.067    -1467497.908 9   -751592.400 8
 86  6 10 23 54  5.0800000  0  4G 6G 8G 9G11
  20699658.449    20699660.235    -1336643.900 9   -718643.306 9
  21554425.930    21554428.336     2461584.438 9   2239096.282 8
  22709875.447    22709878.170    -3132299.808 9  -2001974.640 8
  20709627.015    20709627.328    -1473793.598 8   -756498.130 8
 86  6 10 23 54 11.0800000  0  4G 6G 8G 9G11
  20698407.158    20698408.615    -1343220.423 9   -723767.873 8
  21557347.177    21557348.646     2476933.588 9   2251056.645 8
  22706546.839    22706548.461    -3149788.292 9  -2015602.016 7
  20708433.770    20708434.601    -1480065.860 9   -761385.603 8
 86  6 10 23 54 17.0800000  0  4G 6G 8G 9G11
  20697158.252    20697160.035    -1349784.574 9   -728882.792 8
  21560270.872    21560272.733     2492301.275 9   2263031.460 8
  22703220.156    22703221.821    -3167274.785 9  -2029227.858 8
  20707244.164    20707245.822    -1486314.712 8   -766254.830 8
 86  6 10 23 54 23.0800000  0  4G 6G 8G 9G11
  20695911.312    20695913.344    -1356336.361 9   -733988.074 9
  21563198.934    21563201.135     2507687.478 9   2275020.708 8
  22699893.616    22699894.885    -3184759.418 9  -2042852.243 9
  20706058.961    20706061.370    -1492540.129 9   -771105.803 8
 86  6 10 23 54 29.0800000  0  4G 6G 8G 9G11
  20694666.058    20694668.467    -1362875.736 9   -739083.693 9
  21566130.337    21566132.266     2523092.153 9   2287024.355 8
  22696566.239    22696566.405    -3202242.149 9  -2056475.149 9
  20704878.482    20704880.672    -1498742.121 9   -775938.512 8
 86  6 10 23 54 35.0800000  0  4G 6G 8G 9G11
  20693423.891    20693427.517    -1369402.701 9   -744169.635 9
  21569065.520    21569067.456     2538515.332 9   2299042.404 8
  22693238.775    22693240.978    -3219722.918 9  -2070096.527 8
  20703702.640    20703704.456    -1504920.705 9   -780753.001 8
 86  6 10 23 54 41.0800000  0  4G 6G 8G 9G11
  20692184.225    20692186.818    -1375917.170 9   -749245.837 9
  21572003.631    21572006.085     2553956.984 9   2311074.872 8
  22689913.723    22689916.417    -3237201.690 8  -2083716.336 8
  20702531.919    20702534.708    -1511075.817 9   -785549.197 9
 86  6 10 23 54 47.0800000  0  4G 6G 8G 9G11
  20690948.612    20690949.554    -1382419.181 9   -754312.347 9
  21574945.689    21574945.860     2569417.070 8   2323121.684 8
  22686587.376    22686589.855    -3254678.546 8  -2097334.660 9
  20701364.663    20701367.498    -1517207.469 8   -790327.104 8
 86  6 10 23 54 53.0800000  0  4G 6G 8G 9G11
  20689713.234    20689715.958    -1388908.768 9   -759369.163 8
  21577891.138    21577893.795     2584895.573 9   2335182.851 8
  22683261.126    22683264.873    -3272153.382 8  -2110951.402 9
  20700202.329    20700205.073    -1523315.672 8   -795086.732 8
 86  6 10 23 54 59.0800000  0  4G 6G 8G 9G11
  20688480.634    20688481.853    -1395385.835 9   -764416.228 8
  21580840.645    21580841.538     2600392.493 9   2347258.363 7
  22679937.318    22679939.797    -3289626.217 8  -2124566.585 8
  20699044.658    20699046.903    -1529400.413 9   -799828.091 7
 86  6 10 23 55  5.0800000  0  4G 6G 8G 9G11
  20687251.020    20687252.024    -1401850.388 9   -769453.540 8
  21583793.050    21583794.071     2615907.727 9   2359348.153 9
  22676611.519    22676613.924    -3307097.035 8  -2138180.206 8
  20697891.082    20697894.299    -1535461.703 9   -804551.170 8
 86  6 10 23 55 11.0800000  0  4G 6G 8G 9G11
  20686024.147    20686024.879    -1408302.413 9   -774481.090 9
  21586748.627    21586750.358     2631441.260 9   2371452.208 8
  22673287.934    22673290.089    -3324565.815 7  -2151792.225 8
  20696743.397    20696744.085    -1541499.556 8   -809255.987 8
 86  6 10 23 55 17.0800000  0  4G 6G 8G 9G11
  20684798.650    20684799.377    -1414741.902 9   -779498.877 9
  21589707.567    21589709.871     2646993.116 9   2383570.538 8
  22669964.661    22669967.380    -3342032.491 8  -2165402.608 8
  20695598.118    20695600.622    -1547513.956 9   -813942.538 7
 86  6 10 23 55 23.0800000  0  4G 6G 8G 9G11
  20683575.644    20683575.998    -1421168.790 9   -784506.841 9
  21592671.246    21592672.183     2662563.232 9   2395703.089 8
  22666640.632    22666643.986    -3359497.068 9  -2179011.362 8
  20694458.048    20694460.167    -1553504.896 9   -818610.792 8
 86  6 10 23 55 29.0800000  0  4G 6G 8G 9G11
  20682354.160    20682356.214    -1427583.089 9   -789504.994 9
  21595636.991    21595639.173     2678151.634 9   2407849.888 8
  22663317.649    22663320.980    -3376959.603 8  -2192618.537 8
  20693322.072    20693325.146    -1559472.326 9   -823260.737 8
 86  6 10 23 55 35.0800000  0  4G 6G 8G 9G11
  20681135.460    20681137.363    -1433984.819 9   -794493.348 8
  21598607.821    21598608.966     2693758.243 9   2420010.888 8
  22659996.339    22659997.011    -3394420.065 9  -2206224.073 9
  20692191.561    20692193.262    -1565416.302 8   -827892.397 8
 86  6 10 23 55 41.0800000  0  4G 6G 8G 9G11
  20679919.691    20679921.630    -1440373.963 9   -799471.909 8
  21601580.536    21601582.933     2709383.016 9   2432186.021 7
  22656673.609    22656674.645    -3411878.351 9  -2219827.938 9
  20691064.540    20691066.545    -1571336.835 9   -832505.805 8
 86  6 10 23 55 47.0800000  0  4G 6G 8G 9G11
  20678705.867    20678708.520    -1446750.472 9   -804440.613 9
  21604557.385    21604559.682     2725025.926 9   2444375.308 9
  22653351.840    22653354.396    -3429334.609 9  -2233430.210 9
  20689941.725    20689945.777    -1577233.925 9   -837100.934 7
 86  6 10 23 55 53.0800000  0  4G 6G 8G 9G11
  20677495.453    20677497.768    -1453114.351 9   -809399.474 9
  21607538.250    21607539.228     2740687.005 9   2456578.735 8
  22650030.227    22650032.436    -3446788.668 9  -2247030.767 9
  20688824.666    20688827.784    -1583107.492 9   -841677.747 8
 86  6 10 23 55 59.0800000  0  4G 6G 8G 9G11
  20676286.809    20676288.527    -1459465.516 9   -814348.441 9
  21610521.558    21610522.289     2756366.222 9   2468796.313 8
  22646710.115    22646711.434    -3464240.616 9  -2260629.672 8
  20687711.786    20687713.943    -1588957.609 8   -846236.264 8
 86  6 10 23 56  5.0800000  0  4G 6G 8G 9G11
  20675080.799    20675082.233    -1465803.992 9   -819287.509 8
  21613508.054    21613509.939     2772063.573 9   2481028.020 8
  22643389.335    22643390.314    -3481690.324 9  -2274226.852 8
  20686603.481    20686604.380    -1594784.277 9   -850776.526 8
 86  6 10 23 56 11.0800000  0  4G 6G 8G 9G11
  20673876.014    20673878.212    -1472129.734 9   -824216.664 8
  21616498.336    21616501.476     2787778.961 9   2493273.764 8
  22640068.920    22640071.519    -3499137.800 8  -2287822.272 9
  20685498.497    20685500.987    -1600587.437 8   -855298.474 7
 86  6 10 23 56 17.0800000  0  4G 6G 8G 9G11
  20672675.701    20672677.201    -1478442.753 9   -829135.902 9
  21619493.431    21619494.983     2803512.342 9   2505533.541 9
  22636749.359    22636750.910    -3516583.079 9  -2301415.984 9
  20684397.976    20684400.597    -1606367.082 8   -859802.091 8
 86  6 10 23 56 23.0800000  0  4G 6G 8G 9G11
  20671476.308    20671478.778    -1484743.123 9   -834045.284 9
  21622490.456    21622491.564     2819263.744 9   2517807.365 9
  22633430.289    22633431.271    -3534026.161 9  -2315007.995 9
  20683302.581    20683304.913    -1612123.233 8   -864287.399 8
 86  6 10 23 56 29.0800000  0  4G 6G 8G 9G11
  20670280.203    20670281.877    -1491030.675 9   -838944.664 9
  21625490.477    21625492.634     2835033.205 9   2530095.248 9
  22630110.315    22630113.389    -3551467.008 9  -2328598.265 8
  20682212.651    20682214.727    -1617855.832 8   -868754.348 8
 86  6 10 23 56 35.0800000  0  4G 6G 8G 9G11
  20669086.473    20669088.152    -1497305.403 9   -843834.062 8
  21628494.723    21628495.681     2850820.630 9   2542397.144 7
  22626792.177    22626794.075    -3568905.579 9  -2342186.761 8
  20681124.780    20681128.332    -1623564.926 8   -873202.985 8
 86  6 10 23 56 41.0800000  0  4G 6G 8G 9G11
  20667894.517    20667895.545    -1503567.395 9   -848713.548 9
  21631502.115    21631505.184     2866625.930 9   2554712.938 7
  22623474.689    22623476.936    -3586341.924 9  -2355773.513 8
  20680042.404    20680046.353    -1629250.528 9   -877633.327 8
 86  6 10 23 56 47.0800000  0  4G 6G 8G 9G11
  20666705.257    20666707.670    -1509816.583 9   -853583.038 8
  21634514.222    21634514.540     2882449.124 9   2567042.713 7
  22620156.081    22620158.617    -3603776.015 9  -2369358.511 8
  20678966.928    20678968.658    -1634912.665 9   -882045.374 7
 86  6 10 23 56 53.0800000  0  4G 6G 8G 9G11
  20665518.352    20665519.274    -1516053.022 9   -858442.601 9
  21637527.750    21637529.760     2898290.165 9   2579386.385 7
  22616838.552    22616841.443    -3621207.825 9  -2382941.736 8
  20677892.710    20677895.613    -1640551.408 9   -886439.188 9
 86  6 10 23 56 59.0800000  0  4G 6G 8G 9G11
  20664334.158    20664335.240    -1522276.595 9   -863292.135 9
  21640546.392    21640547.486     2914149.085 9   2591743.970 7
  22613522.192    22613524.828    -3638637.383 9  -2396523.196 9
  20676825.213    20676827.576    -1646166.632 8   -890814.696 8
 86  6 10 23 57  5.0800000  0  4G 6G 8G 9G11
  20663152.502    20663154.537    -1528487.290 9   -868131.639 9
  21643566.525    21643569.002     2930025.867 9   2604115.487 9
  22610206.748    22610208.539    -3656064.484 9  -2410102.747 9
  20675761.240    20675763.700    -1651758.340 9   -895171.863 8
 86  6 10 23 57 11.0800000  0  4G 6G 8G 9G11
  20661972.506    20661974.475    -1534685.074 9   -872961.070 8
  21646591.726    21646594.165     2945920.447 9   2616500.870 8
  22606890.830    22606891.853    -3673489.323 9  -2423680.538 8
  20674701.760    20674704.105    -1657326.442 8   -899510.644 8
 86  6 10 23 57 17.0800000  0  4G 6G 8G 9G11
  20660795.947    20660797.430    -1540869.956 9   -877780.468 8
  21649619.587    21649621.348     2961832.857 9   2628900.150 8
  22603574.940    22603577.383    -3690911.766 9  -2437256.452 9
  20673645.742    20673648.447    -1662871.012 9   -903831.076 7
 86  6 10 23 57 23.0800000  0  4G 6G 8G 9G11
  20659622.253    20659622.897    -1547041.934 9   -882589.791 9
  21652651.405    21652652.774     2977763.012 9   2641313.250 8
  22600260.208    22600261.704    -3708331.860 9  -2450830.550 9
  20672595.305    20672597.567    -1668392.012 9   -908133.163 8
 86  6 10 23 57 29.0800000  0  4G 6G 8G 9G11
  20658449.308    20658451.454    -1553200.975 9   -887389.053 9
  21655685.936    21655688.227     2993710.913 9   2653740.190 9
  22596945.451    22596947.218    -3725749.476 9  -2464402.718 9
  20671549.676    20671551.266    -1673889.477 9   -912416.890 8
 86  6 10 23 57 35.0800000  0  4G 6G 8G 9G11
  20657279.451    20657281.460    -1559347.103 9   -892178.232 9
  21658724.070    21658726.282     3009676.520 9   2666180.924 8
  22593631.635    22593633.627    -3743164.624 9  -2477972.949 9
  20670508.654    20670509.929    -1679363.493 9   -916682.359 8
 86  6 10 23 57 41.0800000  0  4G 6G 8G 9G11
  20656112.897    20656114.849    -1565480.228 9   -896957.299 9
  21661766.204    21661768.145     3025659.775 9   2678635.405 8
  22590317.486    22590320.041    -3760577.541 9  -2491541.447 9
  20669470.693    20669472.713    -1684813.992 8   -920929.499 9
 86  6 10 23 57 47.0800000  0  4G 6G 8G 9G11
  20654947.574    20654949.405    -1571600.371 9   -901726.229 8
  21664810.250    21664812.496     3041660.692 9   2691103.646 8
  22587005.649    22587006.584    -3777987.892 9  -2505107.946 8
  20668437.829    20668440.449    -1690240.940 8   -925158.289 8
 86  6 10 23 57 53.0800000  0  4G 6G 8G 9G11
  20653785.627    20653787.739    -1577707.562 8   -906485.084 9
  21667859.525    21667860.489     3057679.180 9   2703585.584 8
  22583692.609    22583694.541    -3795395.816 9  -2518672.558 9
  20667410.660    20667411.776    -1695644.375 8   -929368.758 8
 86  6 10 23 57 59.0800000  0  4G 6G 8G 9G11
  20652625.103    20652628.352    -1583801.722 9   -911233.777 8
  21670910.983    21670913.184     3073715.285 9   2716081.245 9
  22580379.666    22580382.647    -3812801.293 9  -2532235.258 9
  20666386.351    20666388.369    -1701024.319 9   -933560.914 7
 86  6 10 23 58  5.0800000  0  4G 6G 8G 9G11
  20651468.683    20651471.247    -1589882.870 9   -915972.344 9
  21673965.238    21673968.105     3089768.932 9   2728590.574 8
  22577068.069    22577070.321    -3830204.328 9  -2545796.064 8
  20665367.481    20665369.025    -1706380.655 9   -937734.681 8
 86  6 10 23 58 11.0800000  0  4G 6G 8G 9G11
  20650314.497    20650316.323    -1595950.967 9   -920700.725 9
  21677023.854    21677026.266     3105840.152 9   2741113.604 7
  22573757.253    22573759.430    -3847604.854 9  -2559354.898 8
  20664351.699    20664354.347    -1711713.392 9   -941890.063 8
 86  6 10 23 58 17.0800000  0  4G 6G 8G 9G11
  20649162.216    20649164.245    -1602005.976 9   -925418.911 9
  21680085.357    21680087.861     3121928.895 9   2753650.278 9
  22570447.206    22570449.492    -3865002.811 9  -2572911.742 9
  20663342.644    20663344.192    -1717022.608 8   -946027.103 8
 86  6 10 23 58 23.0800000  0  4G 6G 8G 9G11
  20648012.323    20648014.301    -1608047.904 9   -930126.916 8
  21683149.924    21683153.085     3138035.154 8   2766200.609 9
  22567136.415    22567138.966    -3882398.373 9  -2586466.728 9
  20662336.136    20662337.595    -1722308.265 9   -950145.801 8
 86  6 10 23 58 29.0800000  0  4G 6G 8G 9G11
  20646865.121    20646867.133    -1614076.699 9   -934824.678 8
  21686218.902    21686219.794     3154158.893 9   2778764.547 8
  22563826.004    22563828.491    -3899791.320 9  -2600019.654 7
  20661334.237    20661336.155    -1727570.400 9   -954246.150 8
 86  6 10 23 58 35.0800000  0  4G 6G 8G 9G11
  20645720.932    20645721.951    -1620092.366 9   -939512.219 9
  21689290.007    21689291.851     3170300.040 9   2791342.060 8
  22560517.886    22560519.335    -3917181.677 9  -2613570.567 8
  20660337.974    20660339.677    -1732809.015 8   -958328.214 8
 86  6 10 23 58 41.0800000  0  4G 6G 8G 9G11
  20644578.426    20644579.436    -1626094.894 9   -944189.509 9
  21692364.306    21692366.610     3186458.580 9   2803933.127 9
  22557208.808    22557209.954    -3934569.431 9  -2627119.457 8
  20659345.346    20659347.594    -1738024.119 8   -962391.922 8
 86  6 10 23 58 47.0800000  0  4G 6G 8G 9G11
  20643438.000    20643439.744    -1632084.289 9   -948856.569 8
  21695443.367    21695445.511     3202634.498 9   2816537.735 9
  22553900.523    22553902.801    -3951954.662 9  -2640666.389 8
  20658357.355    20658359.371    -1743215.661 9   -966437.278 8
 86  6 10 23 58 53.0800000  0  4G 6G 8G 9G11
  20642300.714    20642302.128    -1638060.528 9   -953513.382 9
  21698524.486    21698526.618     3218827.762 9   2829155.860 8
  22550592.634    22550593.866    -3969337.246 9  -2654211.260 9
  20657373.911    20657376.162    -1748383.639 9   -970464.262 8
 86  6 10 23 58 59.0800000  0  4G 6G 8G 9G11
  20641166.164    20641168.039    -1644023.547 9   -958159.885 9
  21701609.411    21701611.168     3235038.345 9   2841787.485 8
  22547286.009    22547285.898    -3986717.166 9  -2667754.049 8
  20656395.021    20656396.782    -1753528.036 9   -974472.879 8
 86  6 10 23 59  5.0800000  0  4G 6G 8G 9G11
  20640034.367    20640035.403    -1649973.369 9   -962796.109 9
  21704697.446    21704699.232     3251266.295 9   2854432.633 9
  22543978.406    22543980.407    -4004094.514 9  -2681294.842 8
  20655420.536    20655421.808    -1758648.805 9   -978463.090 8
 86  6 10 23 59 11.0800000  0  4G 6G 8G 9G11
  20638904.842    20638906.460    -1655909.992 9   -967422.054 8
  21707789.345    21707791.451     3267511.486 9   2867091.218 8
  22540672.627    22540673.687    -4021469.164 9  -2694833.525 7
  20654450.690    20654454.267    -1763746.038 9   -982434.963 8
 86  6 10 23 59 17.0800000  0  4G 6G 8G 9G11
  20637777.067    20637779.582    -1661833.323 8   -972037.638 9
  21710883.688    21710885.920     3283773.971 9   2879763.280 8
  22537367.020    22537368.939    -4038841.119 9  -2708370.099 8
  20653485.194    20653488.911    -1768819.752 9   -986388.503 8
 86  6 10 23 59 23.0800000  0  4G 6G 8G 9G11
  20636652.973    20636654.656    -1667743.437 9   -976642.914 9
  21713982.022    21713983.002     3300053.684 9   2892448.771 8
  22534061.237    22534062.810    -4056210.411 9  -2721904.603 8
  20652523.956    20652525.505    -1773869.904 9   -990323.687 9
 86  6 10 23 59 29.0800000  0  4G 6G 8G 9G11
  20635531.307    20635531.968    -1673640.236 9   -981237.817 9
  21717082.540    21717084.722     3316350.621 9   2905147.674 9
  22530756.659    22530758.207    -4073576.997 9  -2735436.998 9
  20651566.960    20651569.696    -1778896.519 9   -994240.524 8
 86  6 10 23 59 35.0800000  0  4G 6G 8G 9G11
  20634410.219    20634412.577    -1679523.697 9   -985822.336 9
  21720187.490    21720189.692     3332664.698 9   2917859.936 9
  22527452.095    22527453.736    -4090940.844 9  -2748967.267 8
  20650615.342    20650618.317    -1783899.539 9   -998138.971 8
 86  6 10 23 59 41.0800000  0  4G 6G 8G 9G11
  20633293.916    20633296.225    -1685393.873 9   -990396.502 9
  21723295.290    21723295.897     3348995.918 9   2930585.562 9
  22524148.515    22524149.991    -4108302.000 9  -2762495.440 7
  20649668.532    20649668.549    -1788879.028 9  -1002019.104 8
 86  6 10 23 59 47.0800000  0  4G 6G 8G 9G11
  20632179.757    20632180.899    -1691250.699 9   -994960.259 8
  21726406.201    21726408.220     3365344.319 9   2943324.574 8
  22520845.688    22520845.438    -4125660.328 9  -2776021.404 8
  20648725.930    20648726.089    -1793834.956 9  -1005880.855 8
 86  6 10 23 59 53.0800000  0  4G 6G 8G 9G11
  20631067.549    20631069.658    -1697094.160 9   -999513.596 8
  21729519.941    21729521.502     3381709.807 9   2956076.897 9
  22517542.312    22517543.134    -4143015.868 9  -2789545.189 6
  20647785.529    20647788.223    -1798767.327 9  -1009724.263 7
 86  6 10 23 59 59.0800000  0  4G 6G 8G 9G11
  20629957.613    20629959.362    -1702924.242 9  -1004056.526 9
  21732638.257    21732640.198     3398092.444 9   2968842.577 9
  22514240.058    22514241.509    -4160368.656 9  -2803066.830 8
  20646851.483    20646854.072    -1803676.063 9  -1013549.257 8
 86  6 11  0  0  5.0800000  0  4G 6G 8G 9G11
  20628850.998    20628853.250    -1708740.983 9  -1008589.050 9
  21735758.418    21735761.368     3414492.088 9   2981621.526 9
  22510939.099    22510940.376    -4177718.692 9  -2816586.333 8
  20645922.333    20645924.890    -1808561.229 9  -1017355.871 8
 86  6 11  0  0 11.0800000  0  4G 6G 8G 9G11
  20627746.955    20627748.557    -1714544.301 9  -1013111.116 9
  21738882.623    21738884.420     3430908.764 9   2994413.728 9
  22507637.564    22507638.978    -4195065.860 9  -2830103.603 8
  20644996.671    20644998.245    -1813422.813 8  -1021144.114 8
 86  6 11  0  0 17.0800000  0  4G 6G 8G 9G11
  20626645.198    20626646.074    -1720334.225 9  -1017622.741 8
  21742009.785    21742012.503     3447342.407 9   3007219.157 9
  22504337.745    22504338.727    -4212410.322 9  -2843618.776 8
  20644076.533    20644077.131    -1818260.859 9  -1024914.027 8
 86  6 11  0  0 23.0800000  0  4G 6G 8G 9G11
  20625546.310    20625547.861    -1726110.698 9  -1022123.898 9
  21745139.562    21745142.295     3463793.004 9   3020037.803 9
  22501037.257    22501038.186    -4229751.886 9  -2857131.675 8
  20643159.886    20643161.603    -1823075.334 9  -1028665.557 8
 86  6 11  0  0 29.0800000  0  4G 6G 8G 9G11
  20624449.249    20624452.109    -1731873.722 9  -1026614.554 9
  21748274.416    21748275.647     3480260.554 9   3032869.653 8
  22497737.720    22497738.783    -4247090.539 9  -2870642.305 8
  20642248.305    20642249.534    -1827866.198 9  -1032398.693 8
 86  6 11  0  0 35.0800000  0  4G 6G 8G 9G11
  20623355.106    20623357.501    -1737623.238 9  -1031094.708 9
  21751411.020    21751412.888     3496745.001 9   3045714.674 9
  22494439.018    22494440.248    -4264426.331 9  -2884150.713 8
  20641340.817    20641342.619    -1832633.482 9  -1036113.461 7
 86  6 11  0  0 41.0800000  0  4G 6G 8G 9G11
  20622263.174    20622265.304    -1743359.264 9  -1035564.333 8
  21754550.956    21754553.323     3513246.370 9   3058572.883 8
  22491139.899    22491141.531    -4281759.214 9  -2897656.840 8
  20640438.365    20640441.640    -1837377.151 9  -1039809.827 8
 86  6 11  0  0 47.0800000  0  4G 6G 8G 9G11
  20621175.126    20621176.242    -1749081.767 9  -1040023.423 8
  21757694.272    21757696.395     3529764.613 9   3071444.231 9
  22487842.947    22487844.443    -4299089.190 9  -2911160.717 7
  20639540.695    20639541.770    -1842097.266 9  -1043487.823 8
 86  6 11  0  0 53.0800000  0  4G 6G 8G 9G11
  20620087.567    20620090.839    -1754790.816 9  -1044472.040 9
  21760840.872    21760842.515     3546299.664 9   3084328.671 9
  22484545.189    22484546.290    -4316416.243 9  -2924662.294 8
  20638647.484    20638648.977    -1846793.804 9  -1047147.471 7
 86  6 11  0  0 59.0800000  0  4G 6G 8G 9G11
  20619004.093    20619005.503    -1760486.274 9  -1048910.055 8
  21763990.084    21763993.238     3562851.537 9   3097226.237 9
  22481249.365    22481250.151    -4333740.295 9  -2938161.558 8
  20637757.857    20637758.614    -1851466.733 9  -1050788.708 7
 86  6 11  0  1  5.0800000  0  4G 6G 8G 9G11
  20617922.853    20617924.244    -1766168.135 9  -1053337.487 9
  21767143.477    21767144.788     3579420.210 9   3110136.883 8
  22477952.257    22477954.368    -4351061.398 9  -2951658.521 8
  20636872.979    20636873.806    -1856116.028 9  -1054411.524 8
 86  6 11  0  1 11.0800000  0  4G 6G 8G 9G11
  20616844.913    20616845.611    -1771836.435 9  -1057754.343 8
  21770299.370    21770301.888     3596005.704 9   3123060.643 8
  22474656.286    22474658.446    -4368379.490 9  -2965153.122 7
  20635992.449    20635994.150    -1860741.650 8  -1058015.906 8
 86  6 11  0  1 17.0800000  0  4G 6G 8G 9G11
  20615768.913    20615770.309    -1777491.123 9  -1062160.585 9
  21773459.119    21773460.973     3612607.930 9   3135997.430 8
  22471361.910    22471362.487    -4385694.600 9  -2978645.428 8
  20635116.723    20635117.824    -1865343.717 9  -1061601.945 7
 86  6 11  0  1 23.0800000  0  4G 6G 8G 9G11
  20614695.108    20614696.971    -1783132.177 9  -1066556.216 9
  21776621.301    21776623.590     3629226.856 9   3148947.247 9
  22468068.449    22468067.195    -4403006.677 9  -2992135.346 8
  20634244.920    20634248.131    -1869922.206 9  -1065169.587 7
 86  6 11  0  1 29.0800000  0  4G 6G 8G 9G11
  20613624.446    20613626.071    -1788759.588 9  -1070941.209 8
  21779787.238    21779788.383     3645862.434 9   3161910.032 8
  22464773.643    22464774.514    -4420315.723 9  -3005622.918 7
  20633378.962    20633380.834    -1874477.091 9  -1068718.847 7
 86  6 11  0  1 35.0800000  0  4G 6G 8G 9G11
  20612555.952    20612557.048    -1794373.350 9  -1075315.570 8
  21782955.872    21782958.267     3662514.707 9   3174885.819 8
  22461480.406    22461482.169    -4437621.674 9  -3019108.093 7
  20632515.630    20632517.875    -1879008.368 9  -1072249.715 8
 86  6 11  0  1 41.0800000  0  4G 6G 8G 9G11
  20611490.232    20611491.569    -1799973.397 9  -1079679.236 9
  21786128.022    21786128.565     3679183.626 9   3187874.593 7
  22458187.285    22458189.891    -4454924.690 9  -3032590.948 6
  20631658.540    20631660.402    -1883516.035 8  -1075762.164 8
 86  6 11  0  1 47.0800000  0  4G 6G 8G 9G11
  20610427.220    20610428.579    -1805559.781 9  -1084032.272 9
  21789302.332    21789305.335     3695869.133 9   3200876.282 8
  22454895.206    22454896.762    -4472224.491 9  -3046071.300 7
  20630805.142    20630806.327    -1888000.128 8  -1079256.273 8
 86  6 11  0  1 53.0800000  0  4G 6G 8G 9G11
  20609367.200    20609368.228    -1811132.486 9  -1088374.634 9
  21792480.890    21792482.533     3712571.220 9   3213890.891 9
  22451603.969    22451605.176    -4489521.216 8  -3059549.267 7
  20629956.607    20629958.238    -1892460.626 9  -1082731.981 7
 86  6 11  0  1 59.0800000  0  4G 6G 8G 9G11
  20608308.718    20608311.001    -1816691.455 9  -1092706.308 8
  21795661.581    21795665.129     3729289.823 9   3226918.370 9
  22448312.965    22448314.899    -4506814.811 8  -3073024.789 7
  20629112.051    20629114.784    -1896897.516 9  -1086189.292 7
 86  6 11  0  2  5.0800000  0  4G 6G 8G 9G11
  20607253.540    20607255.275    -1822236.722 9  -1097027.280 8
  21798846.805    21798848.180     3746024.961 9   3239958.732 9
  22445022.387    22445024.298    -4524105.316 9  -3086497.891 8
  20628272.615    20628273.815    -1901310.846 9  -1089628.252 8
 86  6 11  0  2 11.0800000  0  4G 6G 8G 9G11
  20606201.025    20606201.763    -1827768.179 9  -1101337.507 9
  21802034.845    21802037.324     3762776.626 8   3253011.972 8
  22441733.149    22441734.569    -4541392.684 9  -3099968.566 7
  20627436.873    20627438.920    -1905700.593 9  -1093048.842 8
 86  6 11  0  2 17.0800000  0  4G 6G 8G 9G11
  20605151.592    20605152.304    -1833285.901 9  -1105637.037 9
  21805225.515    21805227.899     3779544.727 9   3266078.022 8
  22438443.175    22438446.783    -4558676.850 9  -3113436.764 8
  20626607.113    20626609.360    -1910066.798 9  -1096451.071 8
 86  6 11  0  2 23.0800000  0  4G 6G 8G 9G11
  20604103.320    20604105.639    -1838789.887 9  -1109925.859 9
  21808419.212    21808421.396     3796329.228 9   3279156.852 9
  22435156.032    22435157.154    -4575957.905 9  -3126902.503 7
  20625780.354    20625781.442    -1914409.443 9  -1099834.955 8
 86  6 11  0  2 29.0800000  0  4G 6G 8G 9G11
  20603058.801    20603060.879    -1844280.079 9  -1114203.920 8
  21811617.103    21811619.056     3813130.140 9   3292248.466 9
  22431867.661    22431869.647    -4593235.780 9  -3140365.792 7
  20624958.550    20624959.539    -1918728.488 9  -1103200.449 8
 86  6 11  0  2 35.0800000  0  4G 6G 8G 9G11
  20602016.494    20602017.939    -1849756.457 9  -1118471.236 9
  21814816.524    21814819.595     3829947.449 9   3305352.854 9
  22428580.128    22428582.903    -4610510.428 9  -3153826.563 7
  20624141.299    20624143.101    -1923023.906 8  -1106547.519 8
 86  6 11  0  2 41.0800000  0  4G 6G 8G 9G11
  20600976.725    20600979.000    -1855218.990 9  -1122727.745 9
  21818020.564    21818022.966     3846781.154 9   3318470.031 9
  22425293.020    22425296.045    -4627781.883 9  -3167284.829 8
  20623327.992    20623328.623    -1927295.690 9  -1109876.172 8
 86  6 11  0  2 47.0800000  0  4G 6G 8G 9G11
  20599940.173    20599941.046    -1860667.635 9  -1126973.447 9
  21821226.492    21821229.289     3863631.156 9   3331599.884 9
  22422007.965    22422010.385    -4645050.106 9  -3180740.600 8
  20622519.581    20622521.397    -1931543.920 9  -1113186.482 8
 86  6 11  0  2 53.0800000  0  4G 6G 8G 9G11
  20598906.213    20598907.390    -1866102.427 9  -1131208.358 8
  21824436.616    21824438.732     3880497.481 9   3344742.479 8
  22418722.116    22418725.015    -4662314.991 9  -3194193.743 7
  20621715.747    20621718.009    -1935768.543 9  -1116478.406 8
 86  6 11  0  2 59.0800000  0  4G 6G 8G 9G11
  20597875.236    20597876.320    -1871523.297 9  -1135432.399 8
  21827649.360    21827650.872     3897380.077 9   3357897.742 7
  22415437.073    22415439.319    -4679576.719 9  -3207644.439 9
  20620915.895    20620918.627    -1939969.571 9  -1119751.932 8
 86  6 11  0  3  5.0800000  0  4G 6G 8G 9G11
  20596845.778    20596847.272    -1876930.239 9  -1139645.601 9
  21830865.869    21830867.729     3914278.962 9   3371065.685 9
  22412152.603    22412155.577    -4696835.049 8  -3221092.472 8
  20620120.820    20620123.266    -1944146.992 9  -1123007.047 8
 86  6 11  0  3 11.0800000  0  4G 6G 8G 9G11
  20595819.514    20595820.822    -1882323.296 9  -1143847.976 9
  21834083.361    21834086.327     3931194.067 9   3384246.290 8
  22408869.420    22408872.402    -4714090.144 9  -3234537.990 7
  20619330.694    20619332.527    -1948300.798 9  -1126243.793 7
 86  6 11  0  3 17.0800000  0  4G 6G 8G 9G11
  20594796.645    20594796.890    -1887702.410 9  -1148039.492 9
  21837305.397    21837307.553     3948125.351 9   3397439.496 8
  22405586.667    22405588.383    -4731341.850 9  -3247980.874 8
  20618544.403    20618547.685    -1952431.019 9  -1129462.136 8
 86  6 11  0  3 23.0800000  0  4G 6G 8G 9G11
  20593775.243    20593776.439    -1893067.525 9  -1152220.107 9
  21840530.663    21840532.361     3965072.794 9   3410645.295 9
  22402304.579    22402305.332    -4748590.293 8  -3261421.204 8
  20617764.067    20617764.569    -1956537.622 9  -1132662.092 7
 86  6 11  0  3 29.0800000  0  4G 6G 8G 9G11
  20592757.616    20592757.693    -1898418.700 9  -1156389.844 8
  21843757.945    21843760.798     3982036.396 9   3423863.674 9
  22399022.922    22399024.757    -4765835.352 9  -3274858.918 7
  20616985.418    20616988.294    -1960620.630 9  -1135843.659 7
 86  6 11  0  3 35.0800000  0  4G 6G 8G 9G11
  20591741.529    20591742.405    -1903755.905 9  -1160548.714 8
  21846989.810    21846991.514     3999016.103 8   3437094.623 9
  22395742.515    22395743.755    -4783077.096 8  -3288294.031 8
  20616214.098    20616214.938    -1964680.023 9  -1139006.808 8
 86  6 11  0  3 41.0800000  0  4G 6G 8G 9G11
  20590728.521    20590729.566    -1909079.061 9  -1164696.625 8
  21850223.761    21850226.042     4016011.928 9   3450338.110 8
  22392462.602    22392463.058    -4800315.365 8  -3301726.439 7
  20615446.066    20615448.544    -1968715.770 9  -1142151.555 7
 86  6 11  0  3 47.0800000  0  4G 6G 8G 9G11
  20589717.657    20589719.176    -1914388.184 9  -1168833.602 8
  21853461.139    21853463.921     4033023.821 8   3463594.122 9
  22389183.389    22389183.276    -4817550.229 9  -3315156.201 7
  20614681.725    20614684.975    -1972727.927 8  -1145277.908 7
 86  6 11  0  3 53.0800000  0  4G 6G 8G 9G11
  20588710.727    20588711.597    -1919683.329 9  -1172959.689 8
  21856701.849    21856702.752     4050051.730 9   3476862.630 8
  22385904.307    22385905.584    -4834781.765 9  -3328583.379 7
  20613922.682    20613925.445    -1976716.526 8  -1148385.901 7
 86  6 11  0  3 59.0800000  0  4G 6G 8G 9G11
  20587704.502    20587707.046    -1924964.408 9  -1177074.808 9
  21859944.946    21859946.560     4067095.641 9   3490143.588 9
  22382626.256    22382626.231    -4852009.865 9  -3342007.863 8
  20613169.103    20613170.725    -1980681.553 9  -1151475.539 8
 86  6 11  0  4  5.0800000  0  4G 6G 8G 9G11
  20586702.515    20586703.514    -1930231.415 9  -1181178.969 7
  21863191.453    21863194.003     4084155.489 9   3503436.973 9
  22379348.003    22379349.025    -4869234.564 9  -3355429.710 8
  20612419.187    20612421.080    -1984623.026 8  -1154546.802 8
 86  6 11  0  4 11.0800000  0  4G 6G 8G 9G11
  20585703.553    20585704.389    -1935484.302 9  -1185272.129 8
  21866440.199    21866443.732     4101231.320 9   3516742.805 8
  22376071.611    22376071.917    -4886455.745 9  -3368848.825 8
  20611673.022    20611675.656    -1988540.909 9  -1157599.712 7
 86  6 11  0  4 17.0800000  0  4G 6G 8G 9G11
  20584707.001    20584707.725    -1940723.049 9  -1189354.260 9
  21869692.520    21869695.428     4118323.155 9   3530061.115 8
  22372794.597    22372795.809    -4903673.399 9  -3382265.174 7
  20610932.177    20610933.596    -1992435.211 8  -1160634.228 8
 86  6 11  0  4 23.0800000  0  4G 6G 8G 9G11
  20583712.243    20583713.305    -1945947.685 9  -1193425.404 8
  21872948.035    21872950.686     4135430.881 9   3543391.796 8
  22369518.144    22369518.716    -4920887.466 9  -3395678.720 8
  20610195.056    20610196.643    -1996305.879 9  -1163650.319 7
 86  6 11  0  4 29.0800000  0  4G 6G 8G 9G11
  20582721.114    20582721.769    -1951158.162 9  -1197485.526 9
  21876207.705    21876208.864     4152554.488 9   3556734.873 8
  22366242.970    22366244.564    -4938098.097 9  -3409089.606 9
  20609462.913    20609465.185    -2000152.946 9  -1166648.036 8
 86  6 11  0  4 35.0800000  0  4G 6G 8G 9G11
  20581732.177    20581733.525    -1956354.461 9  -1201534.587 8
  21879469.214    21879470.025     4169693.952 9   3570090.288 8
  22362968.847    22362970.476    -4955305.122 9  -3422497.671 8
  20608735.807    20608738.126    -2003976.373 9  -1169627.320 7
 86  6 11  0  4 41.0800000  0  4G 6G 8G 9G11
  20580746.128    20580747.084    -1961536.577 9  -1205572.594 8
  21882733.713    21882735.551     4186849.270 9   3583458.063 9
  22359695.035    22359697.895    -4972508.617 9  -3435902.981 8
  20608012.361    20608013.883    -2007776.254 9  -1172588.272 8
 86  6 11  0  4 47.0800000  0  4G 6G 8G 9G11
  20579762.170    20579763.492    -1966704.480 9  -1209599.533 9
  21886000.803    21886002.775     4204020.387 9   3596838.156 7
  22356421.410    22356424.546    -4989708.474 8  -3449305.461 8
  20607293.725    20607295.300    -2011552.537 9  -1175530.836 7
 86  6 11  0  4 53.0800000  0  4G 6G 8G 9G11
  20578780.897    20578783.376    -1971858.132 9  -1213615.378 8
  21889271.049    21889273.237     4221207.324 9   3610230.564 7
  22353149.773    22353151.882    -5006904.683 9  -3462705.097 8
  20606580.471    20606581.611    -2015305.178 8  -1178454.962 7
 86  6 11  0  4 59.0800000  0  4G 6G 8G 9G11
  20577803.267    20577804.753    -1976997.555 9  -1217620.111 9
  21892545.185    21892546.316     4238410.024 9   3623635.271 8
  22349879.453    22349880.456    -5024097.339 8  -3476101.963 8
  20605871.194    20605872.811    -2019034.189 9  -1181360.683 7
 86  6 11  0  5  5.0800000  0  4G 6G 8G 9G11
  20576828.920    20576829.026    -1982122.725 9  -1221613.739 8
  21895821.612    21895822.973     4255628.407 9   3637052.185 8
  22346608.134    22346609.709    -5041286.382 9  -3489496.021 9
  20605165.836    20605166.138    -2022739.645 8  -1184248.053 7
 86  6 11  0  5 11.0800000  0  4G 6G 8G 9G11
  20575855.498    20575857.638    -1987233.609 9  -1225596.249 9
  21899100.968    21899102.848     4272862.514 9   3650481.367 8
  22343337.641    22343338.988    -5058471.719 9  -3502887.178 9
  20604465.948    20604466.735    -2026421.545 8  -1187117.063 7
 86  6 11  0  5 17.0800000  0  4G 6G 8G 9G11
  20574885.446    20574886.696    -1992330.213 9  -1229567.636 8
  21902383.369    21902386.248     4290112.294 9   3663922.727 7
  22340068.805    22340068.671    -5075653.515 8  -3516275.597 8
  20603769.119    20603770.956    -2030079.812 8  -1189967.651 8
 86  6 11  0  5 23.0800000  0  4G 6G 8G 9G11
  20573918.783    20573920.231    -1997412.508 9  -1233527.861 8
  21905669.443    21905670.980     4307377.711 9   3677376.295 9
  22336799.322    22336799.890    -5092831.552 9  -3529661.080 9
  20603078.329    20603079.001    -2033714.461 9  -1192799.843 7
 86  6 11  0  5 29.0800000  0  4G 6G 8G 9G11
  20572954.729    20572956.489    -2002480.473 9  -1237476.925 9
  21908958.166    21908960.502     4324658.758 9   3690842.058 8
  22333530.268    22333532.453    -5110005.943 9  -3543043.738 8
  20602390.772    20602391.687    -2037325.549 8  -1195613.670 8
 86  6 11  0  5 35.0800000  0  4G 6G 8G 9G11
  20571992.316    20571994.219    -2007534.117 9  -1241414.830 9
  21912248.886    21912250.698     4341955.359 9   3704319.927 9
  22330262.969    22330265.271    -5127176.548 9  -3556423.423 8
  20601707.765    20601709.051    -2040913.006 9  -1198409.103 8
 86  6 11  0  5 41.0800000  0  4G 6G 8G 9G11
  20571034.238    20571035.515    -2012573.381 9  -1245341.521 8
  21915542.770    21915546.451     4359267.584 9   3717809.966 8
  22326996.180    22326998.596    -5144343.445 9  -3569800.222 8
  20601028.768    20601030.299    -2044476.888 9  -1201186.144 8
 86  6 11  0  5 47.0800000  0  4G 6G 8G 9G11
  20570078.779    20570079.123    -2017598.283 9  -1249257.030 8
  21918840.599    21918843.237     4376595.346 9   3731312.109 8
  22323730.222    22323731.942    -5161506.584 9  -3583174.092 9
  20600355.777    20600357.600    -2048017.172 9  -1203944.817 7
 86  6 11  0  5 53.0800000  0  4G 6G 8G 9G11
  20569124.702    20569125.970    -2022608.793 9  -1253161.332 9
  21922140.505    21922142.500     4393938.614 9   3744826.339 8
  22320464.765    22320466.568    -5178665.996 9  -3596545.058 8
  20599685.709    20599687.742    -2051533.884 9  -1206685.109 8
 86  6 11  0  5 59.0800000  0  4G 6G 8G 9G11
  20568173.564    20568174.472    -2027604.832 9  -1257054.347 8
  21925443.417    21925446.789     4411297.380 9   3758352.642 8
  22317199.993    22317201.134    -5195821.562 9  -3609913.011 8
  20599021.506    20599024.126    -2055026.991 9  -1209407.002 8
 86  6 11  0  6  5.0800000  0  4G 6G 8G 9G11
  20567226.410    20567226.997    -2032586.502 9  -1260936.165 9
  21928749.593    21928753.466     4428671.597 9   3771890.990 7
  22313935.731    22313937.484    -5212973.316 9  -3623278.019 8
  20598360.879    20598362.522    -2058496.526 8  -1212110.550 7
 86  6 11  0  6 11.0800000  0  4G 6G 8G 9G11
  20566280.052    20566281.978    -2037553.699 9  -1264806.712 9
  21932058.334    21932061.585     4446061.239 9   3785441.354 8
  22310672.826    22310675.138    -5230121.211 9  -3636640.014 8
  20597705.776    20597708.180    -2061942.476 9  -1214795.702 8
 86  6 11  0  6 17.0800000  0  4G 6G 8G 9G11
  20565338.269    20565339.523    -2042506.426 9  -1268665.977 9
  21935371.366    21935373.419     4463466.281 8   3799003.713 8
  22307410.572    22307412.448    -5247265.372 9  -3649999.098 8
  20597054.193    20597055.343    -2065364.830 9  -1217462.472 7
 86  6 11  0  6 23.0800000  0  4G 6G 8G 9G11
  20564398.651    20564399.546    -2047444.676 9  -1272513.981 9
  21938685.639    21938688.903     4480886.721 9   3812578.083 8
  22304149.102    22304150.050    -5264405.562 9  -3663355.094 8
  20596406.444    20596410.093    -2068763.604 9  -1220110.853 8
 86  6 11  0  6 29.0800000  0  4G 6G 8G 9G11
  20563461.796    20563462.472    -2052368.442 9  -1276350.680 8
  21942003.992    21942006.200     4498322.492 9   3826164.391 8
  22300888.311    22300889.899    -5281542.003 9  -3676708.161 9
  20595765.368    20595766.684    -2072138.816 8  -1222740.894 7
 86  6 11  0  6 35.0800000  0  4G 6G 8G 9G11
  20562526.773    20562528.276    -2057277.708 9  -1280176.078 9
  21945325.516    21945327.567     4515773.591 8   3839762.644 7
  22297627.066    22297629.112    -5298674.562 9  -3690058.197 8
  20595127.063    20595129.011    -2075490.456 9  -1225352.561 8
 86  6 11  0  6 41.0800000  0  4G 6G 8G 9G11
  20561595.188    20561597.308    -2062172.434 9  -1283990.146 8
  21948649.266    21948651.358     4533239.944 9   3853372.793 8
  22294368.822    22294369.785    -5315803.163 9  -3703405.155 8
  20594493.339    20594495.554    -2078818.579 9  -1227945.913 7
 86  6 11  0  6 47.0800000  0  4G 6G 8G 9G11
  20560666.971    20560668.058    -2067052.627 9  -1287792.906 8
  21951976.731    21951977.719     4550721.621 8   3866994.877 8
  22291110.210    22291111.277    -5332927.866 9  -3716749.078 8
  20593865.623    20593866.854    -2082123.080 9  -1230520.841 7
 86  6 11  0  6 53.0800000  0  4G 6G 8G 9G11
  20559741.163    20559743.020    -2071918.244 9  -1291584.288 7
  21955305.024    21955306.849     4568218.549 9   3880628.840 8
  22287852.101    22287853.427    -5350048.585 9  -3730089.896 8
  20593241.115    20593243.404    -2085403.928 9  -1233077.338 7
 86  6 11  0  6 59.0800000  0  4G 6G 8G 9G11
  20558817.590    20558818.875    -2076769.270 9  -1295364.303 8
  21958637.393    21958640.459     4585730.678 9   3894274.641 8
  22284594.413    22284596.071    -5367165.329 9  -3743427.620 8
  20592620.321    20592622.617    -2088661.227 9  -1235615.499 7
 86  6 11  0  7  5.0800000  0  4G 6G 8G 9G11
  20557898.018    20557899.137    -2081605.709 9  -1299132.959 8
  21961972.729    21961975.091     4603257.998 9   3907932.287 9
  22281337.907    22281339.068    -5384278.171 9  -3756762.286 9
  20592005.945    20592007.080    -2091894.984 9  -1238135.311 6
 86  6 11  0  7 11.0800000  0  4G 6G 8G 9G11
  20556979.623    20556981.603    -2086427.520 8  -1302890.209 9
  21965311.621    21965315.422     4620800.507 8   3921601.778 8
  22278080.906    22278083.768    -5401386.966 9  -3770093.821 9
  20591394.687    20591396.949    -2095105.249 9  -1240636.808 7
 86  6 11  0  7 17.0800000  0  4G 6G 8G 9G11
  20556065.961    20556066.353    -2091234.710 9  -1306636.079 8
  21968652.912    21968655.283     4638358.137 9   3935283.048 9
  22274826.653    22274828.618    -5418491.736 9  -3783422.220 9
  20590787.663    20590790.007    -2098291.918 8  -1243119.933 8
 86  6 11  0  7 23.0800000  0  4G 6G 8G 9G11
  20555153.481    20555154.417    -2096027.232 9  -1310370.520 9
  21971996.601    21971997.523     4655930.871 8   3948976.083 9
  22271571.945    22271575.925    -5435592.573 9  -3796747.530 8
  20590186.733    20590187.964    -2101455.013 9  -1245584.674 7
 86  6 11  0  7 29.0800000  0  4G 6G 8G 9G11
  20554244.332    20554244.530    -2100805.098 9  -1314093.512 8
  21975343.225    21975345.200     4673518.695 9   3962680.871 9
  22268319.069    22268321.064    -5452689.248 9  -3810069.611 9
  20589588.696    20589591.485    -2104594.541 9  -1248031.067 8
 86  6 11  0  7 35.0800000  0  4G 6G 8G 9G11
  20553337.301    20553338.214    -2105568.240 9  -1317805.056 8
  21978693.331    21978695.557     4691121.601 9   3976397.419 9
  22265066.978    22265067.879    -5469781.898 9  -3823388.549 7
  20588995.809    20588997.884    -2107710.446 9  -1250459.047 7
 86  6 11  0  7 41.0800000  0  4G 6G 8G 9G11
  20552433.613    20552434.354    -2110316.667 9  -1321505.137 9
  21982045.565    21982048.307     4708739.587 9   3990125.715 8
  22261814.560    22261817.107    -5486870.475 9  -3836704.321 8
  20588407.215    20588408.534    -2110802.769 9  -1252868.643 7
 86  6 11  0  7 47.0800000  0  4G 6G 8G 9G11
  20551532.849    20551535.307    -2115050.362 9  -1325193.725 8
  21985400.600    21985403.183     4726372.553 9   4003865.678 8
  22258564.293    22258566.598    -5503954.898 9  -3850016.845 8
  20587822.540    20587825.554    -2113871.545 9  -1255259.887 7
 86  6 11  0  7 53.0800000  0  4G 6G 8G 9G11
  20550635.259    20550637.405    -2119769.364 9  -1328870.872 8
  21988759.434    21988761.475     4744020.457 9   4017617.294 9
  22255313.306    22255314.769    -5521035.256 9  -3863326.225 8
  20587243.538    20587244.823    -2116916.812 8  -1257632.817 7
 86  6 11  0  7 59.0800000  0  4G 6G 8G 9G11
  20549740.273    20549741.713    -2124473.584 9  -1332536.496 9
  21992120.750    21992122.632     4761683.349 9   4031380.580 9
  22252063.565    22252065.772    -5538111.506 9  -3876632.382 8
  20586669.023    20586669.753    -2119938.534 9  -1259987.401 8
 86  6 11  0  8  5.0800000  0  4G 6G 8G 9G11
  20548847.838    20548849.369    -2129162.998 9  -1336190.580 8
  21995484.207    21995486.278     4779361.172 9   4045155.505 9
  22248814.520    22248816.918    -5555183.563 9  -3889935.281 8
  20586098.001    20586100.806    -2122936.651 9  -1262323.598 7
 86  6 11  0  8 11.0800000  0  4G 6G 8G 9G11
  20547958.384    20547960.276    -2133837.636 9  -1339833.150 8
  21998851.345    21998853.918     4797053.926 9   4058942.062 9
  22245567.544    22245568.866    -5572251.430 9  -3903234.912 9
  20585531.729    20585534.015    -2125911.176 9  -1264641.415 8
 86  6 11  0  8 17.0800000  0  4G 6G 8G 9G11
  20547072.010    20547072.098    -2138497.520 9  -1343464.231 7
  22002221.014    22002222.827     4814761.509 9   4072740.173 8
  22242320.551    22242321.355    -5589315.149 9  -3916531.306 8
  20584970.609    20584972.241    -2128862.187 9  -1266940.905 7
 86  6 11  0  8 23.0800000  0  4G 6G 8G 9G11
  20546188.420    20546187.550    -2143142.570 9  -1347083.755 9
  22005592.797    22005596.003     4832483.955 9   4086549.853 9
  22239073.456    22239075.735    -5606374.684 9  -3929824.453 9
  20584413.869    20584416.376    -2131789.632 9  -1269222.025 7
 86  6 11  0  8 29.0800000  0  4G 6G 8G 9G11
  20545306.398    20545307.540    -2147772.755 9  -1350691.696 9
  22008968.936    22008970.761     4850221.226 9   4100371.107 8
  22235828.123    22235830.275    -5623429.977 9  -3943114.287 9
  20583861.445    20583861.351    -2134693.554 8  -1271484.807 7
 86  6 11  0  8 35.0800000  0  4G 6G 8G 9G11
  20544428.146    20544429.551    -2152388.123 9  -1354288.073 8
  22012346.875    22012347.741     4867973.273 8   4114203.872 8
  22232583.035    22232584.731    -5640481.055 9  -3956400.832 8
  20583312.719    20583313.793    -2137573.930 9  -1273729.266 6
 86  6 11  0  8 41.0800000  0  4G 6G 8G 9G11
  20543552.483    20543554.469    -2156988.531 9  -1357872.814 9
  22015727.230    22015729.450     4885740.134 9   4128048.179 7
  22229339.322    22229341.373    -5657527.867 9  -3969684.063 8
  20582768.544    20582769.800    -2140430.734 9  -1275955.356 7
 86  6 11  0  8 47.0800000  0  4G 6G 8G 9G11
  20542679.900    20542681.122    -2161574.085 9  -1361445.962 8
  22019111.567    22019113.179     4903521.718 9   4141903.943 8
  22226096.466    22226098.642    -5674570.349 9  -3982963.908 8
  20582229.288    20582232.505    -2143263.975 9  -1278163.069 7
 86  6 11  0  8 53.0800000  0  4G 6G 8G 9G11
  20541810.142    20541811.616    -2166144.724 9  -1365007.502 9
  22022497.193    22022499.569     4921318.043 9   4155771.205 9
  22222854.191    22222856.572    -5691608.475 9  -3996240.360 9
  20581695.011    20581697.159    -2146073.625 9  -1280352.407 7
 86  6 11  0  8 59.0800000  0  4G 6G 8G 9G11
  20540943.577    20540945.428    -2170700.403 9  -1368557.380 8
  22025887.714    22025890.130     4939129.040 9   4169649.898 8
  22219613.867    22219615.136    -5708642.405 9  -4009513.543 9
  20581164.312    20581166.961    -2148859.742 9  -1282523.397 7
 86  6 11  0  9  5.0800000  0  4G 6G 8G 9G11
  20540078.810    20540080.066    -2175241.125 9  -1372095.598 8
  22029279.327    22029282.053     4956954.681 9   4183539.998 8
  22216372.405    22216374.543    -5725671.923 9  -4022783.303 8
  20580639.796    20580641.066    -2151622.265 9  -1284676.019 6
 86  6 11  0  9 11.0800000  0  4G 6G 8G 9G11
  20539217.848    20539219.202    -2179766.874 9  -1375622.163 8
  22032674.099    22032677.206     4974794.984 8   4197441.529 9
  22213132.878    22213134.464    -5742697.086 9  -4036049.662 8
  20580117.883    20580119.468    -2154361.252 8  -1286810.282 7
 86  6 11  0  9 17.0800000  0  4G 6G 8G 9G11
  20538359.297    20538361.675    -2184277.690 9  -1379137.081 8
  22036071.661    22036074.081     4992649.922 9   4211354.460 9
  22209894.875    22209894.733    -5759717.938 9  -4049312.665 8
  20579601.152    20579604.298    -2157076.693 8  -1288926.213 6
 86  6 11  0  9 23.0800000  0  4G 6G 8G 9G11
  20537503.679    20537506.397    -2188773.508 9  -1382640.311 8
  22039472.918    22039475.183     5010519.414 9   4225278.746 9
  22206655.928    22206656.953    -5776734.385 9  -4062572.231 8
  20579088.450    20579091.641    -2159768.609 9  -1291023.818 7
 86  6 11  0  9 29.0800000  0  4G 6G 8G 9G11
  20536651.632    20536652.757    -2193254.324 9  -1386131.861 9
  22042875.803    22042878.252     5028403.405 9   4239214.324 9
  22203418.805    22203420.108    -5793746.427 9  -4075828.370 8
  20578580.588    20578582.997    -2162437.070 9  -1293103.126 7
 86  6 11  0  9 35.0800000  0  4G 6G 8G 9G11
  20535801.888    20535802.836    -2197720.156 9  -1389611.725 8
  22046282.866    22046284.641     5046301.911 9   4253161.200 8
  22200181.907    22200183.826    -5810754.110 9  -4089081.100 8
  20578077.308    20578079.624    -2165082.061 9  -1295164.162 7
 86  6 11  0  9 41.0800000  0  4G 6G 8G 9G11
  20534954.384    20534955.340    -2202170.931 9  -1393079.863 8
  22049690.078    22049692.586     5064214.919 9   4267119.375 8
  22196947.217    22196947.368    -5827757.435 9  -4102330.427 7
  20577577.517    20577582.641    -2167703.595 9  -1297206.902 7
 86  6 11  0  9 47.0800000  0  4G 6G 8G 9G11
  20534110.349    20534111.641    -2206606.604 9  -1396536.232 9
  22053102.125    22053103.658     5082142.427 8   4281088.865 8
  22193712.103    22193712.517    -5844756.182 9  -4115576.208 8
  20577084.940    20577085.780    -2170301.616 9  -1299231.345 6
 86  6 11  0  9 53.0800000  0  4G 6G 8G 9G11
  20533270.206    20533272.214    -2211027.265 9  -1399980.902 8
  22056516.774    22056518.698     5100084.378 9   4295069.595 8
  22190477.098    22190478.771    -5861750.525 9  -4128818.540 9
  20576595.363    20576595.792    -2172876.140 9  -1301237.471 8
 86  6 11  0  9 59.0800000  0  4G 6G 8G 9G11
  20532431.536    20532432.376    -2215432.848 9  -1403413.823 8
  22059933.679    22059935.101     5118040.720 9   4309061.549 9
  22187244.079    22187246.591    -5878740.391 9  -4142057.399 8
  20576109.398    20576112.005    -2175427.118 9  -1303225.238 7
 86  6 11  0 10  5.0800000  0  4G 6G 8G 9G11
  20531596.507    20531596.200    -2219823.310 9  -1406834.961 8
  22063353.382    22063355.804     5136011.437 9   4323064.698 8
  22184011.907    22184014.285    -5895725.684 9  -4155292.674 8
  20575628.837    20575630.925    -2177954.599 8  -1305194.700 7
 86  6 11  0 10 11.0800000  0  4G 6G 8G 9G11
  20530763.560    20530764.325    -2224198.662 9  -1410244.330 8
  22066775.447    22066777.083     5153996.525 9   4337079.051 8
  22180781.229    22180781.569    -5912706.471 9  -4168524.456 8
  20575151.971    20575153.603    -2180458.549 9  -1307145.834 7
 86  6 11  0 10 17.0800000  0  4G 6G 8G 9G11
  20529933.188    20529934.396    -2228558.845 9  -1413641.864 8
  22070200.969    22070203.187     5171995.944 9   4351104.571 8
  22177551.679    22177552.774    -5929682.633 9  -4181752.617 8
  20574680.598    20574681.527    -2182938.961 9  -1309078.629 7
 86  6 11  0 10 23.0800000  0  4G 6G 8G 9G11
  20529105.945    20529108.478    -2232903.884 9  -1417027.621 8
  22073629.108    22073630.202     5190009.699 9   4365141.257 8
  22174321.030    22174322.337    -5946654.287 9  -4194977.289 8
  20574212.518    20574213.772    -2185395.920 9  -1310993.132 7
 86  6 11  0 10 29.0800000  0  4G 6G 8G 9G11
  20528282.594    20528284.346    -2237233.737 9  -1420401.526 7
  22077059.619    22077061.201     5208037.757 9   4379189.089 8
  22171092.647    22171093.648    -5963621.402 9  -4208198.402 9
  20573749.816    20573752.504    -2187829.328 8  -1312889.283 7
 86  6 11  0 10 35.0800000  0  4G 6G 8G 9G11
  20527461.342    20527462.598    -2241548.382 9  -1423763.587 7
  22080493.107    22080494.889     5226080.064 9   4393248.017 8
  22167864.780    22167865.789    -5980583.922 9  -4221415.950 8
  20573291.004    20573293.282    -2190239.209 9  -1314767.122 8
 86  6 11  0 10 41.0800000  0  4G 6G 8G 9G11
  20526643.161    20526644.001    -2245847.782 9  -1427113.780 8
  22083929.122    22083930.019     5244136.585 9   4407318.033 8
  22164637.816    22164638.557    -5997541.776 9  -4234629.858 7
  20572836.661    20572838.706    -2192625.536 8  -1316626.605 7
 86  6 11  0 10 47.0800000  0  4G 6G 8G 9G11
  20525828.155    20525828.925    -2250131.975 9  -1430452.104 8
  22087367.665    22087369.613     5262207.321 9   4421399.113 8
  22161411.677    22161412.776    -6014495.007 9  -4247840.164 8
  20572386.922    20572389.787    -2194988.433 9  -1318467.822 7
 86  6 11  0 10 53.0800000  0  4G 6G 8G 9G11
  20525016.614    20525016.184    -2254400.868 9  -1433778.522 8
  22090808.295    22090811.275     5280292.234 9   4435491.253 8
  22158186.660    22158187.332    -6031443.598 9  -4261046.857 8
  20571941.336    20571944.224    -2197327.835 9  -1320290.734 7
 86  6 11  0 10 59.0800000  0  4G 6G 8G 9G11
  20524206.171    20524207.061    -2258654.595 9  -1437093.106 9
  22094252.787    22094253.929     5298391.294 9   4449594.415 8
  22154962.100    22154962.440    -6048387.493 9  -4274249.903 8
  20571500.526    20571503.730    -2199643.762 8  -1322095.348 7
 86  6 11  0 11  5.0800000  0  4G 6G 8G 9G11
  20523399.704    20523400.959    -2262893.009 9  -1440395.761 9
  22097699.420    22097702.567     5316504.478 9   4463708.582 8
  22151738.308    22151739.810    -6065326.612 9  -4287449.205 7
  20571064.728    20571066.485    -2201936.214 8  -1323881.672 7
 86  6 11  0 11 11.0800000  0  4G 6G 8G 9G11
  20522595.699    20522596.700    -2267116.089 9  -1443686.472 8
  22101150.482    22101151.891     5334631.779 9   4477833.741 7
  22148515.821    22148516.690    -6082261.157 9  -4300644.949 8
  20570632.904    20570634.093    -2204205.178 8  -1325649.689 6
 86  6 11  0 11 17.0800000  0  4G 6G 8G 9G11
  20521795.586    20521796.580    -2271323.849 9  -1446965.241 8
  22104601.532    22104604.226     5352773.176 9   4491969.892 9
  22145293.351    22145295.620    -6099190.964 9  -4313837.003 8
  20570206.063    20570208.009    -2206450.678 9  -1327399.430 7
 86  6 11  0 11 23.0800000  0  4G 6G 8G 9G11
  20520997.217    20520998.012    -2275516.277 9  -1450232.072 8
  22108056.319    22108059.175     5370928.612 9   4506116.973 9
  22142073.559    22142074.555    -6116115.948 9  -4327025.298 8
  20569783.200    20569785.502    -2208672.699 8  -1329130.877 6
 86  6 11  0 11 29.0800000  0  4G 6G 8G 9G11
  20520202.485    20520203.439    -2279693.352 9  -1453486.936 7
  22111513.896    22111515.826     5389098.099 9   4520275.028 8
  22138853.121    22138853.842    -6133036.186 9  -4340209.900 8
  20569364.623    20569366.128    -2210871.228 8  -1330844.015 6
 86  6 11  0 11 35.0800000  0  4G 6G 8G 9G11
  20519410.311    20519411.797    -2283855.083 9  -1456729.840 8
  22114974.516    22114976.350     5407281.578 9   4534443.954 7
  22135634.703    22135636.806    -6149951.689 9  -4353390.797 7
  20568951.262    20568952.323    -2213046.313 8  -1332538.883 7
 86  6 11  0 11 41.0800000  0  4G 6G 8G 9G11
  20518621.414    20518623.009    -2288001.418 8  -1459960.766 8
  22118436.247    22118439.094     5425478.968 9   4548623.738 8
  22132415.902    22132417.713    -6166862.421 9  -4366567.986 8
  20568541.306    20568544.497    -2215197.906 9  -1334215.450 7
 86  6 11  0 11 47.0800000  0  4G 6G 8G 9G11
  20517835.916    20517837.255    -2292132.392 9  -1463179.694 8
  22121903.205    22121904.388     5443690.311 9   4562814.389 8
  22129199.230    22129201.046    -6183768.340 9  -4379741.443 8
  20568136.444    20568138.462    -2217326.077 9  -1335873.770 7
 86  6 11  0 11 53.0800000  0  4G 6G 8G 9G11
  20517052.124    20517052.915    -2296247.927 9  -1466386.620 7
  22125371.095    22125373.293     5461915.608 9   4577015.914 8
  22125983.703    22125985.032    -6200669.342 9  -4392911.030 8
  20567735.327    20567737.276    -2219430.794 9  -1337513.795 7
 86  6 11  0 11 59.0800000  0  4G 6G 8G 9G11
  20516271.970    20516273.298    -2300348.006 9  -1469581.485 8
  22128841.017    22128842.944     5480154.780 9   4591228.258 9
  22122768.713    22122769.082    -6217565.464 9  -4406076.838 8
  20567339.708    20567341.796    -2221512.007 8  -1339135.521 7
 86  6 11  0 12  5.0800000  0  4G 6G 8G 9G11
  20515495.331    20515496.256    -2304432.616 9  -1472764.295 8
  22132314.233    22132317.338     5498407.813 9   4605451.383 8
  22119553.432    22119555.346    -6234456.760 9  -4419238.880 9
  20566947.921    20566949.353    -2223569.781 9  -1340738.974 7
 86  6 11  0 12 11.0800000  0  4G 6G 8G 9G11
  20514720.583    20514721.531    -2308501.814 9  -1475935.088 7
  22135790.603    22135793.327     5516674.625 9   4619685.269 8
  22116340.354    22116342.360    -6251343.156 9  -4432397.110 8
  20566561.832    20566564.052    -2225604.100 9  -1342324.161 7
 86  6 11  0 12 17.0800000  0  4G 6G 8G 9G11
  20513949.050    20513950.020    -2312555.507 9  -1479093.830 7
  22139269.645    22139270.086     5534955.231 9   4633929.886 8
  22113127.935    22113129.508    -6268224.723 9  -4445551.565 8
  20566178.172    20566179.711    -2227614.984 8  -1343891.088 7
 86  6 11  0 12 23.0800000  0  4G 6G 8G 9G11
  20513180.724    20513181.690    -2316593.773 9  -1482240.521 7
  22142750.378    22142753.198     5553249.608 9   4648185.236 8
  22109916.769    22109918.234    -6285101.314 9  -4458702.157 9
  20565800.984    20565802.148    -2229602.420 9  -1345439.708 8
 86  6 11  0 12 29.0800000  0  4G 6G 8G 9G11
  20512415.599    20512417.043    -2320616.489 9  -1485375.107 7
  22146233.764    22146236.412     5571557.718 9   4662451.288 8
  22106705.283    22106706.848    -6301972.938 9  -4471848.892 9
  20565427.345    20565427.704    -2231566.433 9  -1346970.117 7
 86  6 11  0 12 35.0800000  0  4G 6G 8G 9G11
  20511653.017    20511653.734    -2324623.703 9  -1488497.609 8
  22149720.786    22149723.463     5589879.608 9   4676728.084 9
  22103495.742    22103497.196    -6318839.627 9  -4484991.760 8
  20565058.255    20565058.767    -2233507.056 8  -1348482.292 7
 86  6 11  0 12 41.0800000  0  4G 6G 8G 9G11
  20510893.818    20510895.687    -2328615.331 9  -1491607.979 7
  22153210.165    22153212.552     5608215.181 9   4691015.543 8
  22100286.088    22100289.470    -6335701.414 9  -4498130.811 8
  20564693.341    20564694.629    -2235424.261 9  -1349976.223 6
 86  6 11  0 12 47.0800000  0  4G 6G 8G 9G11
  20510136.766    20510137.238    -2332591.405 9  -1494706.206 8
  22156701.658    22156703.929     5626564.406 9   4705313.647 8
  22097078.757    22097081.526    -6352558.139 8  -4511265.926 8
  20564333.408    20564333.038    -2237318.064 8  -1351451.907 6
 86  6 11  0 12 53.0800000  0  4G 6G 8G 9G11
  20509382.498    20509384.093    -2336551.926 9  -1497792.329 8
  22160196.894    22160197.792     5644927.239 8   4719622.333 9
  22093872.238    22093875.091    -6369409.809 9  -4524397.088 8
  20563976.109    20563978.555    -2239188.476 9  -1352909.357 7
 86  6 11  0 12 59.0800000  0  4G 6G 8G 9G11
  20508632.200    20508633.399    -2340496.836 9  -1500866.282 8
  22163692.949    22163695.632     5663303.676 9   4733941.631 8
  22090667.603    22090668.933    -6386256.431 9  -4537524.313 8
  20563625.191    20563626.333    -2241035.485 8  -1354348.590 8
 86  6 11  0 13  5.0800000  0  4G 6G 8G 9G11
  20507884.859    20507885.704    -2344426.142 9  -1503928.078 8
  22167193.056    22167194.482     5681693.726 9   4748271.535 8
  22087462.687    22087463.989    -6403097.991 9  -4550647.614 7
  20563278.020    20563278.577    -2242859.118 8  -1355769.603 7
 86  6 11  0 13 11.0800000  0  4G 6G 8G 9G11
  20507139.352    20507139.900    -2348339.789 9  -1506977.673 9
  22170695.800    22170697.544     5700097.333 9   4762612.007 8
  22084258.522    22084260.668    -6419934.523 9  -4563766.995 9
  20562935.203    20562936.046    -2244659.336 9  -1357172.364 7
 86  6 11  0 13 17.0800000  0  4G 6G 8G 9G11
  20506398.603    20506398.921    -2352237.796 9  -1510015.087 7
  22174199.949    22174200.814     5718514.516 9   4776963.060 9
  22081055.506    22081058.485    -6436765.906 9  -4576882.349 8
  20562597.709    20562598.651    -2246436.156 9  -1358556.900 6
 86  6 11  0 13 23.0800000  0  4G 6G 8G 9G11
  20505659.711    20505659.448    -2356120.166 9  -1513040.304 8
  22177706.430    22177708.840     5736945.175 9   4791324.606 8
  22077853.945    22077855.942    -6453592.228 8  -4589993.764 8
  20562263.414    20562265.119    -2248189.596 9  -1359923.207 7
 86  6 11  0 13 29.0800000  0  4G 6G 8G 9G11
  20504923.468    20504923.190    -2359986.859 9  -1516053.314 8
  22181216.309    22181219.031     5755389.322 9   4805696.654 8
  22074651.765    22074654.199    -6470413.458 8  -4603101.207 8
  20561934.505    20561936.021    -2249919.633 9  -1361271.293 7
 86  6 11  0 13 35.0800000  0  4G 6G 8G 9G11
  20504190.331    20504190.368    -2363837.823 9  -1519054.066 7
  22184729.060    22184731.186     5773846.931 9   4820079.208 8
  22071452.344    22071455.860    -6487229.470 9  -4616204.585 9
  20561610.119    20561610.746    -2251626.286 9  -1362601.163 6
 86  6 11  0 13 41.0800000  0  4G 6G 8G 9G11
  20503460.895    20503461.118    -2367673.083 9  -1522042.594 7
  22188243.977    22188246.577     5792317.948 9   4834472.200 8
  22068252.145    22068255.455    -6504040.413 9  -4629304.026 8
  20561289.992    20561290.505    -2253309.572 9  -1363912.808 7
 86  6 11  0 13 47.0800000  0  4G 6G 8G 9G11
  20502733.424    20502734.588    -2371492.618 9  -1525018.841 7
  22191761.112    22191763.178     5810802.372 9   4848875.651 8
  22065055.683    22065057.917    -6520846.139 9  -4642399.384 8
  20560973.328    20560973.743    -2254969.439 9  -1365206.213 6
 86  6 11  0 13 53.0800000  0  4G 6G 8G 9G11
  20502009.426    20502010.681    -2375296.438 9  -1527982.854 8
  22195281.574    22195284.012     5829300.181 9   4863289.503 9
  22061858.723    22061861.207    -6537646.631 9  -4655490.669 8
  20560661.935    20560662.922    -2256605.911 9  -1366481.389 8
 86  6 11  0 13 59.0800000  0  4G 6G 8G 9G11
  20501289.511    20501289.916    -2379084.442 9  -1530934.549 7
  22198803.868    22198806.113     5847811.332 9   4877713.783 7
  22058661.844    22058664.619    -6554441.913 9  -4668577.892 8
  20560354.918    20560356.447    -2258219.008 9  -1367738.347 7
 86  6 11  0 14  5.0800000  0  4G 6G 8G 9G11
  20500571.093    20500573.396    -2382856.697 9  -1533873.955 9
  22202330.149    22202329.668     5866335.744 8   4892148.382 8
  22055466.132    22055469.525    -6571231.908 8  -4681661.010 8
  20560051.649    20560053.793    -2259808.727 9  -1368977.086 7
 86  6 11  0 14 11.0800000  0  4G 6G 8G 9G11
  20499857.046    20499857.623    -2386613.164 9  -1536801.084 7
  22205856.213    22205857.985     5884873.470 9   4906593.358 8
  22052272.269    22052274.737    -6588016.756 9  -4694740.101 8
  20559754.394    20559755.953    -2261375.053 8  -1370197.595 8
 86  6 11  0 14 17.0800000  0  4G 6G 8G 9G11
  20499145.401    20499145.442    -2390353.823 9  -1539715.888 8
  22209386.183    22209388.611     5903424.466 9   4921048.676 7
  22049081.107    22049081.575    -6604796.249 9  -4707815.022 8
  20559461.165    20559461.181    -2262918.013 9  -1371399.901 6
 86  6 11  0 14 23.0800000  0  4G 6G 8G 9G11
  20498436.744    20498436.250    -2394078.636 9  -1542618.331 8
  22212919.386    22212921.738     5921988.737 9   4935514.334 8
  22045888.623    22045890.697    -6621570.388 9  -4720885.788 8
  20559170.949    20559171.993    -2264437.557 9  -1372583.969 7
 86  6 11  0 14 29.0800000  0  4G 6G 8G 9G11
  20497730.424    20497731.313    -2397787.543 9  -1545508.385 6
  22216455.028    22216456.078     5940566.259 9   4949990.314 8
  22042698.680    22042699.146    -6638339.177 9  -4733952.382 8
  20558886.340    20558887.724    -2265933.704 9  -1373749.797 7
 86  6 11  0 14 35.0800000  0  4G 6G 8G 9G11
  20497027.508    20497027.759    -2401480.553 9  -1548386.058 8
  22219992.680    22219993.172     5959156.975 9   4964476.596 7
  22039507.662    22039509.310    -6655102.627 9  -4747014.797 7
  20558606.449    20558608.270    -2267406.503 8  -1374897.436 7
 86  6 11  0 14 41.0800000  0  4G 6G 8G 9G11
  20496328.016    20496327.762    -2405157.712 9  -1551251.374 7
  22223533.032    22223535.251     5977760.922 8   4978973.170 8
  22036318.475    22036320.815    -6671860.715 9  -4760073.049 8
  20558330.830    20558332.645    -2268855.951 8  -1376026.863 7
 86  6 11  0 14 47.0800000  0  4G 6G 8G 9G11
  20495631.013    20495630.839    -2408818.931 9  -1554104.283 7
  22227074.900    22227076.766     5996378.021 9   4993479.989 7
  22033130.478    22033133.351    -6688613.399 9  -4773127.092 8
  20558059.241    20558060.974    -2270282.066 8  -1377138.131 6
 86  6 11  0 14 53.0800000  0  4G 6G 8G 9G11
  20494936.522    20494937.923    -2412464.293 9  -1556944.820 8
  22230620.174    22230622.706     6015008.167 9   5007996.974 8
  22029944.411    22029945.784    -6705360.757 9  -4786176.974 9
  20557792.006    20557794.009    -2271684.934 8  -1378231.282 7
 86  6 11  0 14 59.0800000  0  4G 6G 8G 9G11
  20494247.030    20494247.856    -2416093.718 9  -1559772.937 7
  22234168.033    22234170.722     6033651.376 9   5022524.150 8
  22026758.315    22026759.868    -6722102.688 9  -4799222.626 8
  20557529.603    20557531.790    -2273064.449 9  -1379306.210 8
 86  6 11  0 15  5.0800000  0  4G 6G 8G 9G11
  20493559.502    20493560.148    -2419707.231 9  -1562588.658 8
  22237719.123    22237719.558     6052307.630 8   5037061.485 7
  22023572.676    22023575.586    -6738839.202 9  -4812264.073 8
  20557271.294    20557272.993    -2274420.638 9  -1380362.982 7
 86  6 11  0 15 11.0800000  0  4G 6G 8G 9G11
  20492874.900    20492874.885    -2423304.794 9  -1565391.966 8
  22241270.964    22241272.273     6070976.946 9   5051609.003 8
  22020388.767    22020390.623    -6755570.304 9  -4825301.283 8
  20557018.170    20557019.656    -2275753.534 8  -1381401.607 6
 86  6 11  0 15 17.0800000  0  4G 6G 8G 9G11
  20492193.437    20492193.089    -2426886.313 9  -1568182.746 8
  22244825.907    22244829.005     6089659.278 9   5066166.655 7
  22017206.757    22017209.201    -6772295.887 9  -4838334.207 7
  20556768.069    20556770.873    -2277063.103 8  -1382422.055 6
 86  6 11  0 15 23.0800000  0  4G 6G 8G 9G11
  20491515.641    20491513.958    -2430451.833 9  -1570961.085 7
  22248384.267    22248385.546     6108354.601 9   5080734.436 8
  22014025.366    22014026.610    -6789015.971 9  -4851362.828 8
  20556524.271    20556525.229    -2278349.346 8  -1383424.315 7
 86  6 11  0 15 29.0800000  0  4G 6G 8G 9G11
  20490839.961    20490838.940    -2434001.383 9  -1573726.971 7
  22251943.344    22251946.293     6127062.819 9   5095312.259 9
  22010844.821    22010845.699    -6805730.516 9  -4864387.144 8
  20556284.275    20556286.985    -2279612.325 9  -1384408.459 7
 86  6 11  0 15 35.0800000  0  4G 6G 8G 9G11
  20490167.523    20490166.290    -2437534.918 9  -1576480.375 8
  22255506.574    22255507.713     6145783.953 9   5109900.148 8
  22007665.296    22007665.619    -6822439.561 9  -4877407.176 8
  20556047.804    20556049.249    -2280851.980 9  -1385374.408 8
 86  6 11  0 15 41.0800000  0  4G 6G 8G 9G11
  20489497.910    20489497.245    -2441052.476 9  -1579221.317 8
  22259071.246    22259072.963     6164517.950 9   5124498.067 8
  22004486.572    22004487.006    -6839143.077 9  -4890422.914 7
  20555816.225    20555817.457    -2282068.393 9  -1386322.253 7
 86  6 11  0 15 47.0800000  0  4G 6G 8G 9G11
  20488831.026    20488831.153    -2444553.948 8  -1581949.728 7
  22262639.214    22262640.975     6183264.787 9   5139105.993 8
  22001308.444    22001310.709    -6855841.111 9  -4903434.360 8
  20555589.652    20555590.582    -2283261.527 8  -1387251.978 7
 86  6 11  0 15 53.0800000  0  4G 6G 8G 9G11
  20488167.394    20488168.301    -2448039.307 9  -1584665.615 6
  22266209.452    22266210.598     6202024.519 9   5153723.948 8
  21998132.123    21998134.117    -6872533.574 9  -4916441.464 8
  20555366.231    20555368.521    -2284431.366 9  -1388163.535 7
 86  6 11  0 15 59.0800000  0  4G 6G 8G 9G11
  20487507.569    20487508.607    -2451508.646 9  -1587368.976 8
  22269781.361    22269783.294     6220797.054 9   5168351.904 8
  21994955.871    21994957.682    -6889220.432 9  -4929444.203 8
  20555148.617    20555149.607    -2285577.911 8  -1389056.950 8
 86  6 11  0 16  5.0800000  0  4G 6G 8G 9G11
  20486850.383    20486851.415    -2454961.804 9  -1590059.767 8
  22273355.733    22273357.249     6239582.385 9   5182989.832 8
  21991782.757    21991784.522    -6905901.602 9  -4942442.509 8
  20554934.693    20554936.625    -2286701.153 9  -1389932.200 6
 86  6 11  0 16 11.0800000  0  4G 6G 8G 9G11
  20486195.652    20486197.519    -2458398.853 9  -1592737.984 6
  22276932.710    22276934.620     6258380.460 9   5197637.676 8
  21988609.252    21988611.613    -6922577.060 9  -4955436.380 8
  20554725.580    20554728.776    -2287801.160 8  -1390789.355 7
 86  6 11  0 16 17.0800000  0  4G 6G 8G 9G11
  20485545.070    20485545.346    -2461819.758 9  -1595403.618 8
  22280512.139    22280515.037     6277191.318 9   5212295.486 9
  21985437.706    21985437.894    -6939246.938 9  -4968425.881 8
  20554519.933    20554522.523    -2288877.898 8  -1391628.357 6
 86  6 11  0 16 23.0800000  0  4G 6G 8G 9G11
  20484897.054    20484898.865    -2465224.547 8  -1598056.697 8
  22284094.219    22284096.602     6296014.870 9   5226963.170 9
  21982265.942    21982267.970    -6955911.077 9  -4981410.923 9
  20554319.745    20554321.580    -2289931.372 8  -1392449.266 8
 86  6 11  0 16 29.0800000  0  4G 6G 8G 9G11
  20484252.453    20484253.349    -2468613.183 9  -1600697.198 7
  22287678.456    22287680.784     6314851.015 9   5241640.683 8
  21979095.963    21979097.892    -6972569.639 9  -4994391.622 8
  20554123.625    20554125.498    -2290961.647 8  -1393252.083 7
 86  6 11  0 16 35.0800000  0  4G 6G 8G 9G11
  20483610.142    20483610.310    -2471985.631 9  -1603325.082 7
  22291264.663    22291267.029     6333699.815 9   5256328.061 8
  21975926.764    21975927.499    -6989222.468 9  -5007367.851 8
  20553931.081    20553933.085    -2291968.678 8  -1394036.760 6
 86  6 11  0 16 41.0800000  0  4G 6G 8G 9G11
  20482971.362    20482972.095    -2475341.906 9  -1605940.359 7
  22294855.141    22294856.389     6352561.236 9   5271025.259 7
  21972759.372    21972760.256    -7005869.539 9  -5020339.590 8
  20553745.376    20553746.808    -2292952.434 8  -1394803.334 6
 86  6 11  0 16 47.0800000  0  4G 6G 8G 9G11
  20482335.993    20482336.478    -2478681.898 9  -1608542.952 7
  22298446.304    22298447.429     6371435.293 9   5285732.323 7
  21969592.737    21969593.199    -7022510.807 9  -5033306.814 8
  20553561.247    20553564.708    -2293912.967 8  -1395551.787 6
 86  6 11  0 16 53.0800000  0  4G 6G 8G 9G11
  20481703.584    20481704.366    -2482005.709 9  -1611132.928 7
  22302040.165    22302042.671     6390321.905 9   5300449.156 7
  21966426.856    21966427.769    -7039146.346 9  -5046269.562 8
  20553383.612    20553385.443    -2294850.279 8  -1396282.183 7
 86  6 11  0 16 59.0800000  0  4G 6G 8G 9G11
  20481074.609    20481073.879    -2485313.242 9  -1613710.234 7
  22305636.638    22305638.797     6409221.067 9   5315175.759 8
  21963262.144    21963262.965    -7055776.127 9  -5059227.827 8
  20553209.668    20553212.751    -2295764.304 8  -1396994.401 7
 86  6 11  0 17  5.0800000  0  4G 6G 8G 9G11
  20480448.925    20480449.507    -2488604.488 9  -1616274.840 7
  22309235.543    22309237.798     6428132.768 9   5329912.159 8
  21960098.605    21960099.191    -7072400.102 9  -5072181.575 8
  20553039.880    20553041.334    -2296655.096 8  -1397688.515 7
 86  6 11  0 17 11.0800000  0  4G 6G 8G 9G11
  20479825.827    20479826.085    -2491879.451 9  -1618826.763 7
  22312837.039    22312838.410     6447057.001 9   5344658.307 8
  21956936.302    21956938.010    -7089018.263 9  -5085130.778 7
  20552875.097    20552877.296    -2297522.684 9  -1398364.578 7
 86  6 11  0 17 17.0800000  0  4G 6G 8G 9G11
  20479205.809    20479205.017    -2495138.164 9  -1621366.017 7
  22316440.719    22316442.172     6465993.614 9   5359414.105 8
  21953775.573    21953776.213    -7105630.536 9  -5098075.378 7
  20552715.034    20552715.974    -2298367.163 9  -1399022.603 7
 86  6 11  0 17 23.0800000  0  4G 6G 8G 9G11
  20478588.013    20478588.128    -2498380.532 9  -1623892.541 7
  22320046.572    22320048.008     6484942.685 9   5374179.623 9
  21950614.707    21950616.383    -7122236.918 9  -5111015.433 7
  20552558.667    20552560.876    -2299188.388 8  -1399662.512 7
 86  6 11  0 17 29.0800000  0  4G 6G 8G 9G11
  20477974.519    20477974.754    -2501606.526 9  -1626406.316 9
  22323655.427    22323656.427     6503904.208 9   5388954.818 8
  21947456.657    21947457.889    -7138837.406 9  -5123950.881 9
  20552406.183    20552409.087    -2299986.410 8  -1400284.347 7
 86  6 11  0 17 35.0800000  0  4G 6G 8G 9G11
  20477363.365    20477364.169    -2504816.238 9  -1628907.376 7
  22327265.942    22327267.245     6522878.121 9   5403739.695 8
  21944298.927    21944298.983    -7155431.987 9  -5136881.708 8
  20552257.683    20552261.720    -2300761.238 9  -1400888.104 7
 86  6 11  0 17 41.0800000  0  4G 6G 8G 9G11
  20476755.339    20476756.016    -2508009.527 9  -1631395.654 8
  22330878.415    22330880.165     6541864.371 8   5418534.159 8
  21941141.850    21941142.459    -7172020.646 9  -5149807.938 8
  20552116.366    20552117.924    -2301512.913 9  -1401473.819 7
 86  6 11  0 17 47.0800000  0  4G 6G 8G 9G11
  20476150.860    20476151.203    -2511186.478 9  -1633871.199 8
  22334493.651    22334495.193     6560862.944 9   5433338.245 8
  21937985.597    21937986.214    -7188603.369 9  -5162729.546 7
  20551977.767    20551979.271    -2302241.409 8  -1402041.484 6
 86  6 11  0 17 53.0800000  0  4G 6G 8G 9G11
  20475549.101    20475549.343    -2514347.022 9  -1636333.965 8
  22338111.330    22338112.520     6579873.826 9   5448151.910 7
  21934831.542    21934832.575    -7205180.223 9  -5175646.576 8
  20551843.236    20551845.194    -2302946.710 8  -1402591.072 7
 86  6 11  0 17 59.0800000  0  4G 6G 8G 9G11
  20474950.376    20474950.997    -2517491.193 9  -1638783.970 7
  22341731.523    22341732.597     6598896.992 9   5462975.155 8
  21931678.729    21931679.338    -7221751.016 9  -5188558.875 8
  20551714.768    20551715.499    -2303628.835 8  -1403122.598 7
 86  6 11  0 18  5.0800000  0  4G 6G 8G 9G11
  20474355.475    20474355.842    -2520618.976 9  -1641221.210 8
  22345352.620    22345355.604     6617932.344 9   5477807.900 8
  21928526.437    21928527.177    -7238315.858 9  -5201466.530 8
  20551587.648    20551589.031    -2304287.823 9  -1403636.105 6
 86  6 11  0 18 11.0800000  0  4G 6G 8G 9G11
  20473763.818    20473763.065    -2523730.313 9  -1643645.624 7
  22348978.713    22348979.925     6636979.900 8   5492650.139 8
  21925374.408    21925376.616    -7254874.707 9  -5214369.521 8
  20551467.448    20551468.380    -2304923.722 9  -1404131.593 6
 86  6 11  0 18 17.0800000  0  4G 6G 8G 9G11
  20473174.079    20473174.866    -2526825.202 9  -1646057.222 7
  22352604.591    22352606.317     6656039.629 9   5507501.862 7
  21922225.676    21922227.000    -7271427.470 9  -5227267.780 7
  20551349.855    20551351.618    -2305536.471 9  -1404609.060 7
 86  6 11  0 18 23.0800000  0  4G 6G 8G 9G11
  20472589.196    20472589.409    -2529903.630 9  -1648456.007 8
  22356234.235    22356236.559     6675111.576 8   5522363.121 8
  21919076.463    21919077.887    -7287974.171 9  -5240161.300 8
  20551238.275    20551240.606    -2306126.071 9  -1405068.491 7
 86  6 11  0 18 29.0800000  0  4G 6G 8G 9G11
  20472006.103    20472007.483    -2532965.519 9  -1650841.893 7
  22359865.298    22359867.545     6694195.690 9   5537233.855 7
  21915927.943    21915929.459    -7304514.826 9  -5253050.114 8
  20551129.726    20551133.532    -2306692.537 9  -1405509.892 7
 86  6 11  0 18 35.0800000  0  4G 6G 8G 9G11
  20471426.317    20471427.454    -2536010.905 9  -1653214.932 7
  22363500.211    22363500.006     6713291.895 9   5552114.024 7
  21912782.130    21912783.002    -7321049.345 9  -5265934.137 8
  20551026.845    20551029.604    -2307235.927 9  -1405933.290 6
 86  6 11  0 18 41.0800000  0  4G 6G 8G 9G11
  20470848.816    20470851.582    -2539039.813 9  -1655575.112 7
  22367135.836    22367136.770     6732400.215 8   5567003.609 8
  21909638.309    21909637.432    -7337577.718 9  -5278813.387 8
  20550926.908    20550931.101    -2307756.182 9  -1406338.695 7
 86  6 11  0 18 47.0800000  0  4G 6G 8G 9G11
  20470277.381    20470278.532    -2542052.181 8  -1657922.410 8
  22370774.549    22370776.295     6751520.558 9   5581902.575 8
  21906492.605    21906493.797    -7354099.985 9  -5291687.891 7
  20550833.671    20550835.763    -2308253.260 9  -1406726.027 6
 86  6 11  0 18 53.0800000  0  4G 6G 8G 9G11
  20469707.140    20469708.123    -2545047.981 9  -1660256.797 7
  22374415.024    22374416.603     6770652.956 9   5596810.927 8
  21903349.390    21903350.182    -7370616.089 9  -5304557.594 8
  20550743.152    20550744.480    -2308727.179 8  -1407095.313 7
 86  6 11  0 18 59.0800000  0  4G 6G 8G 9G11
  20469140.228    20469140.506    -2548027.198 9  -1662578.264 8
  22378057.690    22378060.345     6789797.341 8   5611728.619 8
  21900207.950    21900209.360    -7387125.991 9  -5317422.439 7
  20550658.299    20550658.513    -2309178.003 8  -1407446.581 8
 86  6 11  0 19  5.0800000  0  4G 6G 8G 9G11
  20468577.018    20468577.153    -2550989.812 9  -1664886.789 8
  22381703.780    22381704.876     6808953.735 9   5626655.684 7
  21897067.998    21897066.984    -7403629.767 9  -5330282.525 7
  20550575.562    20550577.492    -2309605.740 9  -1407779.906 7
 86  6 11  0 19 11.0800000  0  4G 6G 8G 9G11
  20468017.318    20468015.779    -2553935.847 9  -1667182.409 7
  22385350.131    22385353.355     6828122.096 8   5641592.066 8
  21893928.556    21893928.180    -7420127.250 9  -5343137.707 7
  20550499.038    20550500.984    -2310010.410 8  -1408095.210 7
 86  6 11  0 19 17.0800000  0  4G 6G 8G 9G11
  20467459.184    20467459.708    -2556865.201 9  -1669465.024 7
  22389000.578    22389002.028     6847302.422 9   5656537.762 8
  21890789.468    21890790.743    -7436618.511 9  -5355988.038 7
  20550426.523    20550427.067    -2310392.005 9  -1408392.552 7
 86  6 11  0 19 23.0800000  0  4G 6G 8G 9G11
  20466904.664    20466904.155    -2559777.912 9  -1671734.675 7
  22392652.932    22392655.867     6866494.643 8   5671492.744 8
  21887652.933    21887652.463    -7453103.551 9  -5368833.505 8
  20550358.610    20550360.198    -2310750.505 9  -1408671.911 8
 86  6 11  0 19 29.0800000  0  4G 6G 8G 9G11
  20466353.293    20466353.591    -2562674.043 9  -1673991.401 7
  22396307.236    22396309.576     6885698.730 9   5686456.960 8
  21884516.993    21884517.911    -7469582.236 9  -5381674.044 8
  20550294.564    20550296.122    -2311085.967 8  -1408933.298 7
 86  6 11  0 19 35.0800000  0  4G 6G 8G 9G11
  20465805.708    20465805.357    -2565553.497 9  -1676235.129 7
  22399962.783    22399967.307     6904914.667 9   5701430.415 8
  21881382.674    21881383.056    -7486054.719 9  -5394509.735 7
  20550235.238    20550237.283    -2311398.375 9  -1409176.757 7
 86  6 11  0 19 41.0800000  0  4G 6G 8G 9G11
  20465260.833    20465261.702    -2568416.232 9  -1678465.836 8
  22403621.948    22403625.135     6924142.446 9   5716413.100 8
  21878249.510    21878249.650    -7502520.780 9  -5407340.433 7
  20550180.349    20550182.366    -2311687.646 9  -1409402.157 7
 86  6 11  0 19 47.0800000  0  4G 6G 8G 9G11
  20464719.723    20464720.071    -2571262.282 9  -1680683.539 7
  22407283.925    22407287.016     6943382.032 8   5731404.970 7
  21875116.633    21875117.505    -7518980.589 9  -5420166.250 7
  20550128.833    20550131.410    -2311953.902 8  -1409609.615 8
 86  6 11  0 19 53.0800000  0  4G 6G 8G 9G11
  20464181.070    20464181.038    -2574091.668 9  -1682888.259 7
  22410947.479    22410949.813     6962633.350 9   5746405.990 8
  21871986.325    21871986.462    -7535434.001 9  -5432987.083 7
  20550082.790    20550085.346    -2312197.125 9  -1409799.141 6
 86  6 11  0 19 59.0800000  0  4G 6G 8G 9G11
  20463645.790    20463646.288    -2576904.301 9  -1685079.921 7
  22414613.462    22414614.743     6981896.384 9   5761416.138 9
  21868856.132    21868858.092    -7551881.106 9  -5445803.001 8
  20550040.235    20550041.821    -2312417.285 9  -1409970.704 7
 86  6 11  0 20  5.0800000  0  4G 6G 8G 9G11
  20463113.688    20463113.402    -2579700.274 9  -1687258.603 7
  22418279.646    22418283.089     7001171.134 9   5776435.421 8
  21865727.158    21865728.986    -7568321.825 9  -5458613.943 7
  20550002.573    20550005.455    -2312614.440 9  -1410124.310 7
 86  6 11  0 20 11.0800000  0  4G 6G 8G 9G11
  20462584.992    20462585.633    -2582479.440 9  -1689424.175 7
  22421951.081    22421953.626     7020457.601 9   5791463.829 7
  21862600.399    21862601.200    -7584756.099 9  -5471419.874 8
  20549969.807    20549971.417    -2312788.526 8  -1410259.984 6
 86  6 11  0 20 17.0800000  0  4G 6G 8G 9G11
  20462058.671    20462059.186    -2585241.788 9  -1691576.662 8
  22425622.738    22425625.552     7039755.743 9   5806501.336 8
  21859474.505    21859474.324    -7601183.981 9  -5484220.805 8
  20549939.816    20549943.134    -2312939.611 8  -1410377.701 7
 86  6 11  0 20 23.0800000  0  4G 6G 8G 9G11
  20461536.938    20461536.758    -2587987.371 9  -1693716.084 8
  22429298.114    22429300.394     7059065.516 9   5821547.908 8
  21856349.034    21856349.176    -7617605.316 9  -5497016.648 9
  20549916.805    20549919.296    -2313067.675 8  -1410477.503 7
 86  6 11  0 20 29.0800000  0  4G 6G 8G 9G11
  20461017.334    20461017.089    -2590716.108 9  -1695842.355 7
  22432973.850    22432977.480     7078386.928 8   5836603.555 8
  21853224.261    21853227.182    -7634020.178 8  -5509807.455 8
  20549896.887    20549899.836    -2313172.760 9  -1410559.366 7
 86  6 11  0 20 35.0800000  0  4G 6G 8G 9G11
  20460501.094    20460502.024    -2593428.036 9  -1697955.568 6
  22436653.609    22436655.236     7097719.903 9   5851668.211 8
  21850102.350    21850104.181    -7650428.565 9  -5522593.205 7
  20549881.377    20549882.951    -2313254.897 9  -1410623.367 7
 86  6 11  0 20 41.0800000  0  4G 6G 8G 9G11
  20459988.711    20459988.586    -2596123.102 9  -1700055.611 7
  22440335.309    22440336.947     7117064.528 9   5866741.924 8
  21846981.298    21846982.860    -7666830.414 9  -5535373.869 8
  20549870.131    20549871.251    -2313313.932 9  -1410669.367 7
 86  6 11  0 20 47.0800000  0  4G 6G 8G 9G11
  20459478.874    20459479.664    -2598801.404 9  -1702142.596 7
  22444018.002    22444019.633     7136420.612 9   5881824.589 9
  21843860.400    21843862.832    -7683225.747 9  -5548149.443 8
  20549862.231    20549865.824    -2313350.108 9  -1410697.561 6
 86  6 11  0 20 53.0800000  0  4G 6G 8G 9G11
  20458971.776    20458973.483    -2601462.807 9  -1704216.419 7
  22447703.306    22447706.514     7155788.187 9   5896916.197 8
  21840743.068    21840744.395    -7699614.555 9  -5560919.922 8
  20549860.146    20549863.147    -2313363.267 9  -1410707.807 8
 86  6 11  0 20 59.0800000  0  4G 6G 8G 9G11
  20458468.436    20458469.535    -2604107.279 9  -1706277.052 7
  22451391.752    22451393.335     7175167.271 9   5912016.782 8
  21837624.809    21837626.405    -7715996.785 9  -5573685.305 8
  20549861.832    20549865.508    -2313353.428 9  -1410700.148 8
 86  6 11  0 21  5.0800000  0  4G 6G 8G 9G11
  20457968.185    20457970.061    -2606734.852 9  -1708324.499 7
  22455081.361    22455083.842     7194557.810 9   5927126.274 8
  21834508.890    21834509.706    -7732372.428 9  -5586445.540 6
  20549867.702    20549870.144    -2313320.643 9  -1410674.596 7
 86  6 11  0 21 11.0800000  0  4G 6G 8G 9G11
  20457471.705    20457471.649    -2609345.423 9  -1710358.712 7
  22458773.918    22458775.965     7213959.861 9   5942244.768 9
  21831393.745    21831394.543    -7748741.354 9  -5599200.550 8
  20549879.578    20549881.010    -2313264.785 9  -1410631.071 7
 86  6 11  0 21 17.0800000  0  4G 6G 8G 9G11
  20456977.903    20456978.913    -2611939.093 9  -1712379.751 7
  22462468.827    22462470.023     7233373.313 9   5957372.141 8
  21828280.128    21828282.053    -7765103.625 9  -5611950.383 8
  20549893.945    20549895.631    -2313185.954 9  -1410569.643 7
 86  6 11  0 21 23.0800000  0  4G 6G 8G 9G11
  20456487.420    20456487.818    -2614515.773 9  -1714387.565 7
  22466164.863    22466165.538     7252798.185 9   5972508.383 7
  21825168.096    21825170.663    -7781459.178 9  -5624694.961 8
  20549913.692    20549914.279    -2313084.127 8  -1410490.299 7
 86  6 11  0 21 29.0800000  0  4G 6G 8G 9G11
  20456001.050    20456001.137    -2617075.525 9  -1716382.168 8
  22469862.858    22469864.719     7272234.326 9   5987653.438 9
  21822057.117    21822059.723    -7797808.170 9  -5637434.421 8
  20549937.417    20549939.236    -2312959.472 8  -1410393.171 8
 86  6 11  0 21 35.0800000  0  4G 6G 8G 9G11
  20455516.809    20455517.511    -2619618.325 8  -1718363.586 8
  22473563.568    22473566.128     7291681.835 9   6002807.327 9
  21818947.357    21818948.891    -7814150.392 9  -5650168.613 7
  20549966.208    20549968.929    -2312811.886 9  -1410278.155 6
 86  6 11  0 21 41.0800000  0  4G 6G 8G 9G11
  20455036.212    20455036.617    -2622144.097 9  -1720331.712 7
  22477266.710    22477268.733     7311140.614 9   6017970.011 8
  21815839.429    21815841.089    -7830485.952 9  -5662897.630 8
  20549997.919    20550000.137    -2312641.372 8  -1410145.289 7
 86  6 11  0 21 47.0800000  0  4G 6G 8G 9G11
  20454559.485    20454559.446    -2624652.852 9  -1722286.593 7
  22480971.965    22480973.367     7330610.663 9   6033141.471 9
  21812731.256    21812733.476    -7846814.730 9  -5675621.348 8
  20550033.665    20550037.041    -2312447.959 8  -1409994.575 7
 86  6 11  0 21 53.0800000  0  4G 6G 8G 9G11
  20454085.411    20454084.843    -2627144.677 9  -1724228.269 7
  22484678.217    22484680.772     7350091.948 9   6048321.695 9
  21809625.600    21809627.271    -7863136.773 9  -5688339.826 8
  20550075.793    20550078.095    -2312231.650 8  -1409826.018 8
 86  6 11  0 21 59.0800000  0  4G 6G 8G 9G11
  20453613.875    20453615.432    -2629619.384 9  -1726156.610 7
  22488387.633    22488389.665     7369584.458 9   6063510.645 9
  21806521.318    21806523.054    -7879451.971 9  -5701052.964 8
  20550121.091    20550122.279    -2311992.465 9  -1409639.639 7
 86  6 11  0 22  5.0800000  0  4G 6G 8G 9G11
  20453146.708    20453147.906    -2632077.098 9  -1728071.715 9
  22492098.696    22492101.329     7389088.102 9   6078708.288 8
  21803418.524    21803419.602    -7895760.504 9  -5713760.900 7
  20550172.923    20550173.266    -2311730.399 8  -1409435.432 8
 86  6 11  0 22 11.0800000  0  4G 6G 8G 9G11
  20452682.404    20452681.655    -2634517.705 9  -1729973.485 6
  22495812.466    22495815.392     7408602.928 9   6093914.641 7
  21800316.291    21800318.952    -7912062.102 9  -5726463.455 7
  20550226.758    20550226.807    -2311445.367 9  -1409213.337 7
 86  6 11  0 22 17.0800000  0  4G 6G 8G 9G11
  20452220.578    20452221.419    -2636941.242 9  -1731861.955 7
  22499528.951    22499532.436     7428128.938 9   6109129.711 8
  21797214.952    21797216.095    -7928357.024 9  -5739160.783 8
  20550284.966    20550285.471    -2311137.502 9  -1408973.429 7
 86  6 11  0 22 23.0800000  0  4G 6G 8G 9G11
  20451762.923    20451762.208    -2639347.584 9  -1733737.026 7
  22503246.021    22503249.355     7447666.093 9   6124353.457 9
  21794115.157    21794117.337    -7944644.946 9  -5751852.672 8
  20550347.441    20550349.188    -2310806.744 9  -1408715.691 7
 86  6 11  0 22 29.0800000  0  4G 6G 8G 9G11
  20451308.645    20451307.609    -2641736.863 9  -1735598.796 7
  22506966.176    22506968.769     7467214.311 9   6139585.830 9
  21791017.056    21791019.185    -7960926.059 9  -5764539.240 7
  20550415.525    20550415.864    -2310453.139 9  -1408440.155 7
 86  6 11  0 22 35.0800000  0  4G 6G 8G 9G11
  20450856.778    20450857.422    -2644109.033 9  -1737447.248 7
  22510688.442    22510690.695     7486773.558 9   6154826.788 8
  21787919.529    21787921.251    -7977200.318 9  -5777220.486 8
  20550486.209    20550488.446    -2310076.719 9  -1408146.844 7
 86  6 11  0 22 41.0800000  0  4G 6G 8G 9G11
  20450408.195    20450409.381    -2646464.054 9  -1739282.326 7
  22514412.673    22514415.299     7506343.812 9   6170076.346 8
  21784823.168    21784826.673    -7993467.662 9  -5789896.324 7
  20550562.022    20550563.965    -2309677.475 8  -1407835.729 7
 86  6 11  0 22 47.0800000  0  4G 6G 8G 9G11
  20449963.721    20449963.293    -2648801.937 9  -1741104.053 8
  22518139.088    22518140.914     7525925.076 9   6185334.465 7
  21781729.257    21781732.788    -8009727.967 9  -5802566.692 8
  20550642.927    20550644.330    -2309255.331 8  -1407506.788 7
 86  6 11  0 22 53.0800000  0  4G 6G 8G 9G11
  20449522.560    20449522.825    -2651122.624 9  -1742912.386 8
  22521866.805    22521869.007     7545517.313 8   6200601.146 8
  21778636.949    21778639.504    -8025981.442 9  -5815231.744 8
  20550726.349    20550728.715    -2308810.348 9  -1407160.053 8
 86  6 11  0 22 59.0800000  0  4G 6G 8G 9G11
  20449084.679    20449084.873    -2653426.143 9  -1744707.326 7
  22525597.841    22525599.335     7565120.489 8   6215876.348 8
  21775546.192    21775547.482    -8042227.979 8  -5827891.356 8
  20550816.270    20550817.874    -2308342.614 8  -1406795.584 7
 86  6 11  0 23  5.0800000  0  4G 6G 8G 9G11
  20448648.304    20448649.489    -2655712.448 9  -1746488.867 8
  22529330.695    22529332.497     7584734.573 9   6231160.038 8
  21772455.624    21772456.889    -8058467.490 8  -5840545.522 7
  20550907.879    20550911.440    -2307852.067 8  -1406413.341 7
 86  6 11  0 23 11.0800000  0  4G 6G 8G 9G11
  20448216.614    20448217.018    -2657981.595 9  -1748257.053 6
  22533064.708    22533067.162     7604359.582 9   6246452.237 8
  21769366.384    21769367.666    -8074700.011 9  -5853194.248 8
  20551006.528    20551009.075    -2307338.726 9  -1406013.325 7
 86  6 11  0 23 17.0800000  0  4G 6G 8G 9G11
  20447787.835    20447789.499    -2660233.536 8  -1750011.793 8
  22536800.712    22536802.835     7623995.441 9   6261752.903 8
  21766278.787    21766280.280    -8090925.486 9  -5865837.470 7
  20551108.348    20551110.241    -2306802.555 9  -1405595.540 6
 86  6 11  0 23 23.0800000  0  4G 6G 8G 9G11
  20447362.793    20447363.620    -2662468.142 9  -1751753.054 7
  22540540.199    22540542.432     7643642.187 9   6277062.050 8
  21763192.689    21763195.384    -8107143.855 9  -5878475.151 8
  20551215.014    20551217.388    -2306243.606 8  -1405159.990 7
 86  6 11  0 23 29.0800000  0  4G 6G 8G 9G11
  20446940.044    20446941.823    -2664685.472 9  -1753480.834 8
  22544279.788    22544283.131     7663299.716 9   6292379.611 9
  21760107.266    21760109.584    -8123355.151 9  -5891107.334 9
  20551325.509    20551328.673    -2305661.849 8  -1404706.673 7
 86  6 11  0 23 35.0800000  0  4G 6G 8G 9G11
  20446521.652    20446522.948    -2666885.507 9  -1755195.163 7
  22548022.571    22548026.169     7682968.071 8   6307705.585 8
  21757024.551    21757026.022    -8139559.379 9  -5903733.998 8
  20551440.010    20551443.708    -2305057.378 8  -1404235.659 7
 86  6 11  0 23 41.0800000  0  4G 6G 8G 9G11
  20446106.769    20446107.928    -2669068.234 9  -1756895.988 7
  22551769.054    22551770.302     7702647.239 8   6323039.992 8
  21753942.889    21753943.255    -8155756.455 9  -5916355.101 8
  20551559.752    20551562.668    -2304430.055 8  -1403746.841 7
 86  6 11  0 23 47.0800000  0  4G 6G 8G 9G11
  20445695.562    20445694.888    -2671233.642 9  -1758583.314 8
  22555515.328    22555516.890     7722337.140 9   6338382.775 8
  21750861.828    21750863.942    -8171946.382 9  -5928970.617 8
  20551683.924    20551685.920    -2303779.977 8  -1403240.293 7
 86  6 11  0 23 53.0800000  0  4G 6G 8G 9G11
  20445286.853    20445285.858    -2673381.703 9  -1760257.127 7
  22559265.000    22559266.034     7742037.696 9   6353733.844 9
  21747781.609    21747783.545    -8188129.215 9  -5941580.629 8
  20551811.278    20551813.470    -2303107.209 8  -1402716.043 7
 86  6 11  0 23 59.0800000  0  4G 6G 8G 9G11
  20444881.750    20444880.074    -2675512.467 9  -1761917.455 7
  22563015.287    22563017.126     7761748.971 8   6369093.281 8
  21744703.833    21744705.135    -8204304.804 9  -5954184.968 8
  20551944.728    20551946.343    -2302411.668 9  -1402174.071 7
 86  6 11  0 24  5.0800000  0  4G 6G 8G 9G11
  20444478.537    20444477.985    -2677625.833 9  -1763564.239 8
  22566767.335    22566769.905     7781470.917 9   6384461.015 8
  21741626.996    21741628.432    -8220473.153 9  -5966783.681 8
  20552081.782    20552081.638    -2301693.362 9  -1401614.353 6
 86  6 11  0 24 11.0800000  0  4G 6G 8G 9G11
  20444079.709    20444080.938    -2679721.838 9  -1765197.494 8
  22570522.360    22570525.102     7801203.499 9   6399837.050 8
  21738551.813    21738554.829    -8236634.274 9  -5979376.759 8
  20552223.042    20552224.758    -2300952.311 8  -1401036.923 7
 86  6 11  0 24 17.0800000  0  4G 6G 8G 9G11
  20443683.602    20443683.834    -2681800.422 9  -1766817.176 8
  22574280.056    22574280.833     7820946.714 9   6415221.375 8
  21735478.267    21735479.426    -8252788.219 9  -5991964.249 8
  20552367.540    20552369.883    -2300188.527 8  -1400441.758 6
 86  6 11  0 24 23.0800000  0  4G 6G 8G 9G11
  20443292.131    20443291.798    -2683861.632 9  -1768423.297 7
  22578039.376    22578040.404     7840700.513 8   6430613.929 9
  21732404.768    21732407.148    -8268934.951 9  -6004546.113 8
  20552517.701    20552518.788    -2299402.078 8  -1399828.935 7
 86  6 11  0 24 29.0800000  0  4G 6G 8G 9G11
  20442903.244    20442901.918    -2685905.401 9  -1770015.852 8
  22581799.771    22581802.671     7860464.868 8   6446014.727 8
  21729333.443    21729336.112    -8285074.306 9  -6017122.228 9
  20552671.809    20552673.366    -2298592.943 9  -1399198.434 7
 86  6 11  0 24 35.0800000  0  4G 6G 8G 9G11
  20442517.086    20442516.453    -2687931.799 9  -1771594.871 8
  22585562.605    22585565.026     7880239.679 9   6461423.669 8
  21726264.504    21726266.524    -8301206.457 9  -6029692.723 7
  20552829.983    20552831.401    -2297761.141 9  -1398550.284 7
 86  6 11  0 24 41.0800000  0  4G 6G 8G 9G11
  20442135.307    20442136.148    -2689940.772 9  -1773160.297 7
  22589327.732    22589330.916     7900025.005 9   6476840.799 8
  21723194.736    21723197.603    -8317331.296 9  -6042257.545 7
  20552991.967    20552995.053    -2296906.670 9  -1397884.455 6
 86  6 11  0 24 47.0800000  0  4G 6G 8G 9G11
  20441756.589    20441756.770    -2691932.175 9  -1774712.050 7
  22593095.380    22593097.260     7919820.826 9   6492266.103 9
  21720128.917    21720129.380    -8333448.738 9  -6054816.567 8
  20553158.270    20553162.465    -2296029.471 9  -1397200.924 6
 86  6 11  0 24 53.0800000  0  4G 6G 8G 9G11
  20441381.098    20441381.612    -2693906.158 9  -1776250.222 8
  22596863.686    22596865.672     7939627.148 9   6507699.598 9
  21717062.022    21717065.851    -8349558.821 9  -6067369.897 8
  20553330.895    20553331.769    -2295129.569 8  -1396499.709 8
 86  6 11  0 24 59.0800000  0  4G 6G 8G 9G11
  20441008.391    20441008.788    -2695862.603 9  -1777774.716 7
  22600635.161    22600637.847     7959443.866 9   6523141.179 8
  21713998.299    21714000.822    -8365661.522 9  -6079917.449 8
  20553506.127    20553508.144    -2294207.008 8  -1395780.829 7
 86  6 11  0 25  5.0800000  0  4G 6G 8G 9G11
  20440639.099    20440639.651    -2697801.526 9  -1779285.575 7
  22604407.344    22604409.686     7979271.028 8   6538590.899 8
  21710935.674    21710937.427    -8381756.786 9  -6092459.203 9
  20553686.077    20553688.282    -2293261.805 9  -1395044.293 7
 86  6 11  0 25 11.0800000  0  4G 6G 8G 9G11
  20440273.240    20440273.270    -2699723.024 9  -1780782.836 7
  22608182.510    22608184.029     7999108.497 8   6554048.674 8
  21707874.284    21707876.456    -8397844.685 9  -6104995.229 8
  20553870.181    20553871.882    -2292293.973 8  -1394290.150 6
 86  6 11  0 25 17.0800000  0  4G 6G 8G 9G11
  20439910.960    20439911.507    -2701626.940 9  -1782266.413 8
  22611959.684    22611962.465     8018956.337 8   6569514.509 7
  21704813.914    21704815.771    -8413925.155 9  -6117525.463 9
  20554057.802    20554061.073    -2291303.514 8  -1393518.357 7
 86  6 11  0 25 23.0800000  0  4G 6G 8G 9G11
  20439552.332    20439553.376    -2703513.323 9  -1783736.321 8
  22615738.347    22615741.710     8038814.476 8   6584988.382 9
  21701756.332    21701757.508    -8429998.166 9  -6130049.870 8
  20554251.266    20554253.198    -2290290.423 9  -1392728.933 7
 86  6 11  0 25 29.0800000  0  4G 6G 8G 9G11
  20439196.320    20439196.330    -2705382.122 9  -1785192.545 7
  22619519.069    22619521.933     8058682.903 9   6600470.257 9
  21698697.817    21698700.369    -8446063.751 9  -6142568.515 8
  20554448.618    20554450.324    -2289254.723 8  -1391921.892 7
 86  6 11  0 25 35.0800000  0  4G 6G 8G 9G11
  20438844.171    20438843.746    -2707233.344 9  -1786635.042 7
  22623301.687    22623305.073     8078561.611 8   6615960.151 9
  21695643.342    21695645.210    -8462121.687 9  -6155081.205 7
  20554649.634    20554651.982    -2288196.352 9  -1391097.189 7
 86  6 11  0 25 41.0800000  0  4G 6G 8G 9G11
  20438495.206    20438496.079    -2709066.935 9  -1788063.809 7
  22627086.952    22627090.067     8098450.550 9   6631458.026 9
  21692589.166    21692591.380    -8478172.104 9  -6167588.015 8
  20554855.831    20554859.452    -2287115.389 8  -1390254.879 6
 86  6 11  0 25 47.0800000  0  4G 6G 8G 9G11
  20438148.800    20438150.613    -2710882.986 9  -1789478.915 8
  22630874.054    22630876.095     8118349.674 9   6646963.826 8
  21689536.751    21689537.312    -8494215.114 9  -6180089.064 8
  20555065.289    20555067.265    -2286011.907 9  -1389395.017 7
 86  6 11  0 25 53.0800000  0  4G 6G 8G 9G11
  20437806.677    20437808.960    -2712681.387 9  -1790880.274 8
  22634662.820    22634664.204     8138258.995 9   6662477.568 8
  21686484.475    21686486.535    -8510250.595 9  -6192584.247 8
  20555279.984    20555281.919    -2284885.832 8  -1388517.555 7
 86  6 11  0 25 59.0800000  0  4G 6G 8G 9G11
  20437468.482    20437469.353    -2714462.165 9  -1792267.886 7
  22638452.638    22638454.069     8158178.439 9   6677999.219 9
  21683434.299    21683435.637    -8526278.397 9  -6205073.440 9
  20555497.395    20555499.629    -2283737.238 8  -1387622.545 8
 86  6 11  0 26  5.0800000  0  4G 6G 8G 9G11
  20437133.762    20437133.970    -2716225.320 9  -1793641.781 8
  22642244.402    22642247.673     8178108.047 9   6693528.771 8
  21680386.177    21680387.862    -8542298.606 9  -6217556.707 8
  20555722.194    20555723.487    -2282566.110 9  -1386709.989 6
 86  6 11  0 26 11.0800000  0  4G 6G 8G 9G11
  20436801.027    20436802.352    -2717970.744 9  -1795001.856 8
  22646039.543    22646041.292     8198047.806 9   6709066.245 9
  21677338.949    21677339.730    -8558311.244 9  -6230034.101 7
  20555948.279    20555950.103    -2281372.380 9  -1385779.795 7
 86  6 11  0 26 17.0800000  0  4G 6G 8G 9G11
  20436472.674    20436473.904    -2719698.505 9  -1796348.160 7
  22649836.224    22649838.522     8217997.670 9   6724611.575 8
  21674293.535    21674293.543    -8574316.103 9  -6242505.406 8
  20556179.865    20556181.954    -2280156.131 8  -1384832.072 7
 86  6 11  0 26 23.0800000  0  4G 6G 8G 9G11
  20436146.949    20436147.492    -2721408.591 9  -1797680.685 7
  22653633.921    22653636.439     8237957.551 8   6740164.726 9
  21671249.592    21671250.642    -8590313.457 9  -6254970.889 8
  20556416.082    20556416.835    -2278917.395 9  -1383866.836 8
 86  6 11  0 26 29.0800000  0  4G 6G 8G 9G11
  20435825.528    20435825.820    -2723100.908 9  -1798999.381 7
  22657433.517    22657437.733     8257927.441 9   6755725.670 9
  21668205.718    21668207.847    -8606303.064 9  -6267430.317 8
  20556655.588    20556658.448    -2277656.084 9  -1382883.983 7
 86  6 11  0 26 35.0800000  0  4G 6G 8G 9G11
  20435505.681    20435507.534    -2724775.598 9  -1800304.340 7
  22661235.765    22661239.004     8277907.309 8   6771294.381 8
  21665164.957    21665165.620    -8622284.914 9  -6279883.705 8
  20556900.191    20556900.744    -2276372.260 9  -1381883.600 7
 86  6 11  0 26 41.0800000  0  4G 6G 8G 9G11
  20435190.153    20435191.935    -2726432.524 9  -1801595.448 7
  22665040.013    22665041.615     8297897.130 9   6786870.874 8
  21662125.353    21662125.653    -8638259.126 9  -6292331.136 8
  20557148.055    20557149.959    -2275065.936 9  -1380865.689 6
 86  6 11  0 26 47.0800000  0  4G 6G 8G 9G11
  20434879.280    20434880.298    -2728071.731 9  -1802872.757 8
  22668845.673    22668848.448     8317896.927 9   6802455.128 9
  21659087.844    21659087.454    -8654225.655 9  -6304772.584 7
  20557401.157    20557404.403    -2273737.218 9  -1379830.308 6
 86  6 11  0 26 53.0800000  0  4G 6G 8G 9G11
  20434569.970    20434571.092    -2729693.150 9  -1804136.197 7
  22672653.829    22672656.626     8337906.663 9   6818047.123 8
  21656050.958    21656051.884    -8670184.289 9  -6317207.892 8
  20557659.008    20557660.910    -2272385.975 9  -1378777.407 8
 86  6 11  0 26 59.0800000  0  4G 6G 8G 9G11
  20434265.385    20434265.754    -2731296.707 9  -1805385.718 7
  22676462.777    22676465.733     8357926.315 9   6833646.857 8
  21653015.211    21653016.409    -8686135.194 9  -6329637.165 8
  20557920.037    20557921.540    -2271012.184 9  -1377706.919 8
 86  6 11  0 27  5.0800000  0  4G 6G 8G 9G11
  20433963.052    20433964.433    -2732882.423 9  -1806621.343 7
  22680274.548    22680277.179     8377955.869 9   6849254.272 8
  21649981.788    21649982.944    -8702078.163 9  -6342060.260 8
  20558185.730    20558188.594    -2269615.920 9  -1376618.914 7
 86  6 11  0 27 11.0800000  0  4G 6G 8G 9G11
  20433664.377    20433665.788    -2734450.278 9  -1807843.053 7
  22684088.406    22684090.943     8397995.346 9   6864869.424 7
  21646948.251    21646950.642    -8718013.264 9  -6354477.219 8
  20558455.632    20558457.547    -2268197.133 8  -1375513.369 6
 86  6 11  0 27 17.0800000  0  4G 6G 8G 9G11
  20433370.658    20433371.586    -2736000.398 9  -1809050.938 7
  22687903.228    22687906.362     8418044.579 8   6880492.205 8
  21643918.199    21643919.790    -8733940.650 9  -6366888.146 8
  20558728.997    20558732.861    -2266755.947 9  -1374390.368 7
 86  6 11  0 27 23.0800000  0  4G 6G 8G 9G11
  20433079.237    20433079.012    -2737532.728 9  -1810244.962 7
  22691719.807    22691723.104     8438103.591 9   6896122.596 8
  21640888.989    21640890.422    -8749860.070 9  -6379292.904 8
  20559007.708    20559010.254    -2265292.355 9  -1373249.903 8
 86  6 11  0 27 29.0800000  0  4G 6G 8G 9G11
  20432790.476    20432791.345    -2739047.177 9  -1811425.067 6
  22695538.670    22695542.069     8458172.388 9   6911760.620 9
  21637860.099    21637861.332    -8765771.600 9  -6391691.507 8
  20559291.980    20559292.181    -2263806.353 9  -1372091.985 8
 86  6 11  0 27 35.0800000  0  4G 6G 8G 9G11
  20432505.292    20432506.404    -2740543.734 9  -1812591.208 7
  22699359.163    22699362.930     8478250.905 9   6927406.199 8
  21634833.579    21634834.989    -8781675.301 9  -6404083.995 8
  20559578.219    20559578.720    -2262297.917 9  -1370916.572 7
 86  6 11  0 27 41.0800000  0  4G 6G 8G 9G11
  20432223.935    20432225.546    -2742022.338 9  -1813743.367 7
  22703182.535    22703185.530     8498339.212 9   6943059.428 8
  21631810.104    21631809.917    -8797570.996 9  -6416470.250 8
  20559869.870    20559871.971    -2260766.975 9  -1369723.628 7
 86  6 11  0 27 47.0800000  0  4G 6G 8G 9G11
  20431945.860    20431947.340    -2743483.089 9  -1814881.611 7
  22707006.797    22707009.164     8518437.147 9   6958720.156 8
  21628786.400    21628788.051    -8813458.718 9  -6428850.298 8
  20560164.583    20560167.463    -2259213.694 8  -1368513.274 7
 86  6 11  0 27 53.0800000  0  4G 6G 8G 9G11
  20431671.011    20431671.836    -2744925.863 9  -1816005.851 7
  22710833.368    22710834.563     8538544.807 9   6974388.444 9
  21625764.299    21625765.849    -8829338.406 9  -6441224.068 8
  20560465.076    20560467.007    -2257637.986 8  -1367285.468 8
 86  6 11  0 27 59.0800000  0  4G 6G 8G 9G11
  20431400.764    20431401.347    -2746350.713 9  -1817116.138 7
  22714661.884    22714664.496     8558662.122 9   6990064.260 9
  21622744.246    21622745.247    -8845210.105 9  -6453591.638 8
  20560768.374    20560770.951    -2256039.891 9  -1366040.197 7
 86  6 11  0 28  5.0800000  0  4G 6G 8G 9G11
  20431133.489    20431133.446    -2747757.532 9  -1818212.355 8
  22718492.193    22718494.354     8578789.045 9   7005747.583 9
  21619725.728    21619725.410    -8861073.738 9  -6465952.909 7
  20561078.256    20561079.572    -2254419.424 8  -1364777.480 8
 86  6 11  0 28 11.0800000  0  4G 6G 8G 9G11
  20430868.922    20430869.437    -2749146.499 9  -1819294.663 7
  22722324.867    22722326.272     8598925.529 9   7021438.346 7
  21616708.182    21616708.677    -8876929.403 9  -6478307.973 8
  20561391.427    20561393.274    -2252776.560 8  -1363497.334 8
 86  6 11  0 28 17.0800000  0  4G 6G 8G 9G11
  20430607.235    20430607.722    -2750517.503 9  -1820362.990 8
  22726157.720    22726159.393     8619071.581 9   7037136.564 8
  21613692.514    21613694.105    -8892776.966 9  -6490656.732 8
  20561707.059    20561707.764    -2251111.418 9  -1362199.824 8
 86  6 11  0 28 23.0800000  0  4G 6G 8G 9G11
  20430351.126    20430351.239    -2751870.566 9  -1821417.312 7
  22729993.063    22729995.261     8639227.132 8   7052842.179 7
  21610678.804    21610679.419    -8908616.572 9  -6502999.262 7
  20562029.189    20562030.810    -2249423.961 9  -1360884.917 7
 86  6 11  0 28 29.0800000  0  4G 6G 8G 9G11
  20430096.138    20430096.475    -2753205.636 9  -1822457.628 7
  22733830.688    22733832.348     8659392.191 9   7068555.193 8
  21607665.243    21607667.926    -8924448.056 9  -6515335.497 9
  20562353.549    20562355.051    -2247714.142 8  -1359552.590 8
 86  6 11  0 28 35.0800000  0  4G 6G 8G 9G11
  20429845.153    20429846.817    -2754522.632 9  -1823483.858 8
  22737669.961    22737670.909     8679566.781 8   7084275.658 8
  21604653.947    21604656.348    -8940271.329 9  -6527665.312 8
  20562682.748    20562685.080    -2245981.948 8  -1358202.832 6
 86  6 11  0 28 41.0800000  0  4G 6G 8G 9G11
  20429598.471    20429599.840    -2755821.507 8  -1824495.983 7
  22741511.083    22741513.140     8699750.863 9   7100003.506 8
  21601645.113    21601646.094    -8956086.425 9  -6539988.757 8
  20563017.473    20563019.444    -2244227.435 9  -1356835.684 7
 86  6 11  0 28 47.0800000  0  4G 6G 8G 9G11
  20429354.452    20429355.864    -2757102.437 9  -1825494.103 7
  22745353.151    22745354.482     8719944.292 9   7115738.649 8
  21598636.669    21598638.079    -8971893.383 9  -6552305.864 8
  20563354.879    20563357.457    -2242450.615 9  -1355451.151 8
 86  6 11  0 28 53.0800000  0  4G 6G 8G 9G11
  20429114.056    20429115.944    -2758365.280 9  -1826478.139 8
  22749197.186    22749199.151     8740147.195 8   7131481.151 8
  21595630.176    21595631.592    -8987692.151 9  -6564616.588 8
  20563697.415    20563699.389    -2240651.535 9  -1354049.248 7
 86  6 11  0 28 59.0800000  0  4G 6G 8G 9G11
  20428876.811    20428879.001    -2759610.025 9  -1827448.068 8
  22753044.501    22753046.209     8760359.492 8   7147230.988 8
  21592626.046    21592626.962    -9003482.767 9  -6576920.966 8
  20564044.268    20564046.588    -2238830.141 9  -1352629.976 8
 86  6 11  0 29  5.0800000  0  4G 6G 8G 9G11
  20428643.856    20428644.036    -2760836.735 9  -1828403.948 8
  22756892.974    22756894.039     8780581.136 9   7162988.097 8
  21589622.233    21589623.851    -9019265.193 9  -6589218.957 8
  20564395.246    20564396.304    -2236986.508 9  -1351193.384 7
 86  6 11  0 29 11.0800000  0  4G 6G 8G 9G11
  20428414.013    20428415.644    -2762045.349 9  -1829345.716 7
  22760742.945    22760743.576     8800812.096 8   7178752.476 8
  21586620.507    21586621.617    -9035039.217 9  -6601510.408 8
  20564750.659    20564752.245    -2235120.635 9  -1349739.449 7
 86  6 11  0 29 17.0800000  0  4G 6G 8G 9G11
  20428186.336    20428188.857    -2763235.900 9  -1830273.424 7
  22764593.943    22764595.835     8821052.301 8   7194524.061 8
  21583620.488    21583622.259    -9050805.111 9  -6613795.510 8
  20565109.449    20565111.082    -2233232.529 9  -1348268.206 7
 86  6 11  0 29 23.0800000  0  4G 6G 8G 9G11
  20427963.587    20427964.783    -2764408.389 8  -1831187.054 7
  22768447.265    22768448.748     8841301.739 8   7210302.849 9
  21580621.630    21580624.454    -9066562.741 9  -6626074.180 8
  20565473.133    20565473.620    -2231322.222 9  -1346779.649 7
 86  6 11  0 29 29.0800000  0  4G 6G 8G 9G11
  20427744.131    20427744.777    -2765562.705 9  -1832086.520 7
  22772301.970    22772305.721     8861560.464 9   7226088.852 8
  21577625.692    21577627.082    -9082312.079 9  -6638346.396 8
  20565840.706    20565842.282    -2229389.675 9  -1345273.778 7
 86  6 11  0 29 35.0800000  0  4G 6G 8G 9G11
  20427528.044    20427529.412    -2766698.885 9  -1832971.854 7
  22776159.335    22776160.815     8881828.387 9   7241882.036 9
  21574630.583    21574631.370    -9098052.956 9  -6650612.007 8
  20566212.889    20566213.812    -2227434.878 9  -1343750.554 6
 86  6 11  0 29 41.0800000  0  4G 6G 8G 9G11
  20427315.438    20427316.940    -2767816.829 9  -1833842.974 7
  22780017.265    22780019.994     8902105.556 9   7257682.406 7
  21571636.963    21571636.361    -9113785.529 9  -6662871.154 8
  20566589.764    20566591.467    -2225457.865 9  -1342210.030 7
 86  6 11  0 29 47.0800000  0  4G 6G 8G 9G11
  20427106.360    20427107.757    -2768916.631 9  -1834699.979 7
  22783878.314    22783880.223     8922391.846 9   7273489.898 8
  21568644.092    21568644.495    -9129509.762 9  -6675123.809 7
  20566969.533    20566970.048    -2223458.681 9  -1340652.224 8
 86  6 11  0 29 53.0800000  0  4G 6G 8G 9G11
  20426900.289    20426901.210    -2769998.183 9  -1835542.741 8
  22787741.388    22787742.368     8942687.284 9   7289304.526 9
  21565653.265    21565654.366    -9145225.622 9  -6687369.928 8
  20567353.391    20567355.696    -2221437.256 8  -1339077.094 8
 86  6 11  0 29 59.0800000  0  4G 6G 8G 9G11
  20426698.853    20426698.485    -2771061.540 9  -1836371.323 8
  22791604.921    22791606.461     8962991.957 9   7305126.349 8
  21562663.972    21562664.869    -9160932.986 9  -6699609.429 9
  20567742.946    20567745.368    -2219393.580 9  -1337484.620 8
 86  6 11  0 30  5.0800000  0  4G 6G 8G 9G11
  20426499.285    20426500.731    -2772106.655 9  -1837185.710 7
  22795469.671    22795471.775     8983305.700 9   7320955.226 8
  21559676.899    21559678.395    -9176631.792 9  -6711842.273 8
  20568135.563    20568136.876    -2217327.677 9  -1335874.815 7
 86  6 11  0 30 11.0800000  0  4G 6G 8G 9G11
  20426304.337    20426305.147    -2773133.482 9  -1837985.831 8
  22799337.564    22799338.889     9003628.560 9   7336791.219 8
  21556691.103    21556692.167    -9192322.176 9  -6724068.546 8
  20568532.527    20568535.074    -2215239.605 9  -1334247.757 7
 86  6 11  0 30 17.0800000  0  4G 6G 8G 9G11
  20426112.365    20426112.994    -2774141.982 9  -1838771.670 7
  22803206.890    22803206.791     9023960.457 9   7352634.250 7
  21553705.628    21553708.391    -9208004.053 9  -6736288.175 8
  20568935.248    20568937.139    -2213129.378 8  -1332603.412 7
 86  6 11  0 30 23.0800000  0  4G 6G 8G 9G11
  20425923.521    20425924.052    -2775132.258 9  -1839543.326 7
  22807077.972    22807078.268     9044301.395 9   7368484.321 7
  21550723.409    21550725.554    -9223677.410 9  -6748501.193 9
  20569340.713    20569343.016    -2210996.970 9  -1330941.811 8
 86  6 11  0 30 29.0800000  0  4G 6G 8G 9G11
  20425738.779    20425739.186    -2776104.246 9  -1840300.716 8
  22810949.562    22810951.652     9064651.319 9   7384341.411 8
  21547742.815    21547744.249    -9239342.315 9  -6760707.611 8
  20569749.813    20569752.375    -2208842.478 9  -1329262.988 7
 86  6 11  0 30 35.0800000  0  4G 6G 8G 9G11
  20425557.291    20425558.984    -2777057.955 9  -1841043.857 8
  22814823.182    22814825.035     9085010.164 9   7400205.431 8
  21544763.046    21544765.092    -9254998.609 9  -6772907.312 9
  20570164.581    20570165.367    -2206665.880 9  -1327566.923 8
 86  6 11  0 30 41.0800000  0  4G 6G 8G 9G11
  20425379.894    20425379.449    -2777993.351 9  -1841772.745 8
  22818700.407    22818701.304     9105377.975 9   7416076.440 8
  21541785.893    21541788.087    -9270646.364 9  -6785100.356 8
  20570582.835    20570585.413    -2204467.202 9  -1325853.662 7
 86  6 11  0 30 47.0800000  0  4G 6G 8G 9G11
  20425205.293    20425205.040    -2778910.472 9  -1842487.379 8
  22822577.800    22822578.507     9125754.663 9   7431954.370 7
  21538809.524    21538810.407    -9286285.506 9  -6797286.707 8
  20571005.503    20571008.420    -2202246.449 9  -1324123.222 7
 86  6 11  0 30 53.0800000  0  4G 6G 8G 9G11
  20425035.167    20425035.365    -2779809.267 9  -1843187.736 7
  22826456.564    22826459.046     9146140.245 9   7447839.226 8
  21535835.192    21535837.721    -9301916.093 9  -6809466.371 8
  20571432.117    20571434.452    -2200003.707 9  -1322375.624 8
 86  6 11  0 30 59.0800000  0  4G 6G 8G 9G11
  20424867.024    20424868.107    -2780689.679 9  -1843873.781 7
  22830337.631    22830338.786     9166534.786 9   7463731.076 8
  21532863.035    21532864.509    -9317537.959 9  -6821639.254 9
  20571863.312    20571866.273    -2197738.796 9  -1320610.755 7
 86  6 11  0 31  5.0800000  0  4G 6G 8G 9G11
  20424701.849    20424703.650    -2781551.750 9  -1844545.528 8
  22834221.069    22834220.341     9186938.071 9   7479629.750 8
  21529891.028    21529893.310    -9333151.240 9  -6833805.453 8
  20572298.857    20572300.431    -2195451.815 9  -1318828.710 6
 86  6 11  0 31 11.0800000  0  4G 6G 8G 9G11
  20424542.557    20424542.872    -2782395.427 9  -1845202.940 7
  22838104.590    22838105.485     9207350.171 9   7495535.270 8
  21526922.425    21526922.617    -9348755.871 9  -6845964.902 8
  20572737.893    20572739.481    -2193142.777 9  -1317029.442 6
 86  6 11  0 31 17.0800000  0  4G 6G 8G 9G11
  20424384.181    20424385.013    -2783220.804 9  -1845846.087 8
  22841989.758    22841992.749     9227771.025 9   7511447.619 8
  21523954.029    21523955.903    -9364351.803 9  -6858117.562 8
  20573182.306    20573184.526    -2190811.751 9  -1315213.052 7
 86  6 11  0 31 23.0800000  0  4G 6G 8G 9G11
  20424231.035    20424231.195    -2784027.749 9  -1846474.883 7
  22845877.343    22845879.612     9248200.615 9   7527366.769 8
  21520988.484    21520990.026    -9379938.971 9  -6870263.419 8
  20573630.556    20573630.643    -2188458.702 9  -1313379.519 8
 86  6 11  0 31 29.0800000  0  4G 6G 8G 9G11
  20424081.455    20424082.717    -2784816.279 8  -1847089.319 7
  22849768.127    22849769.202     9268638.983 9   7543292.759 9
  21518023.247    21518025.376    -9395517.491 9  -6882402.531 8
  20574082.526    20574084.056    -2186083.623 8  -1311528.799 8
 86  6 11  0 31 35.0800000  0  4G 6G 8G 9G11
  20423935.121    20423935.508    -2785586.380 9  -1847689.393 7
  22853657.715    22853659.233     9289086.023 9   7559225.524 8
  21515060.345    21515062.351    -9411087.273 9  -6894534.821 8
  20574538.563    20574539.480    -2183686.535 9  -1309660.926 7
 86  6 11  0 31 41.0800000  0  4G 6G 8G 9G11
  20423791.180    20423792.834    -2786338.060 9  -1848275.122 7
  22857550.369    22857552.707     9309541.782 9   7575165.068 8
  21512099.974    21512101.344    -9426648.224 9  -6906660.236 8
  20574998.032    20575000.004    -2181267.451 9  -1307775.934 8
 86  6 11  0 31 47.0800000  0  4G 6G 8G 9G11
  20423651.358    20423652.861    -2787071.228 9  -1848846.430 7
  22861445.604    22861446.928     9330006.193 9   7591111.368 8
  21509140.483    21509142.171    -9442200.433 9  -6918778.843 8
  20575463.340    20575464.112    -2178826.377 9  -1305873.811 8
 86  6 11  0 31 53.0800000  0  4G 6G 8G 9G11
  20423515.381    20423516.189    -2787785.950 9  -1849403.357 7
  22865340.299    22865342.530     9350479.250 9   7607064.394 8
  21506181.972    21506183.205    -9457743.834 9  -6930890.584 9
  20575931.508    20575932.177    -2176363.342 9  -1303954.567 8
 86  6 11  0 31 59.0800000  0  4G 6G 8G 9G11
  20423382.919    20423384.627    -2788482.186 9  -1849945.878 7
  22869239.420    22869239.982     9370960.884 9   7623024.101 8
  21503226.271    21503227.682    -9473278.363 9  -6942995.391 7
  20576404.029    20576406.487    -2173878.356 8  -1302018.197 8
 86  6 11  0 32  5.0800000  0  4G 6G 8G 9G11
  20423254.676    20423254.625    -2789159.903 9  -1850473.968 8
  22873137.565    22873138.875     9391451.101 8   7638990.492 8
  21500271.240    21500272.861    -9488803.942 9  -6955093.261 8
  20576880.551    20576882.926    -2171371.372 8  -1300064.714 7
 86  6 11  0 32 11.0800000  0  4G 6G 8G 9G11
  20423128.853    20423130.267    -2789819.070 9  -1850987.607 7
  22877039.510    22877040.948     9411949.961 9   7654963.618 8
  21497319.608    21497320.569    -9504320.606 9  -6967184.160 8
  20577363.003    20577364.633    -2168842.407 8  -1298094.093 8
 86  6 11  0 32 17.0800000  0  4G 6G 8G 9G11
  20423006.937    20423007.199    -2790459.724 9  -1851486.830 7
  22880941.220    22880944.742     9432457.337 9   7670943.391 8
  21494368.091    21494369.556    -9519828.423 8  -6979268.166 7
  20577848.484    20577849.799    -2166291.495 9  -1296106.372 8
 86  6 11  0 32 23.0800000  0  4G 6G 8G 9G11
  20422888.764    20422889.811    -2791081.879 9  -1851971.610 6
  22884845.210    22884846.857     9452973.170 9   7686929.744 8
  21491418.572    21491419.127    -9535327.356 9  -6991345.258 8
  20578337.544    20578339.588    -2163718.766 9  -1294101.641 7
 86  6 11  0 32 29.0800000  0  4G 6G 8G 9G11
  20422774.143    20422774.507    -2791685.445 9  -1852441.917 7
  22888749.380    22888752.345     9473497.497 9   7702922.717 8
  21488470.901    21488472.171    -9550817.291 9  -7003415.340 8
  20578830.984    20578833.904    -2161124.112 9  -1292079.838 8
 86  6 11  0 32 35.0800000  0  4G 6G 8G 9G11
  20422661.722    20422662.267    -2792270.446 8  -1852897.774 7
  22892657.875    22892658.190     9494030.313 9   7718922.318 8
  21485524.948    21485526.195    -9566298.258 9  -7015478.424 8
  20579329.544    20579331.316    -2158507.495 9  -1290040.926 6
 86  6 11  0 32 41.0800000  0  4G 6G 8G 9G11
  20422554.651    20422555.581    -2792836.895 9  -1853339.156 7
  22896566.880    22896568.089     9514571.485 9   7734928.425 7
  21482580.230    21482581.829    -9581770.289 9  -7027534.543 7
  20579831.111    20579833.514    -2155869.003 8  -1287984.941 8
 86  6 11  0 32 47.0800000  0  4G 6G 8G 9G11
  20422450.754    20422451.148    -2793384.697 9  -1853766.014 8
  22900477.245    22900479.493     9535121.068 9   7750941.085 8
  21479638.443    21479639.759    -9597233.208 9  -7039583.572 8
  20580338.346    20580339.375    -2153208.568 9  -1285911.888 9
 86  6 11  0 32 53.0800000  0  4G 6G 8G 9G11
  20422349.028    20422349.561    -2793913.927 9  -1854178.400 7
  22904389.260    22904391.785     9555679.090 9   7766960.307 8
  21476697.721    21476698.820    -9612687.108 9  -7051625.572 9
  20580849.184    20580849.754    -2150526.264 9  -1283821.779 8
 86  6 11  0 32 59.0800000  0  4G 6G 8G 9G11
  20422252.277    20422253.794    -2794424.570 9  -1854576.320 7
  22908301.899    22908305.973     9576245.424 9   7782986.015 9
  21473757.480    21473759.414    -9628131.969 9  -7063660.527 8
  20581362.855    20581364.242    -2147822.120 9  -1281714.648 8
 86  6 11  0 33  5.0800000  0  4G 6G 8G 9G11
  20422159.475    20422160.161    -2794916.546 9  -1854959.664 8
  22912217.504    22912220.321     9596820.112 9   7799018.225 9
  21470821.039    21470823.002    -9643567.718 8  -7075688.375 8
  20581881.964    20581882.165    -2145096.055 9  -1279590.451 8
 86  6 11  0 33 11.0800000  0  4G 6G 8G 9G11
  20422068.660    20422070.185    -2795389.860 9  -1855328.482 7
  22916134.738    22916136.949     9617403.115 9   7815056.915 9
  21467884.415    21467887.233    -9658994.300 9  -7087709.075 8
  20582404.763    20582406.285    -2142348.194 9  -1277449.249 7
 86  6 11  0 33 17.0800000  0  4G 6G 8G 9G11
  20421982.558    20421982.699    -2795844.526 9  -1855682.774 7
  22920052.680    22920055.287     9637994.346 9   7831102.033 7
  21464950.945    21464952.635    -9674411.867 9  -7099722.759 8
  20582931.455    20582932.705    -2139578.513 8  -1275291.058 7
 86  6 11  0 33 23.0800000  0  4G 6G 8G 9G11
  20421899.364    20421899.913    -2796280.550 9  -1856022.528 7
  22923973.034    22923974.815     9658593.866 9   7847153.598 8
  21462019.369    21462020.456    -9689820.249 9  -7111729.284 8
  20583462.447    20583463.441    -2136787.083 8  -1273115.922 8
 86  6 11  0 33 29.0800000  0  4G 6G 8G 9G11
  20421820.204    20421820.935    -2796697.849 9  -1856347.703 8
  22927894.439    22927896.865     9679201.566 9   7863211.538 8
  21459088.892    21459090.797    -9705219.455 9  -7123728.677 9
  20583998.068    20583999.112    -2133973.912 9  -1270923.830 8
 86  6 11  0 33 35.0800000  0  4G 6G 8G 9G11
  20421743.887    20421745.105    -2797096.526 9  -1856658.339 8
  22931817.549    22931819.522     9699817.488 9   7879275.879 8
  21456160.522    21456162.687    -9720609.550 9  -7135720.956 8
  20584537.466    20584539.712    -2131138.941 9  -1268714.769 8
 86  6 11  0 33 41.0800000  0  4G 6G 8G 9G11
  20421671.579    20421672.504    -2797476.415 9  -1856954.372 8
  22935741.447    22935745.088     9720441.613 9   7895346.618 8
  21453233.411    21453234.440    -9735990.371 9  -7147705.997 8
  20585081.131    20585082.493    -2128282.188 9  -1266488.730 7
 86  6 11  0 33 47.0800000  0  4G 6G 8G 9G11
  20421603.393    20421603.318    -2797837.569 9  -1857235.795 7
  22939667.609    22939670.083     9741073.921 8   7911423.741 8
  21450306.837    21450309.232    -9751361.882 9  -7159683.792 7
  20585629.459    20585630.474    -2125403.671 9  -1264245.724 8
 86  6 11  0 33 53.0800000  0  4G 6G 8G 9G11
  20421538.787    20421538.538    -2798180.018 9  -1857502.635 7
  22943596.189    22943597.712     9761714.313 9   7927507.152 8
  21447385.152    21447386.113    -9766724.273 9  -7171654.473 8
  20586181.394    20586182.497    -2122503.435 9  -1261985.808 7
 86  6 11  0 33 59.0800000  0  4G 6G 8G 9G11
  20421477.125    20421476.690    -2798503.775 9  -1857754.902 8
  22947525.544    22947527.969     9782362.765 8   7943596.848 9
  21444463.684    21444465.547    -9782077.343 9  -7183617.916 9
  20586736.363    20586738.593    -2119581.473 9  -1259708.964 8
 86  6 11  0 34  5.0800000  0  4G 6G 8G 9G11
  20421418.286    20421419.751    -2798808.727 9  -1857992.553 8
  22951456.695    22951458.535     9803019.299 9   7959692.848 8
  21441542.789    21441545.241    -9797421.166 9  -7195574.124 8
  20587297.255    20587298.973    -2116637.735 9  -1257415.123 7
 86  6 11  0 34 11.0800000  0  4G 6G 8G 9G11
  20421363.852    20421365.336    -2799094.906 9  -1858215.554 8
  22955388.232    22955391.749     9823683.892 8   7975795.104 8
  21438625.648    21438627.216    -9812755.567 9  -7207523.004 8
  20587860.894    20587861.883    -2113672.247 9  -1255104.356 8
 86  6 11  0 34 17.0800000  0  4G 6G 8G 9G11
  20421314.064    20421312.764    -2799362.395 9  -1858423.967 7
  22959322.185    22959323.894     9844356.411 9   7991903.560 9
  21435708.668    21435711.077    -9828080.722 9  -7219464.683 8
  20588430.431    20588431.144    -2110685.127 9  -1252776.731 7
 86  6 11  0 34 23.0800000  0  4G 6G 8G 9G11
  20421266.292    20421266.276    -2799610.993 9  -1858617.680 7
  22963257.295    22963260.418     9865036.962 8   8008018.270 9
  21432794.652    21432796.022    -9843396.544 9  -7231399.082 8
  20589001.852    20589004.130    -2107676.312 9  -1250432.195 8
 86  6 11  0 34 29.0800000  0  4G 6G 8G 9G11
  20421222.980    20421222.866    -2799840.783 9  -1858796.743 7
  22967195.102    22967197.145     9885725.521 9   8024139.218 9
  21429881.358    21429883.573    -9858702.881 9  -7243326.098 8
  20589578.000    20589581.435    -2104645.740 9  -1248070.728 8
 86  6 11  0 34 35.0800000  0  4G 6G 8G 9G11
  20421183.391    20421182.657    -2800051.734 9  -1858961.115 7
  22971133.215    22971136.000     9906422.044 9   8040266.362 8
  21426970.657    21426971.269    -9873999.893 9  -7255245.836 8
  20590160.100    20590160.813    -2101593.565 8  -1245692.406 7
 86  6 11  0 34 41.0800000  0  4G 6G 8G 9G11
  20421145.901    20421146.435    -2800243.864 9  -1859110.835 7
  22975072.650    22975074.764     9927126.462 9   8056399.661 9
  21424061.546    21424062.762    -9889287.410 9  -7267158.200 8
  20590744.488    20590745.777    -2098519.713 9  -1243297.191 8
 86  6 11  0 34 47.0800000  0  4G 6G 8G 9G11
  20421112.763    20421112.370    -2800417.106 9  -1859245.827 8
  22979014.648    22979017.058     9947838.793 9   8072539.136 8
  21421154.914    21421156.144    -9904565.536 9  -7279063.221 8
  20591334.285    20591334.483    -2095424.187 9  -1240885.087 8
 86  6 11  0 34 53.0800000  0  4G 6G 8G 9G11
  20421083.380    20421084.035    -2800571.473 9  -1859366.112 7
  22982957.224    22982959.118     9968559.002 9   8088684.755 8
  21418248.763    21418250.262    -9919834.159 9  -7290960.857 8
  20591925.912    20591928.299    -2092307.061 9  -1238456.180 9
 86  6 11  0 34 59.0800000  0  4G 6G 8G 9G11
  20421057.891    20421058.894    -2800706.955 9  -1859471.689 7
  22986901.245    22986903.991     9989287.047 8   8104836.464 9
  21415344.736    21415346.069    -9935093.278 9  -7302851.074 8
  20592524.295    20592525.941    -2089168.337 9  -1236010.404 8
 86  6 11  0 35  5.0800000  0  4G 6G 8G 9G11
  20421034.843    20421035.833    -2800823.575 9  -1859562.556 7
  22990847.020    22990850.612    10010022.877 8   8120994.245 8
  21412442.854    21412445.338    -9950342.865 9  -7314733.871 8
  20593124.852    20593128.617    -2086008.027 9  -1233547.830 7
 86  6 11  0 35 11.0800000  0  4G 6G 8G 9G11
  20421017.058    20421018.016    -2800921.271 9  -1859638.682 7
  22994794.933    22994796.520    10030766.560 9   8137158.131 8
  21409542.884    21409545.125    -9965582.951 8  -7326609.253 8
  20593730.360    20593733.837    -2082826.073 9  -1231068.395 8
 86  6 11  0 35 17.0800000  0  4G 6G 8G 9G11
  20421001.156    20421001.651    -2801000.168 9  -1859700.163 7
  22998743.856    22998746.101    10051517.911 9   8153328.013 8
  21406644.815    21406645.851    -9980813.581 9  -7338477.281 7
  20594340.019    20594342.291    -2079622.621 9  -1228572.187 7
 86  6 11  0 35 23.0800000  0  4G 6G 8G 9G11
  20420990.465    20420991.168    -2801060.004 9  -1859746.788 8
  23002694.332    23002696.477    10072277.153 9   8169504.044 9
  21403748.309    21403750.243    -9996034.531 9  -7350337.744 8
  20594954.284    20594957.119    -2076397.412 9  -1226059.038 7
 86  6 11  0 35 29.0800000  0  4G 6G 8G 9G11
  20420983.125    20420982.374    -2801101.031 9  -1859778.748 7
  23006645.405    23006648.311    10093043.969 9   8185685.975 8
  21400853.279    21400856.944   -10011245.993 9  -7362190.839 7
  20595571.640    20595575.190    -2073150.796 9  -1223529.206 9
 86  6 11  0 35 35.0800000  0  4G 6G 8G 9G11
  20420978.356    20420978.294    -2801123.096 9  -1859795.961 8
  23010598.821    23010601.467    10113818.481 8   8201873.900 8
  21397960.561    21397961.418   -10026447.916 8  -7374036.478 8
  20596193.975    20596196.508    -2069882.619 9  -1220982.575 8
 86  6 11  0 35 41.0800000  0  4G 6G 8G 9G11
  20420978.145    20420977.118    -2801126.124 9  -1859798.324 7
  23014552.995    23014556.817    10134600.742 9   8218067.861 8
  21395070.836    21395071.382   -10041640.020 9  -7385874.479 8
  20596819.889    20596822.250    -2066592.791 9  -1218419.083 7
 86  6 11  0 35 47.0800000  0  4G 6G 8G 9G11
  20420980.798    20420980.432    -2801110.218 9  -1859785.928 7
  23018509.458    23018513.129    10155390.605 9   8234267.742 8
  21392181.347    21392182.371   -10056822.498 9  -7397704.988 7
  20597449.923    20597451.266    -2063281.468 8  -1215838.830 8
 86  6 11  0 35 53.0800000  0  4G 6G 8G 9G11
  20420987.609    20420988.123    -2801075.320 9  -1859758.735 7
  23022467.081    23022469.335    10176188.065 9   8250473.539 9
  21389294.210    21389295.534   -10071995.278 9  -7409527.932 8
  20598084.364    20598086.785    -2059948.644 9  -1213241.820 8
 86  6 11  0 35 59.0800000  0  4G 6G 8G 9G11
  20420997.271    20420997.763    -2801021.282 9  -1859716.615 7
  23026426.906    23026429.789    10196993.241 9   8266685.353 9
  21386408.778    21386410.151   -10087158.216 9  -7421343.210 7
  20598722.501    20598725.045    -2056594.231 8  -1210628.000 8
 86  6 11  0 36  5.0800000  0  4G 6G 8G 9G11
  20421011.696    20421011.084    -2800948.278 9  -1859659.737 8
  23030388.431    23030389.946    10217805.913 8   8282903.026 9
  21383525.865    21383525.807   -10102311.544 9  -7433151.010 8
  20599365.555    20599367.771    -2053218.423 9  -1207997.485 7
 86  6 11  0 36 11.0800000  0  4G 6G 8G 9G11
  20421029.197    20421029.179    -2800856.179 9  -1859587.973 7
  23034348.649    23034351.352    10238626.233 9   8299126.632 9
  21380644.360    21380645.295   -10117455.027 9  -7444951.124 8
  20600011.644    20600013.751    -2049821.073 9  -1205350.207 8
 86  6 11  0 36 17.0800000  0  4G 6G 8G 9G11
  20421049.594    20421051.632    -2800745.161 9  -1859501.473 7
  23038311.234    23038315.605    10259453.940 8   8315356.013 8
  21377763.565    21377764.926   -10132588.831 9  -7456743.688 8
  20600661.910    20600664.560    -2046402.312 9  -1202686.244 8
 86  6 11  0 36 23.0800000  0  4G 6G 8G 9G11
  20421074.217    20421076.064    -2800615.001 9  -1859400.053 7
  23042276.609    23042281.114    10280289.230 9   8331591.292 9
  21374885.288    21374886.693   -10147712.744 9  -7468528.555 8
  20601316.873    20601318.375    -2042962.051 9  -1200005.517 9
 86  6 11  0 36 29.0800000  0  4G 6G 8G 9G11
  20421102.211    20421104.847    -2800465.803 8  -1859283.793 7
  23046244.383    23046246.019    10301131.975 8   8347832.383 9
  21372009.530    21372010.691   -10162826.871 9  -7480305.803 9
  20601976.238    20601976.797    -2039500.361 9  -1197308.097 7
 86  6 11  0 36 35.0800000  0  4G 6G 8G 9G11
  20421134.399    20421135.055    -2800297.478 9  -1859152.633 6
  23050210.630    23050213.149    10321982.104 8   8364079.226 8
  21369135.557    21369135.187   -10177931.180 9  -7492075.389 8
  20602639.187    20602640.802    -2036017.314 9  -1194594.026 8
 86  6 11  0 36 41.0800000  0  4G 6G 8G 9G11
  20421169.544    20421172.234    -2800110.129 9  -1859006.656 7
  23054180.617    23054182.085    10342839.625 8   8380331.848 8
  21366262.706    21366264.655   -10193025.633 9  -7503837.313 7
  20603305.478    20603306.740    -2032512.943 9  -1191863.340 7
 86  6 11  0 36 47.0800000  0  4G 6G 8G 9G11
  20421209.672    20421211.433    -2799903.607 9  -1858845.728 8
  23058150.540    23058153.744    10363704.647 8   8396590.279 8
  21363391.727    21363393.804   -10208110.120 9  -7515591.454 8
  20603976.465    20603977.855    -2028987.039 9  -1189115.895 8
 86  6 11  0 36 53.0800000  0  4G 6G 8G 9G11
  20421252.684    20421252.812    -2799678.007 9  -1858669.926 7
  23062122.994    23062125.296    10384577.026 8   8412854.460 9
  21360523.352    21360524.327   -10223184.731 9  -7527337.894 7
  20604651.919    20604653.024    -2025439.721 9  -1186351.757 7
 86  6 11  0 36 59.0800000  0  4G 6G 8G 9G11
  20421298.683    20421299.517    -2799433.229 9  -1858479.202 7
  23066095.456    23066098.158    10405456.779 7   8429124.385 9
  21357656.855    21357658.663   -10238249.349 9  -7539076.551 8
  20605331.321    20605331.707    -2021871.001 9  -1183570.931 8
 86  6 11  0 37  5.0800000  0  4G 6G 8G 9G11
  20421349.243    20421351.632    -2799169.314 9  -1858273.547 8
  23070070.962    23070072.981    10426343.772 8   8445399.945 8
  21354792.051    21354793.330   -10253304.060 9  -7550807.504 8
  20606014.444    20606015.727    -2018280.969 9  -1180773.499 7
 86  6 11  0 37 11.0800000  0  4G 6G 8G 9G11
  20421403.618    20421404.310    -2798886.234 8  -1858052.967 7
  23074047.194    23074050.275    10447238.053 7   8461681.202 8
  21351929.091    21351930.761   -10268348.874 9  -7562530.726 8
  20606701.913    20606702.357    -2014669.601 9  -1177959.440 8
 86  6 11  0 37 17.0800000  0  4G 6G 8G 9G11
  20421460.663    20421462.196    -2798583.972 9  -1857817.450 8
  23078023.674    23078026.384    10468139.666 8   8477968.161 9
  21349068.123    21349069.616   -10283383.568 9  -7574246.064 9
  20607392.046    20607394.293    -2011036.819 9  -1175128.705 7
 86  6 11  0 37 23.0800000  0  4G 6G 8G 9G11
  20421521.868    20421523.542    -2798262.564 9  -1857566.995 8
  23082001.477    23082005.538    10489048.508 8   8494260.762 9
  21346207.967    21346209.949   -10298408.288 9  -7585953.655 8
  20608087.133    20608089.648    -2007382.714 9  -1172281.352 9
 86  6 11  0 37 29.0800000  0  4G 6G 8G 9G11
  20421586.232    20421588.191    -2797922.011 9  -1857301.640 8
  23085981.067    23085985.830    10509964.503 8   8510558.920 9
  21343351.245    21343353.339   -10313423.008 9  -7597653.421 8
  20608786.821    20608789.212    -2003707.352 8  -1169417.442 8
 86  6 11  0 37 35.0800000  0  4G 6G 8G 9G11
  20421655.486    20421656.499    -2797562.225 9  -1857021.273 8
  23089964.224    23089967.207    10530887.780 8   8526862.768 8
  21340495.806    21340497.823   -10328427.678 9  -7609345.371 8
  20609489.892    20609491.895    -2000010.671 9  -1166536.913 7
 86  6 11  0 37 41.0800000  0  4G 6G 8G 9G11
  20421728.585    20421727.767    -2797183.266 9  -1856725.984 7
  23093947.808    23093949.767    10551818.178 8   8543172.155 8
  21337643.160    21337644.458   -10343422.241 9  -7621029.435 8
  20610198.282    20610199.554    -1996292.683 9  -1163639.764 7
 86  6 11  0 37 47.0800000  0  4G 6G 8G 9G11
  20421802.881    20421803.001    -2796785.032 9  -1856415.658 7
  23097932.348    23097934.729    10572755.695 8   8559487.101 8
  21334791.658    21334793.357   -10358406.724 9  -7632705.648 7
  20610909.020    20610912.294    -1992553.452 9  -1160726.085 9
 86  6 11  0 37 53.0800000  0  4G 6G 8G 9G11
  20421881.352    20421881.894    -2796367.532 9  -1856090.344 8
  23101918.095    23101920.648    10593700.378 8   8575807.619 9
  21331941.874    21331943.393   -10373381.031 9  -7644373.936 8
  20611625.740    20611626.426    -1988792.890 8  -1157795.788 8
 86  6 11  0 37 59.0800000  0  4G 6G 8G 9G11
  20421965.660    20421965.673    -2795930.757 8  -1855749.991 8
  23105904.400    23105907.485    10614652.208 9   8592133.708 9
  21329093.944    21329095.257   -10388345.192 9  -7656034.313 8
  20612345.404    20612347.110    -1985011.032 9  -1154848.883 8
 86  6 11  0 38  5.0800000  0  4G 6G 8G 9G11
  20422052.974    20422054.120    -2795474.733 9  -1855394.655 7
  23109893.033    23109895.613    10635611.082 8   8608465.287 9
  21326248.767    21326249.862   -10403299.181 9  -7667686.760 8
  20613068.280    20613069.964    -1981207.941 9  -1151885.427 8
 86  6 11  0 38 11.0800000  0  4G 6G 8G 9G11
  20422142.857    20422143.544    -2794999.428 9  -1855024.298 7
  23113882.838    23113884.780    10656576.987 8   8624802.351 9
  21323405.152    21323405.072   -10418242.980 9  -7679331.281 7
  20613795.527    20613797.406    -1977383.676 9  -1148905.492 8
 86  6 11  0 38 17.0800000  0  4G 6G 8G 9G11
  20422237.638    20422237.171    -2794504.855 9  -1854638.901 7
  23117873.394    23117876.043    10677549.953 9   8641144.916 8
  21320562.660    21320563.687   -10433176.553 9  -7690967.820 8
  20614527.674    20614529.865    -1973538.170 9  -1145908.990 8
 86  6 11  0 38 23.0800000  0  4G 6G 8G 9G11
  20422335.341    20422336.690    -2793990.983 9  -1854238.478 7
  23121866.998    23121869.439    10698529.867 9   8657492.884 8
  21317723.682    21317724.826   -10448099.922 9  -7702596.415 8
  20615262.796    20615265.786    -1969671.490 9  -1142896.005 8
 86  6 11  0 38 29.0800000  0  4G 6G 8G 9G11
  20422437.184    20422437.062    -2793457.785 9  -1853823.009 7
  23125859.234    23125862.474    10719516.729 8   8673846.279 9
  21314885.414    21314886.667   -10463013.007 9  -7714217.004 8
  20616002.922    20616006.487    -1965783.565 8  -1139866.447 8
 86  6 11  0 38 35.0800000  0  4G 6G 8G 9G11
  20422542.280    20422542.322    -2792905.273 9  -1853392.478 8
  23129853.583    23129858.230    10740510.563 8   8690205.089 8
  21312050.053    21312049.955   -10477915.816 9  -7725829.586 7
  20616747.578    20616748.703    -1961874.469 9  -1136820.400 7
 86  6 11  0 38 41.0800000  0  4G 6G 8G 9G11
  20422650.152    20422651.849    -2792333.408 9  -1852946.867 8
  23133850.827    23133854.491    10761511.338 9   8706569.327 9
  21309215.688    21309216.858   -10492808.302 9  -7737434.116 7
  20617495.631    20617497.952    -1957944.196 9  -1133757.860 8
 86  6 11  0 38 47.0800000  0  4G 6G 8G 9G11
  20422762.565    20422762.725    -2791742.241 9  -1852486.224 7
  23137848.809    23137850.936    10782518.940 9   8722938.878 8
  21306383.704    21306385.020   -10507690.531 9  -7749030.664 7
  20618246.951    20618249.226    -1953992.894 9  -1130678.919 8
 86  6 11  0 38 53.0800000  0  4G 6G 8G 9G11
  20422878.910    20422879.961    -2791131.733 9  -1852010.503 8
  23141847.059    23141850.181    10803533.404 8   8739313.792 9
  21303552.494    21303554.802   -10522562.358 9  -7760619.086 8
  20619002.220    20619004.949    -1950020.481 9  -1127583.527 9
 86  6 11  0 38 59.0800000  0  4G 6G 8G 9G11
  20422999.294    20423000.085    -2790501.858 9  -1851519.688 8
  23145847.581    23145850.050    10824554.691 9   8755693.991 9
  21300725.661    21300726.639   -10537423.941 9  -7772199.531 8
  20619763.357    20619764.999    -1946026.958 9  -1124471.696 9
 86  6 11  0 39  5.0800000  0  4G 6G 8G 9G11
  20423122.438    20423123.840    -2789852.618 9  -1851013.795 7
  23149849.067    23149851.637    10845582.823 8   8772079.538 8
  21297898.989    21297899.784   -10552275.101 9  -7783771.866 7
  20620525.893    20620529.330    -1942012.330 9  -1121343.406 8
 86  6 11  0 39 11.0800000  0  4G 6G 8G 9G11
  20423249.695    20423251.118    -2789183.999 9  -1850492.789 8
  23153852.503    23153855.450    10866617.688 8   8788470.328 8
  21295074.978    21295075.773   -10567115.838 9  -7795336.069 8
  20621294.241    20621296.633    -1937976.672 9  -1118198.738 7
 86  6 11  0 39 17.0800000  0  4G 6G 8G 9G11
  20423381.323    20423381.320    -2788495.971 9  -1849956.666 7
  23157855.941    23157858.975    10887659.354 9   8804866.426 9
  21292253.371    21292254.427   -10581946.149 9  -7806892.166 8
  20622065.961    20622069.283    -1933919.935 8  -1115037.637 7
 86  6 11  0 39 23.0800000  0  4G 6G 8G 9G11
  20423515.339    20423516.971    -2787788.543 8  -1849405.430 7
  23161862.165    23161864.763    10908707.777 8   8821267.786 8
  21289433.178    21289434.445   -10596766.005 9  -7818440.101 8
  20622842.926    20622844.095    -1929842.117 9  -1111860.132 9
 86  6 11  0 39 29.0800000  0  4G 6G 8G 9G11
  20423653.527    20423654.593    -2787061.636 9  -1848839.013 8
  23165868.726    23165871.430    10929762.908 9   8837674.374 8
  21286614.794    21286616.527   -10611575.340 9  -7829979.839 8
  20623622.059    20623624.406    -1925743.303 9  -1108666.247 8
 86  6 11  0 39 35.0800000  0  4G 6G 8G 9G11
  20423795.771    20423795.902    -2786315.342 9  -1848257.485 8
  23169876.546    23169879.151    10950824.753 9   8854086.188 8
  21283798.562    21283799.643   -10626374.199 9  -7841511.412 8
  20624406.695    20624408.479    -1921623.407 9  -1105455.935 9
 86  6 11  0 39 41.0800000  0  4G 6G 8G 9G11
  20423940.846    20423942.167    -2785549.540 9  -1847660.755 8
  23173885.556    23173888.304    10971893.251 9   8870503.195 8
  21280985.306    21280985.938   -10641162.483 9  -7853034.755 8
  20625194.842    20625196.971    -1917482.465 9  -1102229.234 7
 86  6 11  0 39 47.0800000  0  4G 6G 8G 9G11
  20424091.560    20424092.528    -2784764.281 9  -1847048.866 7
  23177894.985    23177898.515    10992968.419 9   8886925.389 7
  21278172.914    21278172.728   -10655940.257 9  -7864549.899 8
  20625987.144    20625988.888    -1913320.520 9  -1098986.156 7
 86  6 11  0 39 53.0800000  0  4G 6G 8G 9G11
  20424244.354    20424244.565    -2783959.592 9  -1846421.836 8
  23181906.882    23181909.847    11014050.146 8   8903352.696 8
  21275362.486    21275363.630   -10670707.547 9  -7876056.883 8
  20626782.162    20626784.782    -1909137.624 9  -1095726.749 8
 86  6 11  0 39 59.0800000  0  4G 6G 8G 9G11
  20424401.259    20424401.941    -2783135.398 9  -1845779.610 7
  23185920.706    23185923.658    11035138.509 9   8919785.176 9
  21272554.770    21272555.348   -10685464.167 9  -7887555.539 8
  20627582.934    20627584.276    -1904933.726 9  -1092450.992 8
 86  6 11  0 40  5.0800000  0  4G 6G 8G 9G11
  20424561.633    20424562.745    -2782291.761 9  -1845122.228 8
  23189934.810    23189936.708    11056233.380 9   8936222.743 8
  21269747.547    21269749.933   -10700210.365 9  -7899046.088 7
  20628386.540    20628388.457    -1900708.927 9  -1089158.949 8
 86  6 11  0 40 11.0800000  0  4G 6G 8G 9G11
  20424726.257    20424726.699    -2781428.645 9  -1844449.684 8
  23193951.304    23193953.301    11077334.806 9   8952665.395 8
  21266944.537    21266945.887   -10714945.833 9  -7910528.266 7
  20629194.093    20629196.540    -1896463.188 8  -1085850.564 7
 86  6 11  0 40 17.0800000  0  4G 6G 8G 9G11
  20424894.111    20424893.075    -2780546.011 9  -1843761.898 7
  23197967.020    23197970.133    11098442.716 9   8969113.124 8
  21264142.047    21264142.258   -10729670.644 9  -7922002.147 8
  20630005.826    20630007.643    -1892196.498 9  -1082525.888 8
 86  6 11  0 40 23.0800000  0  4G 6G 8G 9G11
  20425064.971    20425066.481    -2779643.878 9  -1843058.936 8
  23201985.457    23201988.391    11119557.143 9   8985565.907 8
  21261342.505    21261343.088   -10744384.793 9  -7933467.704 7
  20630823.251    20630823.870    -1887908.902 9  -1079184.882 8
 86  6 11  0 40 29.0800000  0  4G 6G 8G 9G11
  20425240.203    20425242.460    -2778722.211 9  -1842340.771 8
  23206004.219    23206008.056    11140678.016 9   9002023.718 7
  21258544.291    21258545.398   -10759088.305 9  -7944924.992 8
  20631641.881    20631643.702    -1883600.425 9  -1075827.641 8
 86  6 11  0 40 35.0800000  0  4G 6G 8G 9G11
  20425419.218    20425420.499    -2777781.010 9  -1841607.365 8
  23210024.155    23210027.503    11161805.301 9   9018486.535 7
  21255748.269    21255750.163   -10773781.088 9  -7956373.899 8
  20632466.036    20632467.624    -1879271.100 9  -1072454.130 8
 86  6 11  0 40 41.0800000  0  4G 6G 8G 9G11
  20425602.034    20425602.500    -2776820.161 9  -1840858.648 7
  23214046.497    23214048.220    11182939.077 9   9034954.406 8
  21252954.703    21252955.707   -10788463.143 9  -7967814.483 7
  20633294.225    20633295.467    -1874920.819 9  -1069064.306 7
 86  6 11  0 40 47.0800000  0  4G 6G 8G 9G11
  20425789.540    20425790.420    -2775839.758 9  -1840094.723 7
  23218069.126    23218070.110    11204079.269 9   9051427.282 7
  21250163.380    21250164.532   -10803134.283 9  -7979246.545 7
  20634126.448    20634127.316    -1870549.630 9  -1065658.183 7
 86  6 11  0 40 53.0800000  0  4G 6G 8G 9G11
  20425980.053    20425980.672    -2774839.691 9  -1839315.454 8
  23222093.379    23222094.801    11225225.852 8   9067905.144 8
  21247372.904    21247373.957   -10817794.649 9  -7990670.205 8
  20634962.191    20634963.321    -1866157.582 9  -1062235.813 8
 86  6 11  0 40 59.0800000  0  4G 6G 8G 9G11
  20426173.141    20426174.762    -2773820.050 9  -1838520.915 7
  23226118.282    23226119.980    11246378.815 8   9084387.958 8
  21244584.260    21244586.669   -10832444.273 9  -8002085.486 8
  20635801.426    20635803.945    -1861744.689 9  -1058797.197 8
 86  6 11  0 41  5.0800000  0  4G 6G 8G 9G11
  20426371.475    20426372.192    -2772780.857 9  -1837711.171 7
  23230144.561    23230147.596    11267538.007 9   9100875.628 8
  21241798.249    21241800.355   -10847083.177 9  -8013492.425 8
  20636645.010    20636646.882    -1857311.078 9  -1055342.447 8
 86  6 11  0 41 11.0800000  0  4G 6G 8G 9G11
  20426572.929    20426575.313    -2771722.081 9  -1836886.143 8
  23234172.770    23234175.022    11288703.489 8   9117368.196 7
  21239015.191    21239016.433   -10861711.212 9  -8024890.886 8
  20637493.402    20637495.078    -1852856.586 9  -1051871.410 7
 86  6 11  0 41 17.0800000  0  4G 6G 8G 9G11
  20426777.512    20426779.142    -2770643.640 9  -1836045.793 8
  23238201.673    23238204.488    11309875.272 9   9133865.694 8
  21236234.469    21236235.078   -10876328.339 9  -8036280.859 8
  20638343.911    20638346.219    -1848381.267 9  -1048384.155 8
 86  6 11  0 41 23.0800000  0  4G 6G 8G 9G11
  20426986.550    20426988.919    -2769545.609 9  -1835190.192 7
  23242231.475    23242233.085    11331053.279 8   9150368.017 7
  21233454.971    21233455.311   -10890934.531 9  -8047662.304 8
  20639199.861    20639201.734    -1843885.200 9  -1044880.715 8
 86  6 11  0 41 29.0800000  0  4G 6G 8G 9G11
  20427198.916    20427200.572    -2768427.975 9  -1834319.327 7
  23246263.296    23246265.098    11352237.460 9   9166875.170 7
  21230677.380    21230678.148   -10905529.914 9  -8059035.318 7
  20640060.186    20640062.031    -1839368.395 9  -1041361.141 8
 86  6 11  0 41 35.0800000  0  4G 6G 8G 9G11
  20427415.241    20427417.638    -2767290.672 9  -1833433.096 7
  23250295.182    23250297.265    11373427.852 9   9183387.165 8
  21227901.568    21227903.278   -10920114.286 9  -8070399.758 8
  20640923.460    20640925.621    -1834830.795 9  -1037825.339 8
 86  6 11  0 41 41.0800000  0  4G 6G 8G 9G11
  20427635.345    20427637.281    -2766133.728 9  -1832531.595 8
  23254328.994    23254330.732    11394624.378 9   9199903.936 8
  21225129.288    21225130.429   -10934687.669 9  -8081755.641 9
  20641790.427    20641791.956    -1830272.514 9  -1034273.434 8
 86  6 11  0 41 47.0800000  0  4G 6G 8G 9G11
  20427860.188    20427860.958    -2764957.119 9  -1831614.748 8
  23258364.014    23258365.482    11415827.039 9   9216425.471 8
  21222357.243    21222358.501   -10949250.182 9  -8093103.049 8
  20642661.341    20642663.804    -1825693.571 9  -1030705.421 8
 86  6 11  0 41 53.0800000  0  4G 6G 8G 9G11
  20428087.974    20428089.672    -2763760.810 9  -1830682.569 7
  23262399.944    23262402.123    11437035.820 9   9232951.794 9
  21219587.990    21219589.644   -10963801.644 9  -8104441.848 8
  20643537.293    20643538.841    -1821093.907 9  -1027121.267 8
 86  6 11  0 41 59.0800000  0  4G 6G 8G 9G11
  20428318.971    20428320.857    -2762544.764 9  -1829734.995 8
  23266436.879    23266439.319    11458250.723 9   9249482.900 8
  21216821.411    21216821.991   -10978342.203 9  -8115772.162 7
  20644416.681    20644419.142    -1816473.506 9  -1023520.955 9
 86  6 11  0 42  5.0800000  0  4G 6G 8G 9G11
  20428554.251    20428556.511    -2761309.027 9  -1828772.080 7
  23270475.108    23270476.967    11479471.764 9   9266018.751 8
  21214056.337    21214057.449   -10992871.591 9  -8127093.746 7
  20645299.872    20645301.018    -1811832.416 9  -1019904.531 8
 86  6 11  0 42 11.0800000  0  4G 6G 8G 9G11
  20428793.500    20428794.568    -2760053.476 9  -1827793.731 8
  23274514.370    23274516.623    11500698.875 9   9282559.346 8
  21211293.650    21211294.075   -11007389.866 8  -8138406.702 8
  20646186.298    20646188.917    -1807170.626 9  -1016271.954 8
 86  6 11  0 42 17.0800000  0  4G 6G 8G 9G11
  20429036.547    20429037.305    -2758778.225 9  -1826800.033 8
  23278554.952    23278556.540    11521932.029 8   9299104.659 7
  21208532.342    21208534.279   -11021897.017 9  -8149710.973 8
  20647077.221    20647079.050    -1802488.157 9  -1012623.273 9
 86  6 11  0 42 23.0800000  0  4G 6G 8G 9G11
  20429282.408    20429283.555    -2757483.231 9  -1825790.938 7
  23282596.488    23282598.913    11543171.152 9   9315654.606 8
  21205774.262    21205776.454   -11036393.078 9  -8161006.577 7
  20647972.059    20647974.933    -1797785.081 9  -1008958.553 8
 86  6 11  0 42 29.0800000  0  4G 6G 8G 9G11
  20429532.920    20429532.813    -2756168.441 9  -1824766.422 8
  23286639.496    23286642.272    11564416.286 9   9332209.248 7
  21203017.980    21203019.275   -11050878.067 9  -8172293.591 7
  20648871.077    20648873.782    -1793061.331 8  -1005277.707 8
 86  6 11  0 42 35.0800000  0  4G 6G 8G 9G11
  20429786.842    20429787.279    -2754833.923 9  -1823726.544 8
  23290684.387    23290684.887    11585667.283 9   9348768.480 8
  21200264.387    21200264.708   -11065351.885 9  -8183571.882 8
  20649773.447    20649776.051    -1788316.983 8  -1001580.807 8
 86  6 11  0 42 41.0800000  0  4G 6G 8G 9G11
  20430044.810    20430043.598    -2753479.642 9  -1822671.268 8
  23294729.799    23294730.722    11606924.252 9   9365332.332 8
  21197511.511    21197512.606   -11079814.547 9  -8194841.486 8
  20650680.017    20650683.253    -1783552.000 9   -997867.831 8
 86  6 11  0 42 47.0800000  0  4G 6G 8G 9G11
  20430305.789    20430305.002    -2752105.542 9  -1821600.535 7
  23298774.041    23298777.127    11628187.146 9   9381900.814 8
  21194761.696    21194763.034   -11094265.967 9  -8206102.337 8
  20651590.313    20651594.418    -1778766.433 9   -994138.828 8
 86  6 11  0 42 53.0800000  0  4G 6G 8G 9G11
  20430570.689    20430571.350    -2750711.632 9  -1820514.371 7
  23302821.285    23302824.441    11649455.955 9   9398473.903 8
  21192014.010    21192014.989   -11108706.062 9  -8217354.361 8
  20652504.700    20652508.909    -1773960.279 9   -990393.769 7
 86  6 11  0 42 59.0800000  0  4G 6G 8G 9G11
  20430840.101    20430839.721    -2749297.869 9  -1819412.737 7
  23306871.095    23306872.415    11670730.632 9   9415051.565 8
  21189268.351    21189269.375   -11123134.916 9  -8228597.617 8
  20653423.207    20653426.886    -1769133.586 9   -986632.727 9
 86  6 11  0 43  5.0800000  0  4G 6G 8G 9G11
  20431113.139    20431112.445    -2747864.297 9  -1818295.672 7
  23310920.443    23310922.065    11692011.127 9   9431633.768 8
  21186525.147    21186525.811   -11137552.473 9  -8239832.075 8
  20654346.008    20654350.529    -1764286.372 8   -982855.669 8
 86  6 11  0 43 11.0800000  0  4G 6G 8G 9G11
  20431389.269    20431388.936    -2746410.996 9  -1817163.225 7
  23314970.136    23314972.576    11713297.329 9   9448220.418 7
  21183783.083    21183783.597   -11151958.814 9  -8251057.792 7
  20655271.954    20655275.778    -1759418.693 8   -979062.684 7
 86  6 11  0 43 17.0800000  0  4G 6G 8G 9G11
  20431670.044    20431670.104    -2744937.804 9  -1816015.287 7
  23319021.761    23319024.028    11734589.414 9   9464811.631 8
  21181043.444    21181046.188   -11166353.866 9  -8262274.719 8
  20656202.967    20656206.320    -1754530.500 9   -975253.698 8
 86  6 11  0 43 23.0800000  0  4G 6G 8G 9G11
  20431954.176    20431954.285    -2743444.748 9  -1814851.862 7
  23323075.421    23323077.045    11755887.212 9   9481407.317 7
  21178306.715    21178308.525   -11180737.565 9  -8273482.781 7
  20657137.331    20657140.693    -1749621.808 9   -971428.737 9
 86  6 11  0 43 29.0800000  0  4G 6G 8G 9G11
  20432242.000    20432243.012    -2741931.836 9  -1813672.985 6
  23327129.788    23327131.978    11777190.756 8   9498007.477 8
  21175572.107    21175573.294   -11195109.896 9  -8284682.008 7
  20658075.555    20658077.747    -1744692.653 9   -967587.842 8
 86  6 11  0 43 35.0800000  0  4G 6G 8G 9G11
  20432534.032    20432535.275    -2740399.070 9  -1812478.614 7
  23331184.225    23331185.952    11798500.047 9   9514612.102 8
  21172839.779    21172838.519   -11209470.931 9  -8295872.425 8
  20659017.303    20659019.447    -1739743.001 9   -963730.976 8
 86  6 11  0 43 41.0800000  0  4G 6G 8G 9G11
  20432829.182    20432830.879    -2738846.415 9  -1811268.766 7
  23335240.167    23335242.075    11819814.967 9   9531221.135 7
  21170108.635    21170109.805   -11223820.452 9  -8307053.871 7
  20659962.800    20659964.889    -1734772.905 8   -959858.173 8
 86  6 11  0 43 47.0800000  0  4G 6G 8G 9G11
  20433127.652    20433129.311    -2737273.866 9  -1810043.414 8
  23339298.111    23339299.327    11841135.579 9   9547834.593 7
  21167379.997    21167382.126   -11238158.552 9  -8318226.408 7
  20660912.270    20660915.592    -1729782.379 8   -955969.439 8
 86  6 11  0 43 53.0800000  0  4G 6G 8G 9G11
  20433430.950    20433431.819    -2735681.382 9  -1808802.515 7
  23343355.670    23343357.166    11862461.830 8   9564452.437 8
  21164653.885    21164655.181   -11252485.266 9  -8329390.083 7
  20661865.384    20661868.541    -1724771.434 9   -952064.820 9
 86  6 11  0 43 59.0800000  0  4G 6G 8G 9G11
  20433738.149    20433739.680    -2734068.954 9  -1807546.077 8
  23347414.857    23347416.989    11883793.707 9   9581074.671 8
  21161929.059    21161930.542   -11266800.385 9  -8340544.720 7
  20662823.525    20662826.845    -1719740.043 9   -948144.254 8
 86  6 11  0 44  5.0800000  0  4G 6G 8G 9G11
  20434048.788    20434049.936    -2732436.598 9  -1806274.120 8
  23351476.632    23351476.993    11905131.188 9   9597701.276 9
  21159207.566    21159209.760   -11281104.056 9  -8351690.424 7
  20663784.557    20663788.048    -1714688.255 9   -944207.796 8
 86  6 11  0 44 11.0800000  0  4G 6G 8G 9G11
  20434362.831    20434364.776    -2730784.251 9  -1804986.575 8
  23355537.528    23355539.273    11926474.300 8   9614332.260 7
  21156488.121    21156490.075   -11295396.118 9  -8362827.104 7
  20664749.398    20664752.763    -1709616.064 9   -940255.438 7
 86  6 11  0 44 17.0800000  0  4G 6G 8G 9G11
  20434680.617    20434682.246    -2729111.986 9  -1803683.520 7
  23359600.683    23359600.103    11947822.977 9   9630967.601 8
  21153770.776    21153772.527   -11309676.692 9  -8373954.827 8
  20665719.248    20665722.607    -1704523.516 9   -936287.219 7
 86  6 11  0 44 23.0800000  0  4G 6G 8G 9G11
  20435002.543    20435004.535    -2727419.782 9  -1802364.915 7
  23363662.965    23363664.719    11969177.094 8   9647607.160 9
  21151055.316    21151057.040   -11323945.720 9  -8385073.550 9
  20666692.158    20666694.133    -1699410.673 9   -932303.184 8
 86  6 11  0 44 29.0800000  0  4G 6G 8G 9G11
  20435328.565    20435329.726    -2725707.591 9  -1801030.742 8
  23367727.443    23367729.243    11990536.748 8   9664251.035 8
  21148341.846    21148344.109   -11338203.215 9  -8396183.279 8
  20667669.188    20667670.606    -1694277.496 9   -928303.304 8
 86  6 11  0 44 35.0800000  0  4G 6G 8G 9G11
  20435658.364    20435659.901    -2723975.448 9  -1799681.027 7
  23371795.012    23371795.517    12011901.873 8   9680899.175 8
  21145631.628    21145632.537   -11352449.087 9  -8407283.966 8
  20668649.802    20668651.233    -1689124.017 9   -924287.609 8
 86  6 11  0 44 41.0800000  0  4G 6G 8G 9G11
  20435991.661    20435994.343    -2722223.274 9  -1798315.695 8
  23375859.614    23375862.554    12033272.437 9   9697551.560 8
  21142922.789    21142924.093   -11366683.270 9  -8418375.522 8
  20669634.099    20669636.692    -1683950.225 8   -920256.090 7
 86  6 11  0 44 47.0800000  0  4G 6G 8G 9G11
  20436329.360    20436330.364    -2720451.112 9  -1796934.784 8
  23379927.641    23379928.948    12054648.414 9   9714208.150 9
  21140216.497    21140217.252   -11380905.737 9  -8429457.980 8
  20670622.295    20670625.544    -1678756.122 9   -916208.739 8
 86  6 11  0 44 53.0800000  0  4G 6G 8G 9G11
  20436670.604    20436672.063    -2718658.946 9  -1795538.296 8
  23383995.658    23383998.761    12076029.824 8   9730868.971 7
  21137511.659    21137513.275   -11395116.559 9  -8440531.337 8
  20671614.609    20671616.855    -1673541.714 9   -912145.555 8
 86  6 11  0 44 59.0800000  0  4G 6G 8G 9G11
  20437014.998    20437017.308    -2716846.701 9  -1794126.156 8
  23388066.051    23388068.261    12097416.708 7   9747534.069 8
  21134809.128    21134811.242   -11409315.692 9  -8451595.587 8
  20672611.014    20672613.562    -1668306.938 9   -908066.518 8
 86  6 11  0 45  5.0800000  0  4G 6G 8G 9G11
  20437364.578    20437364.825    -2715014.391 9  -1792698.383 8
  23392136.717    23392138.638    12118808.913 8   9764203.314 8
  21132108.354    21132111.229   -11423503.008 9  -8462650.650 8
  20673611.113    20673613.647    -1663051.904 9   -903971.694 7
 86  6 11  0 45 11.0800000  0  4G 6G 8G 9G11
  20437717.185    20437718.291    -2713162.030 9  -1791254.988 7
  23396209.146    23396211.094    12140206.483 8   9780876.729 9
  21129411.998    21129413.420   -11437678.671 9  -8473696.613 7
  20674614.444    20674617.280    -1657776.611 9   -899861.072 7
 86  6 11  0 45 17.0800000  0  4G 6G 8G 9G11
  20438073.732    20438073.752    -2711289.708 9  -1789796.033 8
  23400282.282    23400284.242    12161609.287 8   9797554.236 8
  21126716.833    21126718.664   -11451842.632 9  -8484733.465 7
  20675623.016    20675624.720    -1652481.134 9   -895734.727 8
 86  6 11  0 45 23.0800000  0  4G 6G 8G 9G11
  20438431.941    20438432.745    -2709397.309 9  -1788321.426 7
  23404355.283    23404358.061    12183017.365 8   9814235.851 9
  21124024.123    21124025.568   -11465994.749 9  -8495761.081 8
  20676634.792    20676635.904    -1647165.463 9   -891592.647 8
 86  6 11  0 45 29.0800000  0  4G 6G 8G 9G11
  20438797.383    20438797.601    -2707484.900 9  -1786831.240 7
  23408429.663    23408432.539    12204430.679 8   9830921.532 9
  21121333.537    21121334.633   -11480135.131 9  -8506779.561 8
  20677649.717    20677651.992    -1641829.646 8   -887434.870 9
 86  6 11  0 45 35.0800000  0  4G 6G 8G 9G11
  20439164.683    20439164.895    -2705552.359 9  -1785325.371 7
  23412504.361    23412507.797    12225849.296 8   9847611.355 8
  21118644.646    21118646.771   -11494263.630 9  -8517788.771 8
  20678669.131    20678670.620    -1636473.641 9   -883261.354 8
 86  6 11  0 45 41.0800000  0  4G 6G 8G 9G11
  20439536.922    20439537.137    -2703599.698 9  -1783803.824 7
  23416582.809    23416585.466    12247273.086 7   9864305.200 8
  21115958.908    21115958.477   -11508380.232 9  -8528788.724 8
  20679691.749    20679694.625    -1631097.488 9   -879072.158 8
 86  6 11  0 45 47.0800000  0  4G 6G 8G 9G11
  20439911.726    20439911.907    -2701626.968 9  -1782266.617 8
  23420659.920    23420663.329    12268702.066 7   9881003.104 8
  21113275.190    21113275.410   -11522484.964 9  -8539779.431 7
  20680718.781    20680721.254    -1625701.167 9   -874867.224 8
 86  6 11  0 45 53.0800000  0  4G 6G 8G 9G11
  20440291.015    20440291.273    -2699634.084 9  -1780713.734 7
  23424739.117    23424741.810    12290136.195 7   9897704.991 8
  21110593.533    21110594.439   -11536577.790 9  -8550760.852 8
  20681749.361    20681752.048    -1620284.690 9   -870646.596 8
 86  6 11  0 45 59.0800000  0  4G 6G 8G 9G11
  20440674.158    20440675.025    -2697621.151 9  -1779145.215 8
  23428817.518    23428821.572    12311575.408 7   9914410.876 8
  21107914.154    21107914.951   -11550658.767 9  -8561733.042 9
  20682783.510    20682786.505    -1614848.142 9   -866410.319 8
 86  6 11  0 46  5.0800000  0  4G 6G 8G 9G11
  20441061.153    20441061.934    -2695588.124 9  -1777561.047 8
  23432897.638    23432902.954    12333019.721 7   9931120.694 9
  21105235.782    21105237.464   -11564727.716 9  -8572695.865 8
  20683821.730    20683824.478    -1609391.499 9   -862158.402 7
 86  6 11  0 46 11.0800000  0  4G 6G 8G 9G11
  20441451.508    20441451.970    -2693534.894 9  -1775961.130 7
  23436979.458    23436983.993    12354469.173 8   9947834.541 8
  21102561.703    21102563.021   -11578784.715 9  -8583649.364 7
  20684864.844    20684868.032    -1603914.809 9   -857890.849 7
 86  6 11  0 46 17.0800000  0  4G 6G 8G 9G11
  20441845.736    20441847.190    -2691461.577 9  -1774345.557 7
  23441064.497    23441066.413    12375923.658 8   9964552.323 9
  21099889.118    21099889.558   -11592829.692 9  -8594593.504 8
  20685910.530    20685913.936    -1598418.101 9   -853607.704 8
 86  6 11  0 46 23.0800000  0  4G 6G 8G 9G11
  20442243.969    20442244.201    -2689368.063 9  -1772714.250 6
  23445145.705    23445150.811    12397383.239 7   9981274.041 8
  21097218.725    21097220.175   -11606862.717 9  -8605528.336 9
  20686960.828    20686962.426    -1592901.330 9   -849308.926 8
 86  6 11  0 46 29.0800000  0  4G 6G 8G 9G11
  20442645.943    20442647.155    -2687254.371 9  -1771067.218 7
  23449229.962    23449235.841    12418847.814 7   9997999.687 9
  21094549.580    21094551.894   -11620883.714 9  -8616453.785 7
  20688013.896    20688016.531    -1587364.544 9   -844994.561 8
 86  6 11  0 46 35.0800000  0  4G 6G 8G 9G11
  20443052.706    20443054.571    -2685120.548 9  -1769404.494 8
  23453316.273    23453320.282    12440317.327 7  10014729.159 8
  21091882.919    21091886.154   -11634892.616 9  -8627369.812 8
  20689070.572    20689074.541    -1581807.774 9   -840664.592 8
 86  6 11  0 46 41.0800000  0  4G 6G 8G 9G11
  20443462.319    20443462.538    -2682966.625 9  -1767726.112 8
  23457402.072    23457407.417    12461791.802 7  10031462.489 9
  21089220.012    21089221.397   -11648889.550 9  -8638276.518 8
  20690131.688    20690136.311    -1576231.028 9   -836319.084 7
 86  6 11  0 46 47.0800000  0  4G 6G 8G 9G11
  20443875.672    20443876.934    -2680792.457 9  -1766031.970 8
  23461489.966    23461494.309    12483271.169 8  10048199.640 8
  21086559.372    21086561.644   -11662874.354 9  -8649173.753 8
  20691197.693    20691200.670    -1570634.367 9   -831958.044 9
 86  6 11  0 46 53.0800000  0  4G 6G 8G 9G11
  20444294.226    20444293.739    -2678598.073 9  -1764322.054 8
  23465579.196    23465582.789    12504755.567 7  10064940.711 9
  21083899.717    21083901.259   -11676847.064 9  -8660061.582 8
  20692265.788    20692269.539    -1565017.692 9   -827581.419 8
 86  6 11  0 46 59.0800000  0  4G 6G 8G 9G11
  20444714.679    20444716.245    -2676383.450 9  -1762596.377 7
  23469668.999    23469672.575    12526244.847 7  10081685.603 9
  21081244.864    21081246.558   -11690807.494 9  -8670939.826 8
  20693338.605    20693341.731    -1559381.063 9   -823189.243 8
 86  6 11  0 47  5.0800000  0  4G 6G 8G 9G11
  20445140.815    20445142.164    -2674148.592 9  -1760854.925 7
  23473759.125    23473763.222    12547739.066 8  10098434.332 8
  21078590.709    21078591.281   -11704755.763 9  -8681808.606 8
  20694415.631    20694418.451    -1553724.460 9   -818781.508 8
 86  6 11  0 47 11.0800000  0  4G 6G 8G 9G11
  20445569.727    20445571.027    -2671893.473 9  -1759097.699 7
  23477850.609    23477853.348    12569238.155 7  10115186.870 8
  21075938.128    21075939.647   -11718691.812 9  -8692667.877 7
  20695495.804    20695498.408    -1548047.925 9   -814358.232 9
 86  6 11  0 47 17.0800000  0  4G 6G 8G 9G11
  20446002.323    20446003.974    -2669618.178 9  -1757324.738 8
  23481941.834    23481945.772    12590742.003 9  10131943.106 9
  21073288.810    21073290.297   -11732615.703 9  -8703517.667 7
  20696579.614    20696583.579    -1542351.485 9   -809919.456 8
 86  6 11  0 47 23.0800000  0  4G 6G 8G 9G11
  20446438.808    20446439.840    -2667322.690 9  -1755536.042 7
  23486035.550    23486038.750    12612250.628 9  10148703.060 9
  21070641.094    21070643.122   -11746527.393 9  -8714357.927 8
  20697667.084    20697670.403    -1536635.198 8   -805465.208 8
 86  6 11  0 47 29.0800000  0  4G 6G 8G 9G11
  20446879.256    20446881.906    -2665006.932 8  -1753731.570 7
  23490129.220    23490132.175    12633764.010 8  10165466.724 8
  21067996.526    21067997.850   -11760426.838 9  -8725188.666 8
  20698758.360    20698762.139    -1530899.127 9   -800995.543 9
 86  6 11  0 47 35.0800000  0  4G 6G 8G 9G11
  20447324.479    20447326.087    -2662670.900 9  -1751911.276 8
  23494223.639    23494226.771    12655282.155 9  10182234.103 9
  21065354.311    21065353.701   -11774314.058 9  -8736009.888 8
  20699853.900    20699857.796    -1525143.192 8   -796510.410 8
 86  6 11  0 47 41.0800000  0  4G 6G 8G 9G11
  20447772.703    20447773.421    -2660314.544 9  -1750075.155 8
  23498319.681    23498322.437    12676805.073 9  10199005.210 9
  21062713.612    21062713.901   -11788188.899 9  -8746821.446 8
  20700953.964    20700956.824    -1519367.344 9   -792009.742 9
 86  6 11  0 47 47.0800000  0  4G 6G 8G 9G11
  20448225.576    20448227.236    -2657937.909 9  -1748223.245 7
  23502416.090    23502418.636    12698332.719 8  10215779.981 8
  21060075.421    21060077.430   -11802051.404 9  -8757623.400 7
  20702055.797    20702059.092    -1513571.613 9   -787493.604 7
 86  6 11  0 47 53.0800000  0  4G 6G 8G 9G11
  20448681.315    20448682.627    -2655541.034 9  -1746355.548 8
  23506514.128    23506516.138    12719865.006 9  10232558.374 8
  21057439.279    21057440.740   -11815901.639 9  -8768415.802 9
  20703162.990    20703164.991    -1507756.132 9   -782962.060 9
 86  6 11  0 47 59.0800000  0  4G 6G 8G 9G11
  20449141.231    20449141.911    -2653123.883 9  -1744472.053 7
  23510613.146    23510614.691    12741401.944 9  10249340.397 8
  21054806.199    21054807.984   -11829739.483 9  -8779198.542 8
  20704273.786    20704275.445    -1501920.860 9   -778415.088 8
 86  6 11  0 48  5.0800000  0  4G 6G 8G 9G11
  20449605.383    20449606.428    -2650686.352 9  -1742572.682 8
  23514712.135    23514713.723    12762943.559 9  10266126.056 9
  21052175.053    21052175.957   -11843564.850 9  -8789971.542 8
  20705387.811    20705390.188    -1496065.764 8   -773852.686 7
 86  6 11  0 48 11.0800000  0  4G 6G 8G 9G11
  20450073.084    20450074.533    -2648228.453 9  -1740657.428 8
  23518812.828    23518815.016    12784489.825 9  10282915.344 7
  21049546.872    21049547.759   -11857377.776 9  -8800734.871 8
  20706505.188    20706507.605    -1490190.854 9   -769274.842 8
 86  6 11  0 48 17.0800000  0  4G 6G 8G 9G11
  20450544.788    20450545.967    -2645750.214 9  -1738726.338 7
  23522911.731    23522915.396    12806040.734 9  10299708.257 8
  21046920.483    21046921.535   -11871178.229 9  -8811488.462 8
  20707627.659    20707629.890    -1484296.198 9   -764681.607 8
 86  6 11  0 48 23.0800000  0  4G 6G 8G 9G11
  20451020.045    20451021.089    -2643251.545 9  -1736779.320 8
  23527015.022    23527017.886    12827596.232 9  10316504.751 8
  21044296.852    21044298.311   -11884966.191 9  -8822232.327 9
  20708752.475    20708755.097    -1478381.761 8   -760072.947 8
 86  6 11  0 48 29.0800000  0  4G 6G 8G 9G11
  20451499.535    20451501.105    -2640732.601 9  -1734816.507 7
  23531117.538    23531120.747    12849156.206 9  10333304.714 9
  21041675.471    21041677.394   -11898741.820 9  -8832966.585 8
  20709881.532    20709884.265    -1472447.689 9   -755449.001 8
 86  6 11  0 48 35.0800000  0  4G 6G 8G 9G11
  20451983.358    20451983.669    -2638193.295 9  -1732837.819 7
  23535220.530    23535223.840    12870720.725 9  10350108.226 8
  21039055.859    21039057.844   -11912504.843 9  -8843691.009 8
  20711014.848    20711017.670    -1466493.874 8   -750809.669 8
 86  6 11  0 48 41.0800000  0  4G 6G 8G 9G11
  20452470.118    20452469.904    -2635633.586 9  -1730843.245 7
  23539325.449    23539328.677    12892289.783 9  10366915.267 7
  21036439.921    21036441.497   -11926255.348 9  -8854405.701 8
  20712151.113    20712154.418    -1460520.328 8   -746154.960 7
 86  6 11  0 48 47.0800000  0  4G 6G 8G 9G11
  20452960.777    20452961.398    -2633053.520 6  -1728832.819 3
  23543431.535    23543433.966    12913863.258 9  10383725.765 8
  21033824.663    21033827.035   -11939993.300 9  -8865110.583 8
  20713291.519    20713294.404    -1454527.137 7   -741484.935 8
 86  6 11  0 48 53.0800000  0  4G 6G 8G 9G11
  20453456.307    20453456.095    -2630453.087 5  -1726806.497 5
  23547537.120    23547540.539    12935441.192 9  10400539.725 9
  21031213.008    21031215.007   -11953718.618 9  -8875805.640 8
  20714436.631    20714438.537    -1448514.350 8   -736799.656 8
 86  6 11  0 48 59.0800000  0  4G 6G 8G 9G11
  20453955.186    20453953.488    -2627832.244 3  -1724764.290 3
  23551643.792    23551646.115    12957023.553 9  10417357.148 9
  21028603.423    21028606.125   -11967431.430 9  -8886490.945 9
  20715583.334    20715586.488    -1442481.895 9   -732099.040 8
 86  6 11  0 49  5.0800000  0  4G 6G 8G 9G11
  20454457.937    20454456.649    -2625190.961 6  -1722706.149 5
  23555751.964    23555754.851    12978610.389 9  10434178.055 9
  21025997.222    21025998.221   -11981131.509 9  -8897166.322 8
  20716735.988    20716737.600    -1436429.774 9   -727383.095 7
 86  6 11  0 49 11.0800000  0  4G 6G 8G 9G11
  20454963.080    20454964.058    -2622529.303 5  -1720632.125 3
  23559860.022    23559863.535    13000201.595 9  10451002.359 8
  21023392.648    21023394.060   -11994819.022 9  -8907831.923 8
  20717891.092    20717894.443    -1430358.102 9   -722651.929 6
 86  6 11  0 49 17.0800000  0  4G 6G 8G 9G11
  20455473.452    20455475.307    -2619847.179 5  -1718542.170 5
  23563969.676    23563973.329    13021797.165 9  10467830.065 9
  21020790.036    21020790.705   -12008493.829 9  -8918487.609 8
  20719050.332    20719051.952    -1424266.771 9   -717905.434 7
 86  6 11  0 49 23.0800000  0  4G 6G 8G 9G11
  20455987.431    20455988.812    -2617144.630 8  -1716436.296 5
  23568080.355    23568082.941    13043397.123 9  10484661.200 9
  21018190.756    21018191.411   -12022155.890 9  -8929133.368 8
  20720213.090    20720216.108    -1418155.827 8   -713143.675 7
 86  6 11  0 49 29.0800000  0  4G 6G 8G 9G11
  20456506.930    20456507.109    -2614421.575 6  -1714314.417 4
  23572191.223    23572195.654    13065001.428 9  10501495.694 8
  21015593.596    21015594.925   -12035805.231 9  -8939769.221 9
  20721379.595    20721381.976    -1412025.347 9   -708366.676 8
 86  6 11  0 49 35.0800000  0  4G 6G 8G 9G11
  20457027.619    20457029.150    -2611678.069 9  -1712176.632 8
  23576304.148    23576306.846    13086609.978 9  10518333.534 9
  21012998.488    21012999.393   -12049441.810 9  -8950395.142 7
  20722549.421    20722553.315    -1405875.277 9   -703574.421 7
 86  6 11  0 49 41.0800000  0  4G 6G 8G 9G11
  20457553.941    20457555.222    -2608914.131 9  -1710022.924 7
  23580416.607    23580418.723    13108222.813 9  10535174.707 9
  21010405.369    21010407.435   -12063065.662 9  -8961011.103 8
  20723724.402    20723726.134    -1399705.716 9   -698766.966 8
 86  6 11  0 49 47.0800000  0  4G 6G 8G 9G11
  20458083.726    20458085.093    -2606129.774 9  -1707853.300 8
  23584529.633    23584533.229    13129839.853 9  10552019.141 8
  21007815.509    21007816.525   -12076676.791 9  -8971617.181 8
  20724901.987    20724903.304    -1393516.647 9   -693944.327 8
 86  6 11  0 49 53.0800000  0  4G 6G 8G 9G11
  20458618.087    20458618.816    -2603324.889 9  -1705667.673 8
  23588644.510    23588646.240    13151461.133 9  10568866.884 8
  21005227.793    21005229.181   -12090275.024 9  -8982213.209 8
  20726083.743    20726085.424    -1387308.069 9   -689106.476 8
 86  6 11  0 49 59.0800000  0  4G 6G 8G 9G11
  20459156.231    20459156.984    -2600499.568 9  -1703466.127 8
  23592759.135    23592762.623    13173086.541 9  10585717.841 8
  21002643.084    21002644.320   -12103860.496 9  -8992799.285 9
  20727268.021    20727270.358    -1381080.084 9   -684253.490 8
 86  6 11  0 50  5.0800000  0  4G 6G 8G 9G11
  20459697.231    20459698.467    -2597653.716 9  -1701248.582 8
  23596875.031    23596877.649    13194716.259 9  10602572.162 9
  21000059.583    21000061.132   -12117433.074 9  -9003375.330 8
  20728457.965    20728459.298    -1374832.577 8   -679385.311 8
 86  6 11  0 50 11.0800000  0  4G 6G 8G 9G11
  20460242.010    20460243.062    -2594787.322 9  -1699015.038 8
  23600992.933    23600995.748    13216350.075 9  10619429.681 8
  20997479.730    20997481.321   -12130992.815 9  -9013941.358 8
  20729649.123    20729653.047    -1368565.610 9   -674501.961 8
 86  6 11  0 50 17.0800000  0  4G 6G 8G 9G11
  20460791.572    20460793.426    -2591900.500 9  -1696765.567 7
  23605109.571    23605111.839    13237987.990 9  10636290.394 9
  20994902.457    20994903.533   -12144539.700 9  -9024497.364 8
  20730845.867    20730848.494    -1362279.247 8   -669603.494 8
 86  6 11  0 50 23.0800000  0  4G 6G 8G 9G11
  20461344.917    20461346.631    -2588993.142 9  -1694500.102 7
  23609227.872    23609230.651    13259630.016 9  10653154.287 9
  20992325.966    20992327.456   -12158073.653 9  -9035043.312 8
  20732046.012    20732047.752    -1355973.530 9   -664689.964 7
 86  6 11  0 50 29.0800000  0  4G 6G 8G 9G11
  20461902.106    20461903.288    -2586065.273 9  -1692218.639 8
  23613346.888    23613350.704    13281276.134 9  10670021.382 8
  20989752.801    20989754.863   -12171594.634 9  -9045579.128 8
  20733249.817    20733251.840    -1349648.431 9   -659761.306 9
 86  6 11  0 50 35.0800000  0  4G 6G 8G 9G11
  20462462.721    20462465.154    -2583116.763 9  -1689921.105 7
  23617467.950    23617470.978    13302926.387 9  10686891.702 8
  20987183.278    20987185.172   -12185102.620 9  -9056104.828 8
  20734456.539    20734459.020    -1343303.871 8   -654817.497 8
 86  6 11  0 50 41.0800000  0  4G 6G 8G 9G11
  20463028.596    20463029.557    -2580147.704 9  -1687607.550 7
  23621587.750    23621590.839    13324580.671 9  10703765.151 8
  20984615.522    20984615.710   -12198597.627 9  -9066620.424 8
  20735667.841    20735670.007    -1336939.918 9   -649858.577 8
 86  6 11  0 50 47.0800000  0  4G 6G 8G 9G11
  20463597.075    20463598.773    -2577158.156 9  -1685278.047 7
  23625709.162    23625712.973    13346238.960 8  10720641.738 8
  20982049.919    20982050.983   -12212079.568 9  -9077125.828 8
  20736882.577    20736885.201    -1330556.598 9   -644884.556 7
 86  6 11  0 50 53.0800000  0  4G 6G 8G 9G11
  20464170.466    20464171.472    -2574148.019 9  -1682932.485 8
  23629831.205    23629833.718    13367901.225 9  10737521.427 8
  20979486.627    20979487.617   -12225548.529 9  -9087621.124 8
  20738101.204    20738104.244    -1324153.933 8   -639895.467 8
 86  6 11  0 50 59.0800000  0  4G 6G 8G 9G11
  20464747.527    20464748.318    -2571117.374 9  -1680570.926 8
  23633955.036    23633957.243    13389567.445 9  10754404.183 8
  20976925.250    20976927.917   -12239004.479 9  -9098106.276 8
  20739322.723    20739325.018    -1317732.050 9   -634891.407 8
 86  6 11  0 51  5.0800000  0  4G 6G 8G 9G11
  20465328.562    20465329.086    -2568066.113 9  -1678193.325 9
  23638078.544    23638080.808    13411237.641 9  10771290.047 8
  20974367.288    20974369.043   -12252447.318 9  -9108581.215 8
  20740549.134    20740551.816    -1311290.811 9   -629872.261 9
 86  6 11  0 51 11.0800000  0  4G 6G 8G 9G11
  20465912.070    20465913.094    -2564994.218 9  -1675799.641 7
  23642202.997    23642205.898    13432911.780 8  10788178.977 8
  20971812.668    20971813.948   -12265877.041 9  -9119045.925 8
  20741778.494    20741781.061    -1304830.282 8   -624838.085 7
 86  6 11  0 51 17.0800000  0  4G 6G 8G 9G11
  20466500.105    20466500.951    -2561901.801 9  -1673389.970 7
  23646327.401    23646331.201    13454589.808 8  10805070.941 8
  20969259.368    20969260.607   -12279293.673 9  -9129500.447 8
  20743010.660    20743013.640    -1298350.528 8   -619788.928 8
 86  6 11  0 51 23.0800000  0  4G 6G 8G 9G11
  20467092.412    20467094.005    -2558788.725 9  -1670964.194 8
  23650452.783    23650456.664    13476271.722 8  10821965.913 8
  20966707.995    20966708.795   -12292697.148 9  -9139944.714 8
  20744248.031    20744251.041    -1291851.483 9   -614724.731 8
 86  6 11  0 51 29.0800000  0  4G 6G 8G 9G11
  20467689.531    20467690.015    -2555655.020 9  -1668522.344 7
  23654580.614    23654583.485    13497957.556 9  10838863.975 8
  20964160.809    20964161.301   -12306087.351 9  -9150378.640 9
  20745488.410    20745490.560    -1285333.127 9   -609645.498 8
 86  6 11  0 51 35.0800000  0  4G 6G 8G 9G11
  20468289.634    20468289.754    -2552500.663 9  -1666064.405 8
  23658707.125    23658710.728    13519647.216 8  10855764.991 8
  20961614.854    20961615.892   -12319464.363 9  -9160802.277 8
  20746732.050    20746736.246    -1278795.513 9   -604551.264 8
 86  6 11  0 51 41.0800000  0  4G 6G 8G 9G11
  20468893.957    20468893.730    -2549325.766 9  -1663590.471 7
  23662834.436    23662838.387    13541340.672 8  10872668.982 8
  20959071.481    20959072.660   -12332828.191 9  -9171215.651 8
  20747979.926    20747982.893    -1272238.779 9   -599442.118 8
 86  6 11  0 51 47.0800000  0  4G 6G 8G 9G11
  20469501.742    20469502.986    -2546130.150 9  -1661100.382 8
  23666965.505    23666967.333    13563037.869 8  10889575.874 8
  20956531.273    20956532.609   -12346178.829 9  -9181618.745 8
  20749231.551    20749234.003    -1265662.837 9   -594318.011 8
 86  6 11  0 51 53.0800000  0  4G 6G 8G 9G11
  20470114.061    20470114.406    -2542913.902 9  -1658594.208 8
  23671093.378    23671097.323    13584738.895 9  10906485.746 9
  20953992.765    20953994.845   -12359516.125 9  -9192011.451 9
  20750486.294    20750490.277    -1259067.679 9   -589178.927 8
 86  6 11  0 51 59.0800000  0  4G 6G 8G 9G11
  20470730.488    20470730.869    -2539676.967 9  -1656071.924 7
  23675223.226    23675227.478    13606443.662 8  10923398.553 8
  20951457.487    20951459.245   -12372840.091 9  -9202393.749 8
  20751744.988    20751748.571    -1252453.319 8   -584024.887 8
 86  6 11  0 52  5.0800000  0  4G 6G 8G 9G11
  20471350.151    20471350.431    -2536419.386 9  -1653533.560 8
  23679356.264    23679357.841    13628152.170 8  10940314.259 9
  20948925.167    20948926.294   -12386150.754 9  -9212765.691 8
  20753007.603    20753009.698    -1245819.843 9   -578855.949 8
 86  6 11  0 52 11.0800000  0  4G 6G 8G 9G11
  20471974.010    20471974.962    -2533141.221 9  -1650979.148 7
  23683487.713    23683489.799    13649864.281 9  10957232.774 8
  20946394.243    20946394.328   -12399448.253 9  -9223127.375 8
  20754274.194    20754276.603    -1239167.370 8   -573672.213 7
 86  6 11  0 52 17.0800000  0  4G 6G 8G 9G11
  20472601.384    20472602.311    -2529842.295 9  -1648408.551 8
  23687619.215    23687622.201    13671580.148 9  10974154.231 8
  20943867.049    20943868.246   -12412732.249 9  -9233478.540 8
  20755543.161    20755544.813    -1232495.748 9   -568473.557 7
 86  6 11  0 52 23.0800000  0  4G 6G 8G 9G11
  20473233.531    20473232.415    -2526522.767 9  -1645821.908 7
  23691753.762    23691755.252    13693299.557 9  10991078.441 7
  20941341.051    20941341.693   -12426002.954 9  -9243819.347 8
  20756816.336    20756818.889    -1225805.094 9   -563260.050 7
 86  6 11  0 52 29.0800000  0  4G 6G 8G 9G11
  20473868.242    20473867.983    -2523182.523 9  -1643219.127 8
  23695886.799    23695888.513    13715022.662 8  11008005.520 8
  20938817.433    20938819.410   -12439260.224 9  -9254149.697 7
  20758092.717    20758096.484    -1219095.355 9   -558031.691 8
 86  6 11  0 52 35.0800000  0  4G 6G 8G 9G11
  20474508.346    20474507.890    -2519821.522 9  -1640600.165 7
  23700021.220    23700024.071    13736749.433 8  11024935.466 8
  20936298.049    20936299.506   -12452504.092 9  -9264469.595 9
  20759373.217    20759375.040    -1212366.511 8   -552788.431 8
 86  6 11  0 52 41.0800000  0  4G 6G 8G 9G11
  20475151.487    20475152.321    -2516439.774 9  -1637965.030 8
  23704155.596    23704159.949    13758479.764 8  11041868.183 7
  20933780.983    20933782.400   -12465734.530 9  -9274779.020 7
  20760657.497    20760660.192    -1205618.622 9   -547530.343 8
 86  6 11  0 52 47.0800000  0  4G 6G 8G 9G11
  20475799.149    20475800.476    -2513037.373 9  -1635313.820 8
  23708290.981    23708295.020    13780213.656 8  11058803.673 8
  20931265.313    20931267.586   -12478951.504 9  -9285077.957 8
  20761945.237    20761947.474    -1198851.766 8   -542257.465 8
 86  6 11  0 52 53.0800000  0  4G 6G 8G 9G11
  20476449.647    20476451.399    -2509614.248 9  -1632646.451 8
  23712427.954    23712430.447    13801951.129 9  11075741.949 7
  20928753.687    20928753.758   -12492154.974 9  -9295366.369 8
  20763235.754    20763239.410    -1192065.866 9   -536969.752 9
 86  6 11  0 52 59.0800000  0  4G 6G 8G 9G11
  20477104.440    20477106.684    -2506170.359 9  -1629962.898 7
  23716565.142    23716568.438    13823692.093 8  11092682.943 8
  20926243.372    20926245.535   -12505344.865 9  -9305644.210 8
  20764531.365    20764534.547    -1185260.984 9   -531667.260 8
 86  6 11  0 53  5.0800000  0  4G 6G 8G 9G11
  20477764.815    20477766.621    -2502705.749 9  -1627263.193 7
  23720703.940    23720706.055    13845436.525 8  11109626.657 7
  20923735.472    20923736.676   -12518521.262 9  -9315911.529 9
  20765829.666    20765831.976    -1178437.137 9   -526349.980 8
 86  6 11  0 53 11.0800000  0  4G 6G 8G 9G11
  20478428.629    20478429.915    -2499220.357 9  -1624547.315 7
  23724843.081    23724845.023    13867184.518 9  11126573.152 7
  20921230.601    20921231.698   -12531684.130 9  -9326168.303 9
  20767131.175    20767134.299    -1171594.346 8   -521017.925 8
 86  6 11  0 53 17.0800000  0  4G 6G 8G 9G11
  20479095.470    20479096.284    -2495714.249 9  -1621815.290 8
  23728980.821    23728984.852    13888935.887 8  11143522.248 8
  20918728.742    20918729.509   -12544833.420 9  -9336414.489 8
  20768437.202    20768440.800    -1164732.608 8   -515671.127 8
 86  6 11  0 53 23.0800000  0  4G 6G 8G 9G11
  20479766.322    20479768.709    -2492187.343 9  -1619067.059 8
  23733120.928    23733124.774    13910690.689 8  11160474.032 9
  20916228.250    20916229.887   -12557969.093 9  -9346650.085 8
  20769747.180    20769749.661    -1157851.960 9   -510309.590 8
 86  6 11  0 53 29.0800000  0  4G 6G 8G 9G11
  20480440.464    20480443.162    -2488639.653 9  -1616302.624 8
  23737260.600    23737264.694    13932448.940 9  11177428.502 7
  20913732.073    20913733.298   -12571091.133 9  -9356875.046 8
  20771060.678    20771063.601    -1150952.345 9   -504933.255 8
 86  6 11  0 53 35.0800000  0  4G 6G 8G 9G11
  20481119.756    20481122.533    -2485071.253 9  -1613522.056 8
  23741401.943    23741405.252    13954210.492 8  11194385.565 7
  20911237.058    20911239.186   -12584199.553 9  -9367089.401 8
  20772376.722    20772378.973    -1144033.901 8   -499542.261 8
 86  6 11  0 53 41.0800000  0  4G 6G 8G 9G11
  20481803.552    20481804.845    -2481482.062 9  -1610725.293 8
  23745543.339    23745546.982    13975975.454 8  11211345.256 8
  20908745.580    20908746.813   -12597294.252 9  -9377293.060 8
  20773696.629    20773699.599    -1137096.586 9   -494136.569 8
 86  6 11  0 53 47.0800000  0  4G 6G 8G 9G11
  20482490.777    20482490.953    -2477872.090 8  -1607912.318 8
  23749685.930    23749690.476    13997743.713 9  11228307.536 8
  20906256.865    20906257.899   -12610375.284 9  -9387486.075 7
  20775021.032    20775023.042    -1130140.445 8   -488716.210 8
 86  6 11  0 53 53.0800000  0  4G 6G 8G 9G11
  20483181.842    20483182.316    -2474241.318 9  -1605083.144 8
  23753829.033    23753831.569    14019515.334 8  11245272.403 8
  20903769.533    20903770.279   -12623442.646 9  -9397668.425 8
  20776347.923    20776350.104    -1123165.467 9   -483281.149 8
 86  6 11  0 53 59.0800000  0  4G 6G 8G 9G11
  20483876.434    20483877.573    -2470589.686 9  -1602237.732 7
  23757972.475    23757975.568    14041290.265 8  11262239.878 8
  20901285.887    20901286.940   -12636496.160 9  -9407839.992 8
  20777679.022    20777682.747    -1116171.627 8   -477831.409 8
 86  6 11  0 54  5.0800000  0  4G 6G 8G 9G11
  20484575.358    20484577.340    -2466917.307 9  -1599376.137 8
  23762117.490    23762120.713    14063068.406 8  11279209.855 7
  20898804.447    20898805.762   -12649535.963 9  -9418000.871 7
  20779013.382    20779015.534    -1109159.056 9   -472367.069 8
 86  6 11  0 54 11.0800000  0  4G 6G 8G 9G11
  20485277.816    20485278.490    -2463224.080 9  -1596498.302 8
  23766262.562    23766265.936    14084849.799 8  11296182.361 8
  20896325.294    20896327.205   -12662562.066 9  -9428151.095 8
  20780350.948    20780352.528    -1102127.685 9   -466888.088 7
 86  6 11  0 54 17.0800000  0  4G 6G 8G 9G11
  20485984.608    20485985.643    -2459510.110 9  -1593604.303 7
  23770407.693    23770411.394    14106634.381 8  11313157.344 6
  20893850.014    20893850.414   -12675574.308 9  -9438290.505 8
  20781692.606    20781695.675    -1095077.607 9   -461394.507 8
 86  6 11  0 54 23.0800000  0  4G 6G 8G 9G11
  20486695.666    20486696.742    -2455775.236 9  -1590694.013 8
  23774553.595    23774556.261    14128422.184 8  11330134.842 7
  20891375.754    20891376.735   -12688572.739 9  -9448419.147 8
  20783037.957    20783040.350    -1088008.733 9   -455886.297 8
 86  6 11  0 54 29.0800000  0  4G 6G 8G 9G11
  20487410.246    20487411.346    -2452019.527 9  -1587767.488 8
  23778701.143    23778703.257    14150213.162 8  11347114.846 7
  20888903.787    20888906.909   -12701557.250 9  -9458536.952 9
  20784387.885    20784389.250    -1080921.104 9   -450363.466 8
 86  6 11  0 54 35.0800000  0  4G 6G 8G 9G11
  20488129.165    20488129.818    -2448242.908 9  -1584824.678 7
  23782847.912    23782849.866    14172007.371 8  11364097.330 7
  20886436.043    20886438.336   -12714527.866 9  -9468643.919 8
  20785738.615    20785741.784    -1073814.768 9   -444826.074 7
 86  6 11  0 54 41.0800000  0  4G 6G 8G 9G11
  20488851.853    20488853.018    -2444445.494 8  -1581865.651 7
  23786995.609    23787000.046    14193804.717 8  11381082.259 7
  20883969.902    20883972.642   -12727484.579 9  -9478740.049 8
  20787095.355    20787097.421    -1066689.743 9   -439274.100 8
 86  6 11  0 54 47.0800000  0  4G 6G 8G 9G11
  20489578.560    20489579.678    -2440627.196 9  -1578890.347 7
  23791143.730    23791147.136    14215605.183 8  11398069.635 8
  20881507.462    20881509.196   -12740427.351 9  -9488825.328 8
  20788454.043    20788455.764    -1059546.098 8   -433707.617 8
 86  6 11  0 54 53.0800000  0  4G 6G 8G 9G11
  20490309.008    20490310.069    -2436788.070 9  -1575898.837 8
  23795293.659    23795296.266    14237408.668 8  11415059.347 7
  20879047.973    20879049.287   -12753356.331 9  -9498899.861 8
  20789817.164    20789820.732    -1052383.815 9   -428126.628 7
 86  6 11  0 54 59.0800000  0  4G 6G 8G 9G11
  20491043.396    20491044.648    -2432928.049 9  -1572891.024 8
  23799443.862    23799445.374    14259215.248 8  11432051.473 7
  20876590.104    20876592.190   -12766271.204 9  -9508963.392 8
  20791183.406    20791185.686    -1045202.874 9   -422531.093 8
 86  6 11  0 55  5.0800000  0  4G 6G 8G 9G11
  20491781.260    20491782.862    -2429047.086 9  -1569866.898 8
  23803593.871    23803597.336    14281024.915 9  11449046.014 7
  20874134.869    20874137.111   -12779172.177 9  -9519016.095 8
  20792554.140    20792556.750    -1038003.271 9   -416921.021 8
 86  6 11  0 55 11.0800000  0  4G 6G 8G 9G11
  20492523.949    20492525.077    -2425145.220 9  -1566826.488 8
  23807743.256    23807747.460    14302837.620 7  11466042.918 8
  20871682.290    20871683.960   -12792059.076 9  -9529057.839 8
  20793928.852    20793929.000    -1030785.028 8   -411296.410 8
 86  6 11  0 55 17.0800000  0  4G 6G 8G 9G11
  20493270.856    20493272.511    -2421222.495 9  -1563769.819 8
  23811896.379    23811897.269    14324653.321 9  11483042.169 7
  20869233.129    20869235.249   -12804931.932 9  -9539088.627 9
  20795304.653    20795306.362    -1023548.160 9   -405657.295 8
 86  6 11  0 55 23.0800000  0  4G 6G 8G 9G11
  20494021.442    20494021.907    -2417278.866 9  -1560696.859 9
  23816048.262    23816050.125    14346471.959 8  11500043.697 7
  20866785.848    20866787.655   -12817790.813 8  -9549108.542 8
  20796685.117    20796687.485    -1016292.749 8   -400003.726 7
 86  6 11  0 55 29.0800000  0  4G 6G 8G 9G11
  20494775.714    20494775.276    -2413314.299 9  -1557607.582 8
  23820200.117    23820202.560    14368293.606 9  11517047.579 8
  20864342.130    20864343.118   -12830635.475 9  -9559117.366 8
  20798069.159    20798071.797    -1009018.745 9   -394335.676 7
 86  6 11  0 55 35.0800000  0  4G 6G 8G 9G11
  20495534.383    20495534.940    -2409328.808 9  -1554502.017 7
  23824353.060    23824356.117    14390118.185 8  11534053.726 8
  20861900.072    20861902.087   -12843466.055 9  -9569115.216 7
  20799456.979    20799459.703    -1001726.260 9   -388653.212 8
 86  6 11  0 55 41.0800000  0  4G 6G 8G 9G11
  20496296.115    20496298.268    -2405322.361 8  -1551380.109 8
  23828506.188    23828510.648    14411945.714 9  11551062.176 8
  20859461.857    20859462.409   -12856282.461 9  -9579102.024 8
  20800847.861    20800850.929     -994415.216 9   -382956.305 7
 86  6 11  0 55 47.0800000  0  4G 6G 8G 9G11
  20497062.466    20497063.769    -2401295.009 8  -1548241.922 8
  23832660.613    23832663.313    14433776.154 8  11568072.903 8
  20857025.541    20857027.762   -12869084.777 9  -9589077.852 8
  20802242.607    20802245.902     -987085.707 8   -377245.004 7
 86  6 11  0 55 53.0800000  0  4G 6G 8G 9G11
  20497833.388    20497833.811    -2397246.722 9  -1545087.408 8
  23836816.266    23836818.473    14455609.414 9  11585085.825 8
  20854592.206    20854593.081   -12881872.904 9  -9599042.623 8
  20803640.757    20803643.268     -979737.672 9   -371519.262 8
 86  6 11  0 55 59.0800000  0  4G 6G 8G 9G11
  20498607.196    20498607.975    -2393177.491 9  -1541916.590 8
  23840971.104    23840973.348    14477445.539 9  11602100.993 8
  20852160.953    20852163.273   -12894646.870 9  -9608996.353 8
  20805042.830    20805045.109     -972371.159 9   -365779.120 8
 86  6 11  0 56  5.0800000  0  4G 6G 8G 9G11
  20499386.431    20499387.025    -2389087.292 9  -1538729.432 8
  23845128.068    23845129.309    14499284.465 9  11619118.327 8
  20849732.983    20849733.468   -12907406.641 9  -9618939.035 8
  20806447.333    20806450.387     -964986.248 9   -360024.643 8
 86  6 11  0 56 11.0800000  0  4G 6G 8G 9G11
  20500168.612    20500168.593    -2384976.185 9  -1535525.963 7
  23849283.293    23849285.006    14521126.238 8  11636137.875 8
  20847307.607    20847309.736   -12920152.159 9  -9628870.605 8
  20807857.303    20807860.613     -957582.910 9   -354255.808 7
 86  6 11  0 56 17.0800000  0  4G 6G 8G 9G11
  20500954.744    20500955.364    -2380843.989 9  -1532306.076 8
  23853439.884    23853443.300    14542970.826 7  11653159.615 8
  20844885.264    20844886.236   -12932883.351 9  -9638791.017 8
  20809268.962    20809270.672     -950161.064 9   -348472.557 8
 86  6 11  0 56 23.0800000  0  4G 6G 8G 9G11
  20501746.009    20501746.351    -2376690.817 9  -1529069.832 9
  23857597.792    23857600.514    14564818.170 8  11670183.524 8
  20842464.543    20842466.164   -12945600.220 9  -9648700.258 8
  20810684.772    20810688.352     -942720.748 9   -342674.910 8
 86  6 11  0 56 29.0800000  0  4G 6G 8G 9G11
  20502540.023    20502539.601    -2372516.650 9  -1525817.236 7
  23861754.398    23861758.193    14586668.333 8  11687209.610 8
  20840046.947    20840049.514   -12958302.657 9  -9658598.273 7
  20812104.844    20812108.197     -935261.997 9   -336862.904 8
 86  6 11  0 56 35.0800000  0  4G 6G 8G 9G11
  20503337.314    20503338.678    -2368321.509 9  -1522548.305 8
  23865914.086    23865916.572    14608521.137 9  11704237.771 8
  20837632.590    20837635.353   -12970990.856 9  -9668485.169 8
  20813527.005    20813530.260     -927784.968 9   -331036.644 8
 86  6 11  0 56 41.0800000  0  4G 6G 8G 9G11
  20504138.833    20504141.002    -2364105.347 9  -1519262.991 7
  23870073.346    23870077.113    14630376.683 8  11721268.042 8
  20835220.359    20835223.827   -12983664.586 9  -9678360.812 8
  20814954.147    20814955.498     -920289.581 9   -325196.083 8
 86  6 11  0 56 47.0800000  0  4G 6G 8G 9G11
  20504946.005    20504946.254    -2359868.243 9  -1515961.348 8
  23874233.108    23874235.543    14652234.860 8  11738300.389 9
  20832811.982    20832813.844   -12996324.115 9  -9688225.375 8
  20816383.922    20816385.946     -912775.881 9   -319341.261 8
 86  6 11  0 56 53.0800000  0  4G 6G 8G 9G11
  20505755.989    20505757.296    -2355610.109 9  -1512643.349 8
  23878393.069    23878395.112    14674095.756 9  11755334.840 9
  20830405.138    20830407.826   -13008969.164 9  -9698078.655 8
  20817817.187    20817819.811     -905243.820 9   -313472.122 8
 86  6 11  0 56 59.0800000  0  4G 6G 8G 9G11
  20506569.913    20506571.245    -2351330.948 9  -1509308.931 8
  23882552.601    23882556.226    14695959.348 8  11772371.387 9
  20828001.947    20828004.747   -13021599.784 9  -9707920.685 8
  20819254.487    20819257.127     -897693.421 9   -307588.690 8
 86  6 11  0 57  5.0800000  0  4G 6G 8G 9G11
  20507388.530    20507388.739    -2347030.756 9  -1505958.136 7
  23886713.570    23886716.900    14717825.446 9  11789409.890 9
  20825601.345    20825603.873   -13034216.041 9  -9717751.531 9
  20820694.565    20820695.931     -890124.808 9   -301691.077 8
 86  6 11  0 57 11.0800000  0  4G 6G 8G 9G11
  20508211.162    20508212.033    -2342709.565 9  -1502590.985 8
  23890875.191    23890878.443    14739694.183 8  11806450.443 8
  20823203.481    20823203.894   -13046817.775 9  -9727571.068 8
  20822138.935    20822140.572     -882537.901 9   -295779.194 7
 86  6 11  0 57 17.0800000  0  4G 6G 8G 9G11
  20509037.171    20509038.267    -2338367.274 9  -1499207.386 7
  23895037.978    23895039.879    14761565.512 7  11823493.030 8
  20820808.058    20820810.976   -13059404.953 9  -9737379.254 8
  20823585.135    20823587.618     -874932.701 9   -289853.064 7
 86  6 11  0 57 23.0800000  0  4G 6G 8G 9G11
  20509867.836    20509867.792    -2334003.999 9  -1495807.426 8
  23899199.929    23899202.944    14783439.340 9  11840537.565 9
  20818415.085    20818417.885   -13071977.582 9  -9747176.105 8
  20825036.431    20825038.754     -867309.318 9   -283912.769 8
 86  6 11  0 57 29.0800000  0  4G 6G 8G 9G11
  20510702.389    20510703.139    -2329619.668 9  -1492391.071 8
  23903362.638    23903365.073    14805315.679 8  11857584.049 9
  20816026.538    20816027.748   -13084535.733 9  -9756961.689 8
  20826489.729    20826491.982     -859667.757 8   -277958.311 8
 86  6 11  0 57 35.0800000  0  4G 6G 8G 9G11
  20511540.385    20511539.901    -2325214.284 9  -1488958.297 7
  23907526.370    23907529.162    14827194.577 8  11874632.530 9
  20813638.727    20813640.317   -13097079.274 9  -9766735.877 8
  20827947.293    20827949.860     -852007.981 9   -271989.646 8
 86  6 11  0 57 41.0800000  0  4G 6G 8G 9G11
  20512382.437    20512383.844    -2320787.818 9  -1485509.130 9
  23911689.722    23911693.574    14849075.883 9  11891682.889 9
  20811254.784    20811256.538   -13109608.289 9  -9776498.744 9
  20829408.547    20829411.571     -844330.032 9   -266006.837 8
 86  6 11  0 57 47.0800000  0  4G 6G 8G 9G11
  20513229.163    20513230.944    -2316340.315 8  -1482043.541 7
  23915854.433    23915858.013    14870959.700 9  11908735.200 9
  20808872.850    20808875.321   -13122122.584 9  -9786250.138 7
  20830872.692    20830876.174     -836633.900 9   -260009.852 7
 86  6 11  0 57 53.0800000  0  4G 6G 8G 9G11
  20514079.429    20514080.751    -2311871.671 9  -1478561.472 6
  23920019.725    23920022.512    14892845.980 8  11925789.435 9
  20806495.203    20806497.243   -13134622.331 9  -9795990.204 8
  20832340.987    20832344.240     -828919.600 9   -253998.712 7
 86  6 11  0 57 59.0800000  0  4G 6G 8G 9G11
  20514933.168    20514935.226    -2307382.045 9  -1475063.071 7
  23924183.964    23924187.438    14914734.602 9  11942845.493 9
  20804119.006    20804120.940   -13147107.386 9  -9805718.817 8
  20833811.571    20833813.823     -821187.230 9   -247973.496 7
 86  6 11  0 58  5.0800000  0  4G 6G 8G 9G11
  20515792.449    20515793.213    -2302871.357 8  -1471548.249 7
  23928350.365    23928353.287    14936625.609 9  11959903.402 9
  20801744.984    20801747.925   -13159577.881 9  -9815436.093 8
  20835286.763    20835289.830     -813436.786 8   -241934.177 8
 86  6 11  0 58 11.0800000  0  4G 6G 8G 9G11
  20516654.950    20516653.981    -2298339.574 9  -1468016.997 7
  23932516.694    23932520.032    14958518.999 9  11976963.183 9
  20799375.341    20799377.953   -13172033.711 9  -9825141.928 8
  20836765.645    20836767.826     -805668.288 9   -235880.810 8
 86  6 11  0 58 17.0800000  0  4G 6G 8G 9G11
  20517520.202    20517521.677    -2293786.738 9  -1464469.332 7
  23936683.738    23936685.888    14980414.690 8  11994024.754 9
  20797007.634    20797010.652   -13184474.762 9  -9834836.242 8
  20838246.962    20838249.901     -797881.740 9   -229813.376 7
 86  6 11  0 58 23.0800000  0  4G 6G 8G 9G11
  20518390.479    20518391.336    -2289212.734 9  -1460905.167 8
  23940849.895    23940853.568    15002312.764 9  12011088.177 9
  20794644.071    20794645.428   -13196901.079 9  -9844519.104 8
  20839732.999    20839735.252     -790077.144 9   -223731.869 8
 86  6 11  0 58 29.0800000  0  4G 6G 8G 9G11
  20519265.400    20519267.305    -2284617.608 9  -1457324.562 8
  23945017.977    23945020.613    15024213.170 9  12028153.417 9
  20792281.788    20792282.991   -13209312.539 9  -9854190.361 8
  20841220.870    20841222.461     -782254.453 9   -217636.269 7
 86  6 11  0 58 35.0800000  0  4G 6G 8G 9G11
  20520144.002    20520144.774    -2280001.320 9  -1453727.453 9
  23949185.421    23949189.009    15046115.879 9  12045220.458 9
  20789923.239    20789925.057   -13221709.159 9  -9863850.063 8
  20842713.289    20842715.199     -774413.685 9   -211526.579 7
 86  6 11  0 58 41.0800000  0  4G 6G 8G 9G11
  20521026.139    20521027.758    -2275363.909 9  -1450113.878 7
  23953354.633    23953358.092    15068020.902 9  12062289.291 8
  20787567.040    20787568.181   -13234091.004 9  -9873498.260 8
  20844209.000    20844210.323     -766554.907 9   -205402.856 8
 86  6 11  0 58 47.0800000  0  4G 6G 8G 9G11
  20521911.809    20521914.165    -2270705.359 8  -1446483.850 8
  23957522.880    23957525.137    15089928.124 9  12079359.840 9
  20785213.458    20785215.594   -13246458.071 9  -9883134.930 7
  20845708.031    20845709.011     -758678.143 9   -199265.117 7
 86  6 11  0 58 53.0800000  0  4G 6G 8G 9G11
  20522802.779    20522804.286    -2266025.768 9  -1442837.418 8
  23961692.886    23961694.528    15111837.526 9  12096432.097 8
  20782863.183    20782863.257   -13258810.225 9  -9892759.985 8
  20847209.867    20847211.905     -750783.507 9   -193113.449 8
 86  6 11  0 58 59.0800000  0  4G 6G 8G 9G11
  20523698.340    20523699.487    -2261325.041 8  -1439174.515 8
  23965861.919    23965864.305    15133749.199 9  12113506.117 9
  20780515.299    20780516.246   -13271147.532 9  -9902373.476 8
  20848715.250    20848716.431     -742870.958 9   -186947.830 8
 86  6 11  0 59  5.0800000  0  4G 6G 8G 9G11
  20524596.843    20524598.308    -2256603.117 9  -1435495.101 8
  23970032.004    23970035.069    15155663.019 9  12130581.821 9
  20778170.026    20778172.173   -13283469.899 9  -9911975.330 7
  20850225.385    20850227.351     -734940.458 9   -180768.230 7
 86  6 11  0 59 11.0800000  0  4G 6G 8G 9G11
  20525499.316    20525499.730    -2251860.027 8  -1431799.188 7
  23974202.569    23974205.484    15177579.077 9  12147659.251 9
  20775827.582    20775830.331   -13295777.322 9  -9921565.511 8
  20851737.409    20851739.403     -726991.958 9   -174574.583 8
 86  6 11  0 59 17.0800000  0  4G 6G 8G 9G11
  20526405.228    20526407.593    -2247095.714 9  -1428086.737 8
  23978373.355    23978376.734    15199497.327 8  12164738.392 9
  20773488.866    20773491.232   -13308069.717 9  -9931144.009 8
  20853253.181    20853256.248     -719025.523 9   -168366.974 7
 86  6 11  0 59 23.0800000  0  4G 6G 8G 9G11
  20527316.326    20527317.382    -2242310.349 9  -1424357.875 9
  23982544.541    23982547.992    15221417.631 9  12181819.142 9
  20771152.283    20771154.673   -13320347.215 9  -9940710.882 9
  20854772.646    20854772.466     -711041.298 9   -162145.501 8
 86  6 11  0 59 29.0800000  0  4G 6G 8G 9G11
  20528230.766    20528232.676    -2237503.765 8  -1420612.496 8
  23986716.859    23986719.158    15243340.030 9  12198901.516 9
  20768819.440    20768820.264   -13332609.692 9  -9950266.064 8
  20856295.143    20856297.281     -703039.137 9   -155910.052 8
 86  6 11  0 59 35.0800000  0  4G 6G 8G 9G11
  20529149.679    20529152.339    -2232676.098 9  -1416850.680 7
  23990888.667    23990891.840    15265264.446 9  12215985.468 9
  20766487.964    20766490.345   -13344857.247 9  -9959809.610 8
  20857821.590    20857823.714     -695019.168 9   -149660.730 7
 86  6 11  0 59 41.0800000  0  4G 6G 8G 9G11
  20530072.933    20530074.212    -2227827.157 9  -1413072.288 7
  23995060.685    23995064.086    15287190.971 9  12233071.061 8
  20764161.264    20764163.881   -13357089.672 9  -9969341.359 8
  20859351.415    20859352.508     -686981.373 9   -143397.518 8
 86  6 11  0 59 47.0800000  0  4G 6G 8G 9G11
  20530998.967    20530999.616    -2222957.088 9  -1409277.428 8
  23999234.131    23999235.638    15309119.519 9  12250158.225 8
  20761837.158    20761836.804   -13369306.954 9  -9978861.319 8
  20860883.701    20860886.954     -678925.830 9   -137120.452 7
 86  6 11  0 59 53.0800000  0  4G 6G 8G 9G11
  20531930.749    20531931.777    -2218065.848 8  -1405466.078 8
  24003407.172    24003408.735    15331050.009 9  12267246.919 9
  20759514.987    20759516.470   -13381509.263 9  -9988369.623 8
  20862420.392    20862422.572     -670852.547 8   -130829.603 8
 86  6 11  0 59 59.0800000  0  4G 6G 8G 9G11
  20532865.530    20532865.842    -2213153.384 9  -1401638.175 8
  24007581.363    24007582.848    15352982.586 9  12284337.243 9
  20757194.211    20757196.961   -13393696.447 9  -9997866.123 8
  20863960.634    20863962.613     -662761.480 9   -124524.874 8
 86  6 11  1  0  5.0800000  0  4G 6G 8G 9G11
  20533804.696    20533805.074    -2208219.750 9  -1397793.790 7
  24011755.398    24011757.519    15374917.053 9  12301429.023 9
  20754878.773    20754879.737   -13405868.481 9 -10007350.832 8
  20865503.049    20865505.059     -654652.740 8   -118206.385 8
 86  6 11  1  0 11.0800000  0  4G 6G 8G 9G11
  20534747.338    20534747.462    -2203264.920 9  -1393932.883 9
  24015929.138    24015931.595    15396853.460 9  12318522.330 9
  20752566.096    20752567.003   -13418025.307 9 -10016823.686 8
  20867049.244    20867051.825     -646526.260 9   -111874.051 8
 86  6 11  1  0 17.0800000  0  4G 6G 8G 9G11
  20535694.553    20535695.266    -2198288.967 9  -1390055.521 8
  24020103.853    24020105.573    15418791.785 9  12335617.102 9
  20750254.789    20750255.413   -13430167.087 9 -10026284.803 9
  20868599.445    20868600.580     -638382.124 9   -105527.970 8
 86  6 11  1  0 23.0800000  0  4G 6G 8G 9G11
  20536645.717    20536646.948    -2193291.745 9  -1386161.584 8
  24024279.238    24024282.483    15440732.015 9  12352713.381 9
  20747947.404    20747948.919   -13442293.713 9 -10035734.130 8
  20870151.362    20870154.374     -630220.257 9    -99168.072 8
 86  6 11  1  0 29.0800000  0  4G 6G 8G 9G11
  20537598.841    20537601.186    -2188273.324 9  -1382251.134 8
  24028455.141    24028457.240    15462674.062 9  12369811.069 9
  20745643.261    20745645.233   -13454404.994 9 -10045171.486 8
  20871708.288    20871711.597     -622040.738 9    -92794.430 8
 86  6 11  1  0 35.0800000  0  4G 6G 8G 9G11
  20538558.462    20538559.113    -2183233.721 9  -1378324.173 7
  24032629.418    24032632.705    15484617.965 9  12386910.203 8
  20743341.116    20743341.332   -13466501.144 9 -10054597.060 7
  20873268.591    20873270.513     -613843.582 9    -86407.037 7
 86  6 11  1  0 41.0800000  0  4G 6G 8G 9G11
  20539522.271    20539523.304    -2178172.913 9  -1374380.698 8
  24036807.423    24036809.479    15506563.684 9  12404010.738 8
  20741040.761    20741043.802   -13478582.082 9 -10064010.777 8
  20874831.441    20874834.237     -605628.819 9    -80005.920 7
 86  6 11  1  0 47.0800000  0  4G 6G 8G 9G11
  20540489.418    20540489.799    -2173090.880 9  -1370420.674 8
  24040983.433    24040985.674    15528511.265 9  12421112.749 8
  20738746.266    20738746.651   -13490647.675 9 -10073412.525 7
  20876398.612    20876401.378     -597396.427 9    -73591.077 8
 86  6 11  1  0 53.0800000  0  4G 6G 8G 9G11
  20541459.965    20541461.068    -2167987.631 9  -1366444.120 9
  24045159.306    24045162.470    15550460.540 9  12438216.062 8
  20736453.247    20736453.173   -13502697.929 9 -10082802.336 7
  20877968.788    20877970.497     -589146.472 9    -67162.543 8
 86  6 11  1  0 59.0800000  0  4G 6G 8G 9G11
  20542435.791    20542436.783    -2162863.117 9  -1362450.990 7
  24049337.503    24049339.395    15572411.672 9  12455320.847 9
  20734162.807    20734164.411   -13514732.840 9 -10092180.188 8
  20879541.768    20879544.421     -580878.910 9    -60720.285 7
 86  6 11  1  1  5.0800000  0  4G 6G 8G 9G11
  20543414.114    20543414.611    -2157717.322 9  -1358441.272 8
  24053515.486    24053516.735    15594364.588 9  12472426.989 8
  20731875.606    20731875.170   -13526752.453 9 -10101546.121 8
  20881118.641    20881120.278     -572593.747 9    -54264.317 8
 86  6 11  1  1 11.0800000  0  4G 6G 8G 9G11
  20544398.218    20544397.150    -2152550.252 8  -1354414.996 8
  24057693.185    24057695.262    15616319.203 9  12489534.482 9
  20729591.095    20729591.522   -13538756.600 9 -10110900.005 8
  20882698.061    20882701.214     -564291.016 9    -47794.654 8
 86  6 11  1  1 17.0800000  0  4G 6G 8G 9G11
  20545384.818    20545385.047    -2147361.929 9  -1350372.144 7
  24061870.688    24061873.189    15638275.567 9  12506643.334 9
  20727309.547    20727310.923   -13550745.350 9 -10120241.896 8
  20884281.515    20884284.370     -555970.789 9    -41311.373 8
 86  6 11  1  1 23.0800000  0  4G 6G 8G 9G11
  20546376.170    20546377.111    -2142152.379 9  -1346312.758 7
  24066048.944    24066051.437    15660233.601 9  12523753.480 9
  20725030.575    20725031.385   -13562718.720 9 -10129571.795 8
  20885868.176    20885871.086     -547633.007 9    -34814.399 9
 86  6 11  1  1 29.0800000  0  4G 6G 8G 9G11
  20547370.088    20547374.198    -2136921.479 8  -1342236.733 7
  24070228.901    24070230.715    15682193.363 9  12540864.985 8
  20722755.035    20722756.732   -13574676.614 9 -10138889.637 8
  20887458.386    20887460.966     -539277.692 9    -28303.756 8
 86  6 11  1  1 35.0800000  0  4G 6G 8G 9G11
  20548371.223    20548372.410    -2131669.304 9  -1338144.145 8
  24074407.186    24074409.457    15704154.769 9  12557977.750 8
  20720482.616    20720484.608   -13586618.950 9 -10148195.352 7
  20889051.456    20889054.352     -530904.929 9    -21779.539 7
 86  6 11  1  1 41.0800000  0  4G 6G 8G 9G11
  20549373.723    20549375.433    -2126395.971 9  -1334035.049 7
  24078585.485    24078588.314    15726117.747 9  12575091.769 8
  20718213.336    20718214.200   -13598545.868 9 -10157489.054 7
  20890648.820    20890649.727     -522514.737 9    -15241.723 7
 86  6 11  1  1 47.0800000  0  4G 6G 8G 9G11
  20550380.384    20550383.154    -2121101.339 9  -1329909.372 7
  24082765.965    24082769.223    15748082.262 8  12592206.953 9
  20715946.341    20715947.520   -13610457.343 9 -10166770.713 8
  20892248.014    20892250.782     -514107.184 9     -8690.385 8
 86  6 11  1  1 53.0800000  0  4G 6G 8G 9G11
  20551393.761    20551394.499    -2115785.495 9  -1325767.151 8
  24086945.816    24086949.132    15770048.367 9  12609323.386 8
  20713683.139    20713683.005   -13622353.358 9 -10176040.340 8
  20893851.417    20893853.297     -505682.258 9     -2125.499 8
 86  6 11  1  1 59.0800000  0  4G 6G 8G 9G11
  20552409.223    20552410.306    -2110448.421 9  -1321608.394 8
  24091126.619    24091129.842    15792015.977 9  12626440.999 9
  20711422.137    20711422.674   -13634233.843 9 -10185297.854 8
  20895457.652    20895458.745     -497240.004 9      4452.876 8
 86  6 11  1  2  5.0800000  0  4G 6G 8G 9G11
  20553428.832    20553429.369    -2105090.091 9  -1317433.067 7
  24095306.513    24095308.791    15813985.115 9  12643559.789 9
  20709164.142    20709164.054   -13646098.763 9 -10194543.241 7
  20897067.752    20897069.988     -488780.432 9     11044.748 7
 86  6 11  1  2 11.0800000  0  4G 6G 8G 9G11
  20554451.963    20554452.735    -2099710.403 9  -1313241.110 8
  24099487.423    24099489.622    15835955.765 9  12660679.779 8
  20706909.489    20706910.435   -13657948.040 9 -10203776.458 8
  20898680.111    20898682.892     -480303.515 9     17650.139 9
 86  6 11  1  2 17.0800000  0  4G 6G 8G 9G11
  20555481.170    20555481.590    -2094309.417 9  -1309032.558 8
  24103669.141    24103671.871    15857927.957 8  12677800.954 8
  20704657.422    20704658.160   -13669781.608 9 -10212997.426 7
  20900297.621    20900299.459     -471809.298 9     24269.012 7
 86  6 11  1  2 23.0800000  0  4G 6G 8G 9G11
  20556512.577    20556513.668    -2088887.091 9  -1304807.360 9
  24107850.780    24107852.308    15879901.666 8  12694923.323 8
  20702408.675    20702410.007   -13681599.525 9 -10222206.185 8
  20901916.564    20901919.874     -463297.741 9     30901.379 7
 86  6 11  1  2 29.0800000  0  4G 6G 8G 9G11
  20557547.958    20557548.747    -2083443.433 9  -1300565.562 8
  24112031.326    24112034.376    15901876.850 9  12712046.840 8
  20700162.164    20700163.396   -13693401.703 9 -10231402.680 8
  20903539.826    20903541.950     -454768.833 9     37547.291 9
 86  6 11  1  2 35.0800000  0  4G 6G 8G 9G11
  20558588.490    20558588.241    -2077978.437 9  -1296307.122 9
  24116213.415    24116216.804    15923853.531 8  12729171.502 8
  20697919.742    20697920.734   -13705188.283 9 -10240587.022 8
  20905166.553    20905168.648     -446222.574 9     44206.701 7
 86  6 11  1  2 41.0800000  0  4G 6G 8G 9G11
  20559632.431    20559632.929    -2072492.119 8  -1292032.068 7
  24120396.007    24120399.173    15945831.562 9  12746297.243 9
  20695680.271    20695681.484   -13716959.120 9 -10249759.109 7
  20906795.969    20906797.247     -437659.133 9     50879.514 8
 86  6 11  1  2 47.0800000  0  4G 6G 8G 9G11
  20560680.490    20560681.418    -2066984.533 9  -1287740.458 8
  24124579.027    24124580.955    15967810.965 8  12763424.061 8
  20693442.498    20693444.361   -13728714.234 9 -10258918.945 8
  20908428.705    20908430.585     -429078.490 9     57565.724 9
 86  6 11  1  2 53.0800000  0  4G 6G 8G 9G11
  20561732.608    20561733.987    -2061455.577 9  -1283432.173 8
  24128761.140    24128766.300    15989791.789 8  12780551.960 8
  20691208.458    20691210.868   -13740453.605 9 -10268066.494 8
  20910065.676    20910066.825     -420480.528 9     64265.430 8
 86  6 11  1  2 59.0800000  0  4G 6G 8G 9G11
  20562788.586    20562789.701    -2055905.315 9  -1279107.290 8
  24132944.825    24132947.304    16011774.001 7  12797680.949 8
  20688977.464    20688979.964   -13752177.148 9 -10277201.730 8
  20911704.364    20911706.087     -411865.361 9     70978.554 8
 86  6 11  1  3  5.0800000  0  4G 6G 8G 9G11
  20563849.037    20563850.384    -2050333.722 9  -1274765.797 8
  24137127.937    24137131.891    16033757.519 7  12814810.953 8
  20686750.369    20686752.172   -13763884.914 8 -10286324.657 8
  20913346.974    20913349.726     -403233.019 9     77705.048 8
 86  6 11  1  3 11.0800000  0  4G 6G 8G 9G11
  20564913.374    20564914.683    -2044740.796 9  -1270407.674 8
  24141311.030    24141314.857    16055742.325 7  12831941.952 7
  20684525.601    20684526.892   -13775576.830 9 -10295435.234 9
  20914993.646    20914995.012     -394583.522 9     84444.911 8
 86  6 11  1  3 17.0800000  0  4G 6G 8G 9G11
  20565982.158    20565982.954    -2039126.493 8  -1266032.891 8
  24145495.060    24145498.711    16077728.429 7  12849073.962 8
  20682303.056    20682306.110   -13787252.832 9 -10304533.430 8
  20916642.151    20916643.974     -385916.865 9     91198.152 8
 86  6 11  1  3 23.0800000  0  4G 6G 8G 9G11
  20567053.426    20567055.027    -2033490.925 9  -1261641.547 8
  24149679.877    24149682.797    16099715.738 7  12866206.918 7
  20680084.413    20680087.219   -13798913.093 9 -10313619.335 8
  20918295.034    20918296.971     -377233.144 9     97964.690 8
 86  6 11  1  3 29.0800000  0  4G 6G 8G 9G11
  20568130.239    20568130.802    -2027833.935 9  -1257233.517 8
  24153863.113    24153866.770    16121704.354 8  12883340.903 8
  20677868.243    20677870.414   -13810557.393 9 -10322692.814 9
  20919950.007    20919952.803     -368532.276 9    104744.584 9
 86  6 11  1  3 35.0800000  0  4G 6G 8G 9G11
  20569210.054    20569212.187    -2022155.612 9  -1252808.847 8
  24158049.988    24158052.660    16143694.199 7  12900475.846 8
  20675656.411    20675658.035   -13822185.701 9 -10331753.834 8
  20921610.044    20921611.767     -359814.298 8    111537.814 8
 86  6 11  1  3 41.0800000  0  4G 6G 8G 9G11
  20570294.275    20570296.684    -2016455.881 9  -1248367.499 8
  24162235.204    24162236.059    16165685.343 7  12917611.801 8
  20673446.843    20673447.796   -13833798.026 9 -10340802.408 8
  20923272.200    20923274.152     -351079.177 9    118344.401 8
 86  6 11  1  3 47.0800000  0  4G 6G 8G 9G11
  20571383.487    20571384.845    -2010734.753 9  -1243909.484 8
  24166419.027    24166421.691    16187677.665 6  12934748.678 6
  20671240.172    20671240.563   -13845394.411 9 -10349838.544 8
  20924937.447    20924939.813     -342327.009 9    125164.270 7
 86  6 11  1  3 53.0800000  0  4G 6G 8G 9G11
  20572476.599    20572478.302    -2004992.194 8  -1239434.768 8
  24170603.234    24170606.257    16209671.167 6  12951886.445 6
  20669035.934    20669037.463   -13856974.872 9 -10358862.279 8
  20926605.269    20926607.406     -333557.793 9    131997.421 8
 86  6 11  1  3 59.0800000  0  4G 6G 8G 9G11
  20573573.329    20573574.524    -1999228.323 9  -1234943.440 8
  24174789.425    24174792.161    16231665.829 6  12969025.117 7
  20666834.668    20666836.537   -13868539.223 9 -10367873.454 7
  20928277.784    20928279.965     -324771.532 9    138843.862 7
 86  6 11  1  4  5.0800000  0  4G 6G 8G 9G11
  20574674.208    20574676.163    -1993443.142 9  -1230435.508 8
  24178973.591    24178978.601    16253661.606 6  12986164.675 7
  20664638.385    20664638.989   -13880087.586 9 -10376872.179 8
  20929952.932    20929955.600     -315968.280 9    145703.533 8
 86  6 11  1  4 11.0800000  0  4G 6G 8G 9G11
  20575779.496    20575780.563    -1987636.507 9  -1225910.854 8
  24183159.343    24183163.189    16275658.537 5  13003305.109 7
  20662443.463    20662442.928   -13891619.857 9 -10385858.368 8
  20931630.800    20931633.909     -307148.032 9    152576.450 7
 86  6 11  1  4 17.0800000  0  4G 6G 8G 9G11
  20576887.722    20576890.123    -1981808.457 9  -1221369.531 8
  24187345.483    24187351.088    16297656.611 5  13020446.422 6
  20660251.721    20660253.220   -13903136.030 9 -10394832.012 7
  20933313.218    20933314.352     -298310.826 9    159462.585 9
 86  6 11  1  4 23.0800000  0  4G 6G 8G 9G11
  20578001.027    20578003.120    -1975958.998 9  -1216811.525 8
  24191529.918    24191537.386    16319655.724 6  13037588.581 7
  20658063.839    20658065.214   -13914636.144 9 -10403793.136 7
  20934997.009    20935000.777     -289456.654 9    166361.933 8
 86  6 11  1  4 29.0800000  0  4G 6G 8G 9G11
  20579118.305    20579120.541    -1970088.202 9  -1212236.870 8
  24195718.691    24195721.946    16341655.870 6  13054731.552 7
  20655878.931    20655879.663   -13926120.084 9 -10412741.653 7
  20936686.265    20936688.260     -280585.537 9    173274.503 8
 86  6 11  1  4 35.0800000  0  4G 6G 8G 9G11
  20580240.274    20580242.132    -1964196.080 8  -1207645.618 9
  24199905.355    24199910.088    16363656.982 6  13071875.270 7
  20653696.003    20653696.466   -13937587.929 9 -10421677.642 7
  20938376.754    20938380.606     -271697.552 9    180200.199 8
 86  6 11  1  4 41.0800000  0  4G 6G 8G 9G11
  20581365.455    20581366.530    -1958282.460 9  -1203037.602 8
  24204090.516    24204096.891    16385659.131 5  13089019.790 7
  20651516.576    20651518.091   -13949039.616 9 -10430601.038 8
  20940070.847    20940073.500     -262792.685 9    187139.047 8
 86  6 11  1  4 47.0800000  0  4G 6G 8G 9G11
  20582494.294    20582496.174    -1952347.434 9  -1198412.908 8
  24208275.290    24208283.462    16407662.310 3  13106165.094 7
  20649340.226    20649341.577   -13960475.001 9 -10439511.716 8
  20941768.605    20941771.914     -253870.943 9    194091.052 9
 86  6 11  1  4 53.0800000  0  4G 6G 8G 9G11
  20583627.472    20583629.750    -1946391.014 9  -1193771.556 8
  24212465.084    24212469.895    16429666.485 6  13123311.175 7
  20647168.185    20647168.971   -13971894.239 9 -10448409.813 7
  20943469.422    20943473.220     -244932.344 9    201056.189 8
 86  6 11  1  4 59.0800000  0  4G 6G 8G 9G11
  20584765.319    20584766.736    -1940413.201 9  -1189113.514 8
  24216654.321    24216656.965    16451671.611 5  13140457.996 6
  20644998.145    20644999.253   -13983297.271 8 -10457295.305 7
  20945174.449    20945177.130     -235976.896 9    208034.459 8
 86  6 11  1  5  5.0800000  0  4G 6G 8G 9G11
  20585908.612    20585908.830    -1934414.019 9  -1184438.835 8
  24220841.128    24220845.829    16473677.549 6  13157605.492 7
  20642831.597    20642832.291   -13994684.130 9 -10466168.175 8
  20946882.108    20946883.959     -227004.686 9    215025.786 7
 86  6 11  1  5 11.0800000  0  4G 6G 8G 9G11
  20587053.519    20587054.403    -1928393.396 9  -1179747.446 8
  24225030.150    24225033.537    16495684.450 6  13174753.698 6
  20640667.449    20640667.634   -14006054.591 9 -10475028.275 8
  20948592.342    20948594.765     -218015.638 9    222030.240 9
 86  6 11  1  5 17.0800000  0  4G 6G 8G 9G11
  20588202.841    20588204.706    -1922351.353 9  -1175039.371 9
  24229218.921    24229220.351    16517692.212 8  13191902.618 7
  20638507.041    20638507.280   -14017408.764 9 -10483875.683 8
  20950306.125    20950308.163     -209009.790 9    229047.772 8
 86  6 11  1  5 23.0800000  0  4G 6G 8G 9G11
  20589357.754    20589359.304    -1916287.800 9  -1170314.518 7
  24233405.780    24233410.611    16539700.858 8  13209052.193 7
  20636349.082    20636350.625   -14028746.520 9 -10492710.297 8
  20952022.313    20952025.079     -199987.225 9    236078.353 8
 86  6 11  1  5 29.0800000  0  4G 6G 8G 9G11
  20590515.220    20590515.901    -1910202.879 9  -1165573.030 8
  24237593.056    24237596.901    16561710.315 8  13226202.406 7
  20634194.429    20634195.159   -14040067.962 9 -10501532.200 8
  20953743.478    20953745.787     -190947.973 9    243121.912 8
 86  6 11  1  5 35.0800000  0  4G 6G 8G 9G11
  20591677.249    20591679.249    -1904096.583 9  -1160814.877 8
  24241782.407    24241785.981    16583720.594 7  13243353.276 7
  20632043.127    20632043.065   -14051373.085 9 -10510341.388 7
  20955466.363    20955469.615     -181892.021 9    250178.504 9
 86  6 11  1  5 41.0800000  0  4G 6G 8G 9G11
  20592843.465    20592843.609    -1897968.825 9  -1156039.994 8
  24245970.866    24245973.909    16605731.668 8  13260504.751 7
  20629895.410    20629895.674   -14062661.899 9 -10519137.864 8
  20957193.425    20957195.819     -172819.390 9    257248.080 8
 86  6 11  1  5 47.0800000  0  4G 6G 8G 9G11
  20594012.860    20594014.609    -1891819.673 8  -1151248.441 8
  24250160.175    24250163.227    16627743.516 8  13277656.830 7
  20627749.782    20627750.997   -14073934.248 9 -10527921.514 8
  20958923.234    20958926.473     -163730.050 9    264330.676 8
 86  6 11  1  5 53.0800000  0  4G 6G 8G 9G11
  20595187.042    20595189.909    -1885649.080 9  -1146440.194 8
  24254348.490    24254351.047    16649756.085 8  13294809.485 7
  20625608.602    20625609.470   -14085190.119 8 -10536692.322 9
  20960656.020    20960657.914     -154624.011 9    271426.285 8
 86  6 11  1  5 59.0800000  0  4G 6G 8G 9G11
  20596365.577    20596367.813    -1879456.957 8  -1141615.162 8
  24258536.419    24258540.185    16671769.471 9  13311962.765 7
  20623469.277    20623470.723   -14096429.568 9 -10545450.333 8
  20962391.954    20962393.848     -145501.297 9    278534.896 9
 86  6 11  1  6  5.0800000  0  4G 6G 8G 9G11
  20597548.030    20597549.624    -1873243.381 9  -1136773.423 8
  24262726.299    24262729.303    16693783.615 8  13329116.620 7
  20621333.512    20621335.977   -14107652.477 9 -10554195.453 7
  20964131.093    20964132.916     -136361.960 9    285656.457 8
 86  6 11  1  6 11.0800000  0  4G 6G 8G 9G11
  20598734.201    20598736.595    -1867008.366 9  -1131914.973 9
  24266916.275    24266920.356    16715798.517 9  13346271.089 7
  20619200.816    20619202.701   -14118858.931 9 -10562927.756 7
  20965873.924    20965875.718     -127206.001 9    292790.968 8
 86  6 11  1  6 17.0800000  0  4G 6G 8G 9G11
  20599925.287    20599927.542    -1860751.899 8  -1127039.809 8
  24271106.000    24271109.737    16737814.074 8  13363426.073 6
  20617071.576    20617073.605   -14130048.842 9 -10571647.165 8
  20967618.844    20967621.367     -118033.481 9    299938.374 9
 86  6 11  1  6 23.0800000  0  4G 6G 8G 9G11
  20601120.707    20601121.214    -1854473.970 8  -1122147.917 9
  24275294.779    24275299.520    16759830.288 9  13380581.555 7
  20614945.406    20614946.276   -14141222.149 9 -10580353.632 8
  20969367.283    20969369.121     -108844.435 9    307098.682 8
 86  6 11  1  6 29.0800000  0  4G 6G 8G 9G11
  20602318.848    20602320.840    -1848174.565 9  -1117239.292 8
  24279485.297    24279487.132    16781847.132 8  13397737.536 7
  20612822.325    20612822.627   -14152378.877 9 -10589047.179 7
  20971119.845    20971122.082      -99638.780 9    314271.909 8
 86  6 11  1  6 35.0800000  0  4G 6G 8G 9G11
  20603521.780    20603523.134    -1841853.697 9  -1112313.950 9
  24283674.750    24283678.202    16803864.578 9  13414893.973 7
  20610702.575    20610702.810   -14163519.070 9 -10597727.864 8
  20972875.038    20972876.718      -90416.658 9    321457.984 9
 86  6 11  1  6 41.0800000  0  4G 6G 8G 9G11
  20604728.463    20604730.053    -1835511.403 9  -1107371.898 8
  24287864.554    24287867.233    16825882.659 9  13432050.920 6
  20608585.577    20608586.899   -14174642.605 9 -10606395.531 7
  20974633.009    20974634.844      -81178.004 9    328656.932 9
 86  6 11  1  6 47.0800000  0  4G 6G 8G 9G11
  20605938.591    20605941.222    -1829147.614 8  -1102413.115 8
  24292054.828    24292057.207    16847901.367 9  13449208.368 7
  20606471.805    20606473.539   -14185749.519 9 -10615050.271 7
  20976394.041    20976396.048      -71922.822 9    335868.759 8
 86  6 11  1  6 53.0800000  0  4G 6G 8G 9G11
  20607154.136    20607156.301    -1822762.353 9  -1097437.594 8
  24296244.624    24296246.704    16869920.603 9  13466366.208 8
  20604362.337    20604363.275   -14196839.767 9 -10623692.029 8
  20978157.849    20978160.515      -62651.133 9    343093.436 8
 86  6 11  1  6 59.0800000  0  4G 6G 8G 9G11
  20608372.462    20608375.720    -1816355.639 9  -1092445.357 8
  24300435.522    24300439.281    16891940.368 9  13483524.462 7
  20602255.713    20602255.711   -14207913.356 9 -10632320.798 8
  20979925.205    20979927.773      -53363.070 9    350330.889 8
 86  6 11  1  7  5.0800000  0  4G 6G 8G 9G11
  20609595.547    20609598.370    -1809927.457 9  -1087436.386 9
  24304625.675    24304630.107    16913960.620 9  13500683.104 7
  20600151.352    20600150.807   -14218970.251 9 -10640936.563 7
  20981695.825    20981697.975      -44058.589 9    357581.148 8
 86  6 11  1  7 11.0800000  0  4G 6G 8G 9G11
  20610824.024    20610825.629    -1803477.737 9  -1082410.623 9
  24308815.306    24308818.523    16935981.484 9  13517842.209 7
  20598049.621    20598049.841   -14230010.320 9 -10649539.220 8
  20983470.050    20983472.016      -34737.616 9    364844.227 9
 86  6 11  1  7 17.0800000  0  4G 6G 8G 9G11
  20612055.801    20612057.080    -1797006.583 9  -1077368.175 9
  24313006.441    24313009.935    16958002.813 9  13535001.672 8
  20595951.796    20595952.527   -14241033.678 9 -10658128.846 7
  20985246.564    20985248.359      -25400.283 9    372120.071 8
 86  6 11  1  7 23.0800000  0  4G 6G 8G 9G11
  20613291.411    20613292.937    -1790513.962 8  -1072309.003 8
  24317196.566    24317200.632    16980024.560 9  13552161.472 8
  20593856.637    20593858.172   -14252040.229 9 -10666705.381 7
  20987026.113    20987029.153      -16046.646 9    379408.615 8
 86  6 11  1  7 29.0800000  0  4G 6G 8G 9G11
  20614530.286    20614531.668    -1783999.851 9  -1067233.067 8
  24321387.263    24321390.057    17002046.763 9  13569321.628 8
  20591766.433    20591767.421   -14263030.005 9 -10675268.843 7
  20988809.125    20988811.834       -6676.644 9    386709.920 9
 86  6 11  1  7 35.0800000  0  4G 6G 8G 9G11
  20615774.192    20615775.392    -1777464.141 9  -1062140.304 8
  24325578.533    24325582.055    17024069.471 9  13586482.176 8
  20589678.414    20589679.864   -14274002.907 9 -10683819.156 7
  20990595.627    20990596.704        2709.805 9    394024.029 8
 86  6 11  1  7 41.0800000  0  4G 6G 8G 9G11
  20617022.354    20617024.054    -1770906.973 9  -1057030.829 8
  24329768.923    24329772.353    17046092.576 9  13603643.030 8
  20587593.768    20587594.823   -14284958.949 9 -10692356.333 8
  20992384.532    20992387.557       12112.536 9    401350.823 8
 86  6 11  1  7 47.0800000  0  4G 6G 8G 9G11
  20618274.601    20618275.724    -1764328.283 9  -1051904.589 8
  24333960.564    24333964.330    17068116.063 9  13620804.181 8
  20585511.437    20585512.369   -14295898.144 9 -10700880.371 7
  20994176.874    20994179.911       21531.571 8    408690.329 8
 86  6 11  1  7 53.0800000  0  4G 6G 8G 9G11
  20619530.132    20619531.448    -1757728.193 9  -1046761.664 7
  24338151.233    24338153.547    17090139.804 9  13637965.530 7
  20583432.200    20583435.218   -14306820.538 9 -10709391.330 8
  20995971.932    20995974.800       30966.802 9    416042.458 8
 86  6 11  1  7 59.0800000  0  4G 6G 8G 9G11
  20620789.566    20620790.852    -1751106.654 9  -1041602.035 8
  24342342.983    24342345.761    17112163.883 9  13655127.146 8
  20581357.536    20581359.773   -14317726.064 9 -10717889.125 8
  20997771.113    20997773.594       40418.260 9    423407.217 8
 86  6 11  1  8  5.0800000  0  4G 6G 8G 9G11
  20622054.048    20622054.809    -1744463.542 9  -1036425.581 8
  24346533.436    24346535.371    17134188.314 9  13672289.032 8
  20579285.317    20579286.704   -14328614.742 9 -10726373.818 8
  20999572.613    20999575.093       49885.948 9    430784.639 8
 86  6 11  1  8 11.0800000  0  4G 6G 8G 9G11
  20623322.661    20623323.642    -1737798.947 8  -1031232.391 8
  24350724.591    24350728.708    17156213.076 9  13689451.177 8
  20577217.353    20577217.826   -14339486.338 9 -10734845.196 8
  21001377.000    21001381.341       59369.868 9    438174.702 8
 86  6 11  1  8 17.0800000  0  4G 6G 8G 9G11
  20624594.208    20624595.022    -1731112.801 9  -1026022.408 8
  24354915.883    24354919.413    17178238.126 9  13706613.543 9
  20575150.930    20575152.892   -14350340.954 9 -10743303.329 7
  21003185.682    21003187.763       68870.018 9    445577.418 8
 86  6 11  1  8 23.0800000  0  4G 6G 8G 9G11
  20625871.365    20625871.739    -1724405.188 9  -1020795.713 8
  24359107.732    24359110.304    17200263.428 9  13723776.113 8
  20573089.250    20573089.489   -14361178.625 9 -10751748.270 7
  21004995.510    21004998.634       78386.305 9    452992.704 8
 86  6 11  1  8 29.0800000  0  4G 6G 8G 9G11
  20627151.278    20627152.148    -1717676.043 9  -1015552.217 8
  24363298.658    24363300.079    17222289.011 9  13740938.889 8
  20571029.496    20571031.460   -14371999.297 9 -10760179.965 8
  21006809.714    21006813.798       87918.752 9    460420.588 8
 86  6 11  1  8 35.0800000  0  4G 6G 8G 9G11
  20628436.075    20628436.850    -1710925.414 9  -1010292.001 8
  24367490.035    24367493.229    17244314.771 9  13758101.814 9
  20568972.997    20568975.616   -14382802.959 9 -10768598.403 7
  21008627.010    21008630.464       97467.407 9    467861.092 9
 86  6 11  1  8 41.0800000  0  4G 6G 8G 9G11
  20629724.975    20629726.598    -1704153.280 8  -1005015.024 8
  24371681.290    24371684.349    17266340.729 9  13775264.898 9
  20566921.047    20566924.247   -14393589.532 9 -10777003.521 8
  21010447.168    21010450.578      107032.149 9    475314.139 8
 86  6 11  1  8 47.0800000  0  4G 6G 8G 9G11
  20631015.933    20631018.546    -1697359.560 9   -999721.217 8
  24375873.269    24375876.005    17288366.930 9  13792428.170 9
  20564871.895    20564874.298   -14404358.970 9 -10785395.284 7
  21012270.931    21012273.555      116613.069 9    482779.787 8
 86  6 11  1  8 53.0800000  0  4G 6G 8G 9G11
  20632314.301    20632315.487    -1690544.325 8   -994410.642 8
  24380064.424    24380067.605    17310393.311 9  13809591.575 8
  20562826.024    20562827.751   -14415111.355 9 -10793773.760 8
  21014096.154    21014099.422      126210.067 9    490257.967 8
 86  6 11  1  8 59.0800000  0  4G 6G 8G 9G11
  20633614.627    20633616.508    -1683707.581 9   -989083.316 8
  24384256.230    24384258.666    17332419.849 9  13826755.105 8
  20560782.951    20560785.031   -14425846.593 9 -10802138.883 7
  21015925.613    21015928.781      135823.119 9    497748.647 8
 86  6 11  1  9  5.0800000  0  4G 6G 8G 9G11
  20634920.042    20634922.078    -1676849.328 9   -983739.224 7
  24388447.163    24388451.094    17354446.520 9  13843918.744 8
  20558744.073    20558745.363   -14436564.607 9 -10810490.592 8
  21017758.477    21017760.886      145452.225 9    505251.841 8
 86  6 11  1  9 11.0800000  0  4G 6G 8G 9G11
  20636228.287    20636231.401    -1669969.461 9   -978378.288 8
  24392638.776    24392641.663    17376473.353 9  13861082.500 8
  20556707.360    20556709.293   -14447265.389 9 -10818828.850 7
  21019593.660    21019596.198      155097.353 9    512767.530 8
 86  6 11  1  9 17.0800000  0  4G 6G 8G 9G11
  20637542.922    20637543.936    -1663068.172 9   -973000.671 8
  24396830.189    24396833.284    17398500.149 9  13878246.234 8
  20554674.653    20554675.900   -14457949.135 9 -10827153.854 8
  21021432.162    21021434.771      164758.376 9    520295.584 8
 86  6 11  1  9 23.0800000  0  4G 6G 8G 9G11
  20638860.041    20638861.610    -1656145.304 9   -967606.232 8
  24401022.433    24401024.517    17420527.119 9  13895410.100 9
  20552644.636    20552646.519   -14468615.607 9 -10835465.392 8
  21023273.927    21023276.136      174435.502 9    527836.209 8
 86  6 11  1  9 29.0800000  0  4G 6G 8G 9G11
  20640182.700    20640183.918    -1649200.926 9   -962195.028 9
  24405214.016    24405216.345    17442554.070 9  13912573.953 8
  20550618.036    20550620.038   -14479264.869 9 -10843763.504 7
  21025118.324    21025120.934      184128.573 9    535389.247 8
 86  6 11  1  9 35.0800000  0  4G 6G 8G 9G11
  20641506.887    20641510.172    -1642235.064 9   -956767.092 7
  24409404.564    24409408.466    17464581.024 9  13929737.809 9
  20548594.938    20548595.931   -14489896.949 9 -10852048.244 8
  21026966.842    21026968.107      193837.603 9    542954.724 8
 86  6 11  1  9 41.0800000  0  4G 6G 8G 9G11
  20642836.747    20642838.845    -1635247.623 9   -951322.330 8
  24413597.615    24413600.043    17486608.013 9  13946901.684 9
  20546574.681    20546576.010   -14500511.620 9 -10860319.422 7
  21028816.735    21028819.559      203562.631 9    550532.669 8
 86  6 11  1  9 47.0800000  0  4G 6G 8G 9G11
  20644170.618    20644172.480    -1628238.649 9   -945860.798 8
  24417788.018    24417790.970    17508634.972 9  13964065.533 9
  20544558.261    20544559.737   -14511109.100 9 -10868577.194 8
  21030670.060    21030673.401      213303.498 9    558122.952 8
 86  6 11  1  9 53.0800000  0  4G 6G 8G 9G11
  20645508.520    20645510.322    -1621208.189 9   -940382.517 7
  24421980.047    24421983.849    17530661.940 9  13981229.401 9
  20542544.939    20542546.799   -14521689.280 9 -10876821.497 9
  21032526.249    21032530.018      223060.220 9    565725.577 8
 86  6 11  1  9 59.0800000  0  4G 6G 8G 9G11
  20646850.500    20646852.644    -1614156.173 9   -934887.444 8
  24426172.125    24426174.247    17552688.803 9  13998393.182 9
  20540534.698    20540536.806   -14532252.081 9 -10885052.239 8
  21034386.787    21034387.953      232832.736 9    573340.527 7
 86  6 11  1 10  5.0800000  0  4G 6G 8G 9G11
  20648196.379    20648197.723    -1607082.621 9   -929375.593 8
  24430362.623    24430366.975    17574715.660 9  14015556.955 9
  20538528.063    20538529.643   -14542797.441 9 -10893269.398 9
  21036248.728    21036251.780      242621.062 9    580967.800 8
 86  6 11  1 10 11.0800000  0  4G 6G 8G 9G11
  20649547.077    20649549.372    -1599987.480 9   -923846.917 8
  24434555.381    24434558.059    17596742.429 9  14032720.654 9
  20536525.581    20536527.252   -14553325.475 9 -10901473.067 8
  21038115.133    21038118.058      252425.304 9    588607.458 8
 86  6 11  1 10 17.0800000  0  4G 6G 8G 9G11
  20650901.524    20650901.800    -1592870.821 9   -918301.476 8
  24438746.500    24438749.816    17618769.063 9  14049884.262 9
  20534525.273    20534526.045   -14563836.016 9 -10909663.101 8
  21039983.314    21039985.493      262245.335 9    596259.424 9
 86  6 11  1 10 23.0800000  0  4G 6G 8G 9G11
  20652260.922    20652261.095    -1585732.537 9   -912739.176 9
  24442937.448    24442940.735    17640795.696 9  14067047.845 9
  20532527.154    20532530.355   -14574329.126 9 -10917839.552 8
  21041854.782    21041858.051      272081.222 9    603923.758 8
 86  6 11  1 10 29.0800000  0  4G 6G 8G 9G11
  20653622.041    20653622.737    -1578572.739 9   -907160.122 8
  24447129.504    24447132.376    17662822.151 9  14084211.305 9
  20530533.781    20530536.702   -14584804.890 9 -10926002.470 8
  21043730.146    21043731.297      281932.897 9    611600.381 9
 86  6 11  1 10 35.0800000  0  4G 6G 8G 9G11
  20654989.069    20654990.714    -1571391.346 9   -901564.230 8
  24451320.509    24451324.297    17684848.483 9  14101374.670 9
  20528543.844    20528546.210   -14595263.075 9 -10934151.716 9
  21045607.426    21045610.006      291800.360 9    619289.306 9
 86  6 11  1 10 41.0800000  0  4G 6G 8G 9G11
  20656359.554    20656360.564    -1564188.532 9   -895951.655 7
  24455512.638    24455515.874    17706874.495 9  14118537.786 9
  20526557.164    20526558.284   -14605703.786 8 -10942287.322 8
  21047487.710    21047491.794      301683.432 9    626990.396 8
 86  6 11  1 10 47.0800000  0  4G 6G 8G 9G11
  20657734.366    20657735.680    -1556964.125 9   -890322.243 8
  24459703.606    24459706.572    17728900.348 9  14135700.781 9
  20524574.414    20524575.666   -14616127.023 9 -10950409.325 8
  21049370.486    21049374.955      311582.246 9    634703.760 8
 86  6 11  1 10 53.0800000  0  4G 6G 8G 9G11
  20659112.406    20659114.951    -1549718.102 8   -884675.999 9
  24463894.247    24463898.885    17750926.022 9  14152863.638 9
  20522594.260    20522596.097   -14626532.677 9 -10958517.631 7
  21051258.554    21051261.821      321496.758 9    642429.346 9
 86  6 11  1 10 59.0800000  0  4G 6G 8G 9G11
  20660495.901    20660497.849    -1542450.502 9   -879012.939 9
  24468086.160    24468090.091    17772951.501 9  14170026.338 9
  20520617.989    20520619.199   -14636920.729 9 -10966612.210 7
  21053147.452    21053150.892      331426.966 9    650167.170 9
 86  6 11  1 11  5.0800000  0  4G 6G 8G 9G11
  20661883.059    20661884.735    -1535161.353 9   -873333.098 8
  24472276.342    24472281.089    17794976.676 9  14187188.789 9
  20518643.063    20518645.176   -14647291.163 9 -10974693.060 8
  21055040.760    21055043.498      341372.808 9    657917.172 9
 86  6 11  1 11 11.0800000  0  4G 6G 8G 9G11
  20663273.176    20663276.361    -1527850.686 9   -867636.464 8
  24476468.328    24476472.001    17817001.563 8  14204351.035 9
  20516673.839    20516675.795   -14657644.056 9 -10982760.265 8
  21056936.384    21056938.994      351334.269 9    665679.345 9
 86  6 11  1 11 17.0800000  0  4G 6G 8G 9G11
  20664669.623    20664671.349    -1520518.373 9   -861922.989 8
  24480658.861    24480663.886    17839026.204 8  14221513.084 9
  20514707.727    20514708.123   -14667979.214 9 -10990813.620 8
  21058835.414    21058838.023      361311.390 9    673453.728 8
 86  6 11  1 11 23.0800000  0  4G 6G 8G 9G11
  20666069.467    20666070.944    -1513164.524 9   -856192.719 9
  24484851.375    24484854.412    17861050.592 9  14238674.946 9
  20512743.329    20512745.137   -14678296.736 9 -10998853.246 8
  21060736.390    21060739.599      371304.163 9    681240.300 8
 86  6 11  1 11 29.0800000  0  4G 6G 8G 9G11
  20667472.365    20667473.861    -1505789.170 9   -850445.694 8
  24489040.842    24489045.338    17883074.606 9  14255836.493 9
  20510783.473    20510785.154   -14688596.590 9 -11006879.109 8
  21062641.057    21062643.467      381312.518 9    689039.018 9
 86  6 11  1 11 35.0800000  0  4G 6G 8G 9G11
  20668880.271    20668881.077    -1498392.205 8   -844681.827 8
  24493232.304    24493236.042    17905098.277 7  14272997.789 9
  20508826.688    20508828.432   -14698878.727 9 -11014891.161 7
  21064549.102    21064550.839      391336.471 9    696849.886 8
 86  6 11  1 11 41.0800000  0  4G 6G 8G 9G11
  20670291.518    20670292.514    -1490973.736 9   -838901.208 8
  24497424.339    24497427.312    17927121.541 7  14290158.767 9
  20506873.444    20506875.187   -14709143.247 9 -11022889.491 8
  21066458.950    21066461.888      401375.902 9    704672.813 9
 86  6 11  1 11 47.0800000  0  4G 6G 8G 9G11
  20671707.981    20671708.758    -1483533.604 9   -833103.702 7
  24501614.235    24501618.317    17949144.478 7  14307319.488 9
  20504923.598    20504925.976   -14719389.951 9 -11030873.923 8
  21068373.348    21068374.484      411430.885 9    712507.866 8
 86  6 11  1 11 53.0800000  0  4G 6G 8G 9G11
  20673127.699    20673129.096    -1476071.956 9   -827289.431 8
  24505806.435    24505809.065    17971166.949 8  14324479.839 9
  20502977.940    20502978.737   -14729618.915 9 -11038844.544 8
  21070288.748    21070291.114      421501.295 9    720354.935 8
 86  6 11  1 11 59.0800000  0  4G 6G 8G 9G11
  20674551.324    20674552.442    -1468588.653 9   -821458.299 8
  24509995.804    24509999.240    17993189.090 8  14341639.951 8
  20501034.172    20501036.385   -14739829.974 9 -11046801.226 8
  21072208.412    21072210.850      431587.241 9    728214.106 8
 86  6 11  1 12  5.0800000  0  4G 6G 8G 9G11
  20675978.838    20675979.797    -1461083.849 9   -815610.403 8
  24514185.984    24514190.366    18015210.720 6  14358799.660 9
  20499094.065    20499096.591   -14750023.390 9 -11054744.138 8
  21074130.937    21074132.947      441688.620 9    736085.311 8
 86  6 11  1 12 11.0800000  0  4G 6G 8G 9G11
  20677411.900    20677413.193    -1453557.459 9   -809745.686 9
  24518376.775    24518380.005    18037231.947 5  14375959.030 9
  20497158.477    20497159.481   -14760198.860 9 -11062673.084 9
  21076055.781    21076059.592      451805.426 9    743968.531 9
 86  6 11  1 12 17.0800000  0  4G 6G 8G 9G11
  20678847.791    20678848.575    -1446009.520 9   -803864.177 7
  24522566.193    24522571.460    18059252.693 5  14393118.039 8
  20495224.926    20495227.210   -14770356.494 9 -11070588.116 8
  21077983.344    21077986.383      461937.614 9    751863.739 8
 86  6 11  1 12 23.0800000  0  4G 6G 8G 9G11
  20680288.333    20680289.776    -1438439.996 9   -797965.846 8
  24526756.216    24526760.926    18081272.967 5  14410276.667 9
  20493294.455    20493296.616   -14780496.289 9 -11078489.266 7
  21079915.457    21079917.836      472085.212 9    759770.960 7
 86  6 11  1 12 29.0800000  0  4G 6G 8G 9G11
  20681732.131    20681734.289    -1430848.900 9   -792050.713 8
  24530946.504    24530950.801    18103292.671 6  14427434.865 9
  20491369.086    20491371.380   -14790618.154 9 -11086376.424 7
  21081848.370    21081851.654      482248.172 9    767690.141 8
 86  6 11  1 12 35.0800000  0  4G 6G 8G 9G11
  20683181.139    20683183.672    -1423236.258 9   -786118.786 7
  24535137.912    24535141.449    18125311.837 6  14444592.648 9
  20489446.427    20489448.258   -14800722.219 9 -11094249.720 7
  21083785.835    21083788.587      492426.495 9    775621.304 9
 86  6 11  1 12 41.0800000  0  4G 6G 8G 9G11
  20684634.793    20684636.122    -1415601.985 9   -780170.004 8
  24539328.595    24539331.652    18147330.406 6  14461749.968 9
  20487527.281    20487528.611   -14810808.317 9 -11102109.016 8
  21085725.360    21085727.841      502620.174 9    783564.430 8
 86  6 11  1 12 47.0800000  0  4G 6G 8G 9G11
  20686090.435    20686092.872    -1407946.147 9   -774204.424 8
  24543515.932    24543520.805    18169348.440 1  14478906.865 3
  20485611.041    20485613.413   -14820876.458 1 -11109954.321 1
  21087667.626    21087671.629      512829.188 9    791519.493 8
 86  6 11  1 12 53.0800000  0  4G 6G 8G 9G11
  20687551.747    20687553.798    -1400268.728 9   -768222.026 8
  24547705.962    24547711.515    18191365.846 1  14496063.275 4
  20483692.973    20483703.310   -14830926.630 1 -11117785.622 1
  21089613.069    21089616.697      523053.510 9    799486.497 9
 86  6 11  1 12 59.0800000  0  4G 6G 8G 9G11
  20689016.006    20689018.328    -1392569.797 9   -762222.862 9
  24551896.576    24551901.105    18213382.694 1  14513219.218 1
                  20481790.012   -14840936.192 4
  21091561.715    21091565.050      533293.073 9    807465.370 9
 86  6 11  1 13  5.0800000  0  4G 6G 8G 9G11
  20690485.331    20690487.325    -1384849.228 9   -756206.840 8
  24556085.993    24556090.161    18235398.912 3  14530374.708 3
                  20479884.999   -14850958.735 4
  21093513.367    21093516.380      543547.950 9    815456.178 8
 86  6 11  1 13 11.0800000  0  4G 6G 8G 9G11
  20691958.921    20691960.827    -1377107.081 8   -750174.007 8
  24560273.441    24560280.204    18257414.463 1  14547529.627 2
                  20477981.976   -14860959.821 5
  21095467.612    21095470.229      553817.973 9    823458.792 8
 86  6 11  1 13 17.0800000  0  4G 6G 8G 9G11
  20693436.601    20693438.337    -1369343.332 9   -744124.333 8
  24564465.510    24564467.916    18279429.361 1  14564684.090 3
                  20476082.717   -14870934.814 3
  21097424.537    21097427.665      564103.320 9    831473.352 8
 86  6 11  1 13 23.0800000  0  4G 6G 8G 9G11
  20694918.633    20694919.738    -1361558.053 9   -738057.883 8
  24568653.209    24568658.845    18301443.579 1  14581837.981 2
                  20474187.593   -14880889.718 5
  21099384.671    21099387.331      574403.832 9    839499.721 8
 86  6 11  1 13 29.0800000  0  4G 6G 8G 9G11
  20696403.985    20696406.206    -1353751.078 9   -731974.529 9
  24572839.552    24572849.563    18323457.113 1  14598991.385 1
                  20472294.773   -14890839.668 4
  21101348.655    21101351.184      584719.623 9    847537.997 7
 86  6 11  1 13 35.0800000  0  4G 6G 8G 9G11
  20697892.981    20697896.463    -1345922.530 9   -725874.374 8
  24577032.346    24577035.744    18345469.956 6  14616144.245 7
                  20470406.607   -14900765.183 6
  21103313.393    21103318.096      595050.529 9    855588.044 8
 86  6 11  1 13 41.0800000  0  4G 6G 8G 9G11
  20699387.794    20699389.833    -1338072.403 9   -719757.384 8
  24581219.559    24581224.646    18367482.052 7  14633296.530 8
                  20468521.577   -14910675.790 4
  21105281.801    21105285.560      605396.572 9    863649.910 8
 86  6 11  1 13 47.0800000  0  4G 6G 8G 9G11
  20700885.833    20700888.187    -1330200.744 9   -713623.629 8
  24585408.144    24585413.518    18389493.288 7  14650448.130 8
                  20466641.158   -14920552.099 5
  21107254.319    21107256.663      615757.670 9    871723.480 7
 86  6 11  1 13 53.0800000  0  4G 6G 8G 9G11
  20702387.083    20702389.433    -1322307.531 9   -707473.085 8
  24589597.874    24589601.748    18411503.761 7  14667599.158 7
                  20464763.540   -14930425.730 5
  21109229.009    21109232.240      626133.844 9    879808.801 8
 86  6 11  1 13 59.0800000  0  4G 6G 8G 9G11
  20703893.955    20703895.218    -1314392.721 9   -701305.701 7
  24593786.577    24593789.719    18433513.479 7  14684749.579 7
                  20462887.935   -14940281.709 4
  21111206.289    21111209.047      636525.116 9    887905.894 8
 86  6 11  1 14  5.0800000  0  4G 6G 8G 9G11
  20705403.968    20705404.920    -1306456.312 9   -695121.490 7
  24597975.593    24597979.035    18455522.377 8  14701899.372 8
                  20461016.048   -14950115.187 4
  21113186.474    21113189.085      646931.499 9    896014.769 8
